<?xml version="1.0" encoding="UTF-8" standalone="no" ?>
<gpx xmlns="http://www.topografix.com/GPX/1/1" xmlns:xsi="http://www.w3.org/2001/XMLSchema-instance" xsi:schemaLocation="http://www.topografix.com/GPX/1/1 http://www.topografix.com/GPX/1/1/gpx.xsd" version="1.1" creator="VisuGPX - https://www.visugpx.com">
  <metadata>
    <name>Parcours Bernard/Patrick</name>
  </metadata>
  <trk>
    <name><![CDATA[Carnac Cyclisme]]></name>
    <trkseg>
      <trkpt lat="47.58122" lon="-3.05739">
        <ele>15</ele>
        <time>2021-08-21T10:10:26.000Z</time>
      </trkpt>
      <trkpt lat="47.5812" lon="-3.05737">
        <ele>15</ele>
        <time>2021-08-21T10:10:26.001Z</time>
      </trkpt>
      <trkpt lat="47.5811" lon="-3.0575">
        <ele>15</ele>
        <time>2021-08-21T10:10:26.005Z</time>
      </trkpt>
      <trkpt lat="47.58095" lon="-3.0576">
        <ele>15</ele>
        <time>2021-08-21T10:10:26.014Z</time>
      </trkpt>
      <trkpt lat="47.58084" lon="-3.05745">
        <ele>15</ele>
        <time>2021-08-21T10:10:26.027Z</time>
      </trkpt>
      <trkpt lat="47.58063" lon="-3.05715">
        <ele>15</ele>
        <time>2021-08-21T10:10:26.048Z</time>
      </trkpt>
      <trkpt lat="47.58053" lon="-3.05703">
        <ele>15.199999809265</ele>
        <time>2021-08-21T10:10:26.072Z</time>
      </trkpt>
      <trkpt lat="47.58044" lon="-3.05691">
        <ele>15.60000038147</ele>
        <time>2021-08-21T10:10:26.100Z</time>
      </trkpt>
      <trkpt lat="47.58017" lon="-3.05679">
        <ele>15.39999961853</ele>
        <time>2021-08-21T10:10:26.136Z</time>
      </trkpt>
      <trkpt lat="47.58" lon="-3.05661">
        <ele>14</ele>
        <time>2021-08-21T10:10:26.177Z</time>
      </trkpt>
      <trkpt lat="47.58004" lon="-3.05638">
        <ele>13.39999961853</ele>
        <time>2021-08-21T10:10:26.223Z</time>
      </trkpt>
      <trkpt lat="47.58009" lon="-3.05628">
        <ele>13</ele>
        <time>2021-08-21T10:10:26.271Z</time>
      </trkpt>
      <trkpt lat="47.5801" lon="-3.05615">
        <ele>12.800000190735</ele>
        <time>2021-08-21T10:10:26.322Z</time>
      </trkpt>
      <trkpt lat="47.58007" lon="-3.0561">
        <ele>12.800000190735</ele>
        <time>2021-08-21T10:10:26.374Z</time>
      </trkpt>
      <trkpt lat="47.57998" lon="-3.05592">
        <ele>12.800000190735</ele>
        <time>2021-08-21T10:10:26.430Z</time>
      </trkpt>
      <trkpt lat="47.57984" lon="-3.05565">
        <ele>12.800000190735</ele>
        <time>2021-08-21T10:10:26.492Z</time>
      </trkpt>
      <trkpt lat="47.57979" lon="-3.05556">
        <ele>12.39999961853</ele>
        <time>2021-08-21T10:10:26.556Z</time>
      </trkpt>
      <trkpt lat="47.57963" lon="-3.05525">
        <ele>11.800000190735</ele>
        <time>2021-08-21T10:10:26.628Z</time>
      </trkpt>
      <trkpt lat="47.57954" lon="-3.05522">
        <ele>12</ele>
        <time>2021-08-21T10:10:26.702Z</time>
      </trkpt>
      <trkpt lat="47.57944" lon="-3.05519">
        <ele>12.199999809265</ele>
        <time>2021-08-21T10:10:26.779Z</time>
      </trkpt>
      <trkpt lat="47.5791" lon="-3.05506">
        <ele>12.60000038147</ele>
        <time>2021-08-21T10:10:26.866Z</time>
      </trkpt>
      <trkpt lat="47.57881" lon="-3.05488">
        <ele>13</ele>
        <time>2021-08-21T10:10:26.961Z</time>
      </trkpt>
      <trkpt lat="47.57859" lon="-3.05474">
        <ele>12.800000190735</ele>
        <time>2021-08-21T10:10:27.063Z</time>
      </trkpt>
      <trkpt lat="47.57834" lon="-3.05457">
        <ele>12.800000190735</ele>
        <time>2021-08-21T10:10:27.172Z</time>
      </trkpt>
      <trkpt lat="47.578" lon="-3.05437">
        <ele>11.199999809265</ele>
        <time>2021-08-21T10:10:27.291Z</time>
      </trkpt>
      <trkpt lat="47.57773" lon="-3.05423">
        <ele>10</ele>
        <time>2021-08-21T10:10:27.418Z</time>
      </trkpt>
      <trkpt lat="47.57766" lon="-3.05419">
        <ele>10</ele>
        <time>2021-08-21T10:10:27.547Z</time>
      </trkpt>
      <trkpt lat="47.57754" lon="-3.05424">
        <ele>9.1999998092651</ele>
        <time>2021-08-21T10:10:27.680Z</time>
      </trkpt>
      <trkpt lat="47.57752" lon="-3.05418">
        <ele>9</ele>
        <time>2021-08-21T10:10:27.814Z</time>
      </trkpt>
      <trkpt lat="47.57754" lon="-3.05405">
        <ele>9.1999998092651</ele>
        <time>2021-08-21T10:10:27.950Z</time>
      </trkpt>
      <trkpt lat="47.57765" lon="-3.05392">
        <ele>9.8000001907349</ele>
        <time>2021-08-21T10:10:28.090Z</time>
      </trkpt>
      <trkpt lat="47.57768" lon="-3.05381">
        <ele>10.199999809265</ele>
        <time>2021-08-21T10:10:28.232Z</time>
      </trkpt>
      <trkpt lat="47.57784" lon="-3.05336">
        <ele>9.6000003814697</ele>
        <time>2021-08-21T10:10:28.384Z</time>
      </trkpt>
      <trkpt lat="47.57801" lon="-3.05286">
        <ele>7.8000001907349</ele>
        <time>2021-08-21T10:10:28.546Z</time>
      </trkpt>
      <trkpt lat="47.57815" lon="-3.05242">
        <ele>6.1999998092651</ele>
        <time>2021-08-21T10:10:28.717Z</time>
      </trkpt>
      <trkpt lat="47.5783" lon="-3.05194">
        <ele>6.8000001907349</ele>
        <time>2021-08-21T10:10:28.898Z</time>
      </trkpt>
      <trkpt lat="47.57842" lon="-3.05148">
        <ele>8</ele>
        <time>2021-08-21T10:10:29.088Z</time>
      </trkpt>
      <trkpt lat="47.57851" lon="-3.05114">
        <ele>8</ele>
        <time>2021-08-21T10:10:29.285Z</time>
      </trkpt>
      <trkpt lat="47.57859" lon="-3.05081">
        <ele>8</ele>
        <time>2021-08-21T10:10:29.489Z</time>
      </trkpt>
      <trkpt lat="47.57866" lon="-3.05051">
        <ele>7.4000000953674</ele>
        <time>2021-08-21T10:10:29.698Z</time>
      </trkpt>
      <trkpt lat="47.57869" lon="-3.05037">
        <ele>7.1999998092651</ele>
        <time>2021-08-21T10:10:29.910Z</time>
      </trkpt>
      <trkpt lat="47.57874" lon="-3.05015">
        <ele>7.4000000953674</ele>
        <time>2021-08-21T10:10:30.126Z</time>
      </trkpt>
      <trkpt lat="47.5788" lon="-3.04962">
        <ele>7.5999999046326</ele>
        <time>2021-08-21T10:10:30.352Z</time>
      </trkpt>
      <trkpt lat="47.57886" lon="-3.04911">
        <ele>8.6000003814697</ele>
        <time>2021-08-21T10:10:30.588Z</time>
      </trkpt>
      <trkpt lat="47.57887" lon="-3.04863">
        <ele>7.5999999046326</ele>
        <time>2021-08-21T10:10:30.833Z</time>
      </trkpt>
      <trkpt lat="47.57887" lon="-3.04819">
        <ele>7.5999999046326</ele>
        <time>2021-08-21T10:10:31.086Z</time>
      </trkpt>
      <trkpt lat="47.57885" lon="-3.04771">
        <ele>7.4000000953674</ele>
        <time>2021-08-21T10:10:31.348Z</time>
      </trkpt>
      <trkpt lat="47.57878" lon="-3.04714">
        <ele>7.4000000953674</ele>
        <time>2021-08-21T10:10:31.621Z</time>
      </trkpt>
      <trkpt lat="47.57872" lon="-3.04669">
        <ele>8.3999996185303</ele>
        <time>2021-08-21T10:10:31.902Z</time>
      </trkpt>
      <trkpt lat="47.57868" lon="-3.04625">
        <ele>9.1999998092651</ele>
        <time>2021-08-21T10:10:32.192Z</time>
      </trkpt>
      <trkpt lat="47.57854" lon="-3.04563">
        <ele>7.4000000953674</ele>
        <time>2021-08-21T10:10:32.494Z</time>
      </trkpt>
      <trkpt lat="47.5785" lon="-3.04529">
        <ele>7</ele>
        <time>2021-08-21T10:10:32.802Z</time>
      </trkpt>
      <trkpt lat="47.57849" lon="-3.04517">
        <ele>6</ele>
        <time>2021-08-21T10:10:33.112Z</time>
      </trkpt>
      <trkpt lat="47.57856" lon="-3.04497">
        <ele>6.4000000953674</ele>
        <time>2021-08-21T10:10:33.427Z</time>
      </trkpt>
      <trkpt lat="47.57877" lon="-3.04473">
        <ele>7.4000000953674</ele>
        <time>2021-08-21T10:10:33.749Z</time>
      </trkpt>
      <trkpt lat="47.57886" lon="-3.04465">
        <ele>7.8000001907349</ele>
        <time>2021-08-21T10:10:34.074Z</time>
      </trkpt>
      <trkpt lat="47.57887" lon="-3.0446">
        <ele>7.8000001907349</ele>
        <time>2021-08-21T10:10:34.400Z</time>
      </trkpt>
      <trkpt lat="47.57895" lon="-3.04425">
        <ele>5.8000001907349</ele>
        <time>2021-08-21T10:10:34.733Z</time>
      </trkpt>
      <trkpt lat="47.5791" lon="-3.04359">
        <ele>3.5999999046326</ele>
        <time>2021-08-21T10:10:35.079Z</time>
      </trkpt>
      <trkpt lat="47.57922" lon="-3.04307">
        <ele>5.4000000953674</ele>
        <time>2021-08-21T10:10:35.435Z</time>
      </trkpt>
      <trkpt lat="47.57935" lon="-3.04247">
        <ele>5.4000000953674</ele>
        <time>2021-08-21T10:10:35.802Z</time>
      </trkpt>
      <trkpt lat="47.57938" lon="-3.0419">
        <ele>3.4000000953674</ele>
        <time>2021-08-21T10:10:36.180Z</time>
      </trkpt>
      <trkpt lat="47.57938" lon="-3.04139">
        <ele>0.60000002384186</ele>
        <time>2021-08-21T10:10:36.567Z</time>
      </trkpt>
      <trkpt lat="47.57931" lon="-3.04091">
        <ele>2.3</ele>
        <time>2021-08-21T10:10:36.964Z</time>
      </trkpt>
      <trkpt lat="47.5792" lon="-3.0404">
        <ele>2.5</ele>
        <time>2021-08-21T10:10:37.370Z</time>
      </trkpt>
      <trkpt lat="47.579" lon="-3.03984">
        <ele>2.8</ele>
        <time>2021-08-21T10:10:37.788Z</time>
      </trkpt>
      <trkpt lat="47.57879" lon="-3.03924">
        <ele>3</ele>
        <time>2021-08-21T10:10:38.219Z</time>
      </trkpt>
      <trkpt lat="47.57865" lon="-3.03885">
        <ele>3.7</ele>
        <time>2021-08-21T10:10:38.658Z</time>
      </trkpt>
      <trkpt lat="47.57857" lon="-3.03864">
        <ele>2.2000000476837</ele>
        <time>2021-08-21T10:10:39.102Z</time>
      </trkpt>
      <trkpt lat="47.57854" lon="-3.03854">
        <ele>4.4000000953674</ele>
        <time>2021-08-21T10:10:39.547Z</time>
      </trkpt>
      <trkpt lat="47.57833" lon="-3.03833">
        <ele>9.1999998092651</ele>
        <time>2021-08-21T10:10:39.999Z</time>
      </trkpt>
      <trkpt lat="47.57817" lon="-3.03828">
        <ele>10</ele>
        <time>2021-08-21T10:10:40.456Z</time>
      </trkpt>
      <trkpt lat="47.57799" lon="-3.03822">
        <ele>11</ele>
        <time>2021-08-21T10:10:40.918Z</time>
      </trkpt>
      <trkpt lat="47.57784" lon="-3.03818">
        <ele>11</ele>
        <time>2021-08-21T10:10:41.384Z</time>
      </trkpt>
      <trkpt lat="47.5778" lon="-3.03816">
        <ele>11</ele>
        <time>2021-08-21T10:10:41.851Z</time>
      </trkpt>
      <trkpt lat="47.57769" lon="-3.03813">
        <ele>11</ele>
        <time>2021-08-21T10:10:42.321Z</time>
      </trkpt>
      <trkpt lat="47.57729" lon="-3.03811">
        <ele>10.199999809265</ele>
        <time>2021-08-21T10:10:42.802Z</time>
      </trkpt>
      <trkpt lat="47.57716" lon="-3.03813">
        <ele>9.3999996185303</ele>
        <time>2021-08-21T10:10:43.287Z</time>
      </trkpt>
      <trkpt lat="47.57705" lon="-3.03809">
        <ele>8.3999996185303</ele>
        <time>2021-08-21T10:10:43.775Z</time>
      </trkpt>
      <trkpt lat="47.577" lon="-3.03806">
        <ele>7.8000001907349</ele>
        <time>2021-08-21T10:10:44.264Z</time>
      </trkpt>
      <trkpt lat="47.57689" lon="-3.03769">
        <ele>5.4000000953674</ele>
        <time>2021-08-21T10:10:44.761Z</time>
      </trkpt>
      <trkpt lat="47.57672" lon="-3.03757">
        <ele>4</ele>
        <time>2021-08-21T10:10:45.263Z</time>
      </trkpt>
      <trkpt lat="47.57654" lon="-3.03737">
        <ele>4</ele>
        <time>2021-08-21T10:10:45.771Z</time>
      </trkpt>
      <trkpt lat="47.57649" lon="-3.03735">
        <ele>4.4000000953674</ele>
        <time>2021-08-21T10:10:46.281Z</time>
      </trkpt>
      <trkpt lat="47.57641" lon="-3.03734">
        <ele>5</ele>
        <time>2021-08-21T10:10:46.793Z</time>
      </trkpt>
      <trkpt lat="47.57639" lon="-3.03736">
        <ele>5.4000000953674</ele>
        <time>2021-08-21T10:10:47.305Z</time>
      </trkpt>
      <trkpt lat="47.57631" lon="-3.03737">
        <ele>6.8000001907349</ele>
        <time>2021-08-21T10:10:47.820Z</time>
      </trkpt>
      <trkpt lat="47.57622" lon="-3.03733">
        <ele>8.3999996185303</ele>
        <time>2021-08-21T10:10:48.337Z</time>
      </trkpt>
      <trkpt lat="47.57615" lon="-3.03726">
        <ele>10</ele>
        <time>2021-08-21T10:10:48.857Z</time>
      </trkpt>
      <trkpt lat="47.57607" lon="-3.03717">
        <ele>10.800000190735</ele>
        <time>2021-08-21T10:10:49.379Z</time>
      </trkpt>
      <trkpt lat="47.57592" lon="-3.03701">
        <ele>9.6000003814697</ele>
        <time>2021-08-21T10:10:49.907Z</time>
      </trkpt>
      <trkpt lat="47.57578" lon="-3.03703">
        <ele>9</ele>
        <time>2021-08-21T10:10:50.438Z</time>
      </trkpt>
      <trkpt lat="47.57563" lon="-3.03703">
        <ele>7.4000000953674</ele>
        <time>2021-08-21T10:10:50.974Z</time>
      </trkpt>
      <trkpt lat="47.57562" lon="-3.03666">
        <ele>7.1999998092651</ele>
        <time>2021-08-21T10:10:51.516Z</time>
      </trkpt>
      <trkpt lat="47.5756" lon="-3.03654">
        <ele>7</ele>
        <time>2021-08-21T10:10:52.061Z</time>
      </trkpt>
      <trkpt lat="47.57556" lon="-3.03635">
        <ele>6.8000001907349</ele>
        <time>2021-08-21T10:10:52.609Z</time>
      </trkpt>
      <trkpt lat="47.57549" lon="-3.03614">
        <ele>7.1999998092651</ele>
        <time>2021-08-21T10:10:53.162Z</time>
      </trkpt>
      <trkpt lat="47.57547" lon="-3.03613">
        <ele>7</ele>
        <time>2021-08-21T10:10:53.715Z</time>
      </trkpt>
      <trkpt lat="47.57538" lon="-3.03612">
        <ele>7</ele>
        <time>2021-08-21T10:10:54.271Z</time>
      </trkpt>
      <trkpt lat="47.57522" lon="-3.03609">
        <ele>7</ele>
        <time>2021-08-21T10:10:54.831Z</time>
      </trkpt>
      <trkpt lat="47.57517" lon="-3.03599">
        <ele>7</ele>
        <time>2021-08-21T10:10:55.393Z</time>
      </trkpt>
      <trkpt lat="47.57514" lon="-3.03594">
        <ele>7.1999998092651</ele>
        <time>2021-08-21T10:10:55.957Z</time>
      </trkpt>
      <trkpt lat="47.57509" lon="-3.03575">
        <ele>8.1999998092651</ele>
        <time>2021-08-21T10:10:56.524Z</time>
      </trkpt>
      <trkpt lat="47.57503" lon="-3.03554">
        <ele>7.5999999046326</ele>
        <time>2021-08-21T10:10:57.096Z</time>
      </trkpt>
      <trkpt lat="47.57506" lon="-3.03519">
        <ele>6.4000000953674</ele>
        <time>2021-08-21T10:10:57.674Z</time>
      </trkpt>
      <trkpt lat="47.57509" lon="-3.0348">
        <ele>3.7999999523163</ele>
        <time>2021-08-21T10:10:58.259Z</time>
      </trkpt>
      <trkpt lat="47.57511" lon="-3.03442">
        <ele>2.4000000953674</ele>
        <time>2021-08-21T10:10:58.851Z</time>
      </trkpt>
      <trkpt lat="47.57514" lon="-3.03401">
        <ele>1.6000000238419</ele>
        <time>2021-08-21T10:10:59.451Z</time>
      </trkpt>
      <trkpt lat="47.57515" lon="-3.03386">
        <ele>2</ele>
        <time>2021-08-21T10:11:00.054Z</time>
      </trkpt>
      <trkpt lat="47.57512" lon="-3.03381">
        <ele>2</ele>
        <time>2021-08-21T10:11:00.658Z</time>
      </trkpt>
      <trkpt lat="47.57509" lon="-3.03381">
        <ele>2</ele>
        <time>2021-08-21T10:11:01.263Z</time>
      </trkpt>
      <trkpt lat="47.57498" lon="-3.0338">
        <ele>1.7999999523163</ele>
        <time>2021-08-21T10:11:01.871Z</time>
      </trkpt>
      <trkpt lat="47.57464" lon="-3.03376">
        <ele>1</ele>
        <time>2021-08-21T10:11:02.488Z</time>
      </trkpt>
      <trkpt lat="47.57443" lon="-3.03374">
        <ele>1.2000000476837</ele>
        <time>2021-08-21T10:11:03.111Z</time>
      </trkpt>
      <trkpt lat="47.57424" lon="-3.03371">
        <ele>1.7999999523163</ele>
        <time>2021-08-21T10:11:03.739Z</time>
      </trkpt>
      <trkpt lat="47.57409" lon="-3.03363">
        <ele>2.4000000953674</ele>
        <time>2021-08-21T10:11:04.372Z</time>
      </trkpt>
      <trkpt lat="47.57389" lon="-3.03353">
        <ele>2.2000000476837</ele>
        <time>2021-08-21T10:11:05.011Z</time>
      </trkpt>
      <trkpt lat="47.57369" lon="-3.03343">
        <ele>2.7999999523163</ele>
        <time>2021-08-21T10:11:05.655Z</time>
      </trkpt>
      <trkpt lat="47.57365" lon="-3.0334">
        <ele>3</ele>
        <time>2021-08-21T10:11:06.301Z</time>
      </trkpt>
      <trkpt lat="47.57364" lon="-3.03339">
        <ele>3</ele>
        <time>2021-08-21T10:11:06.947Z</time>
      </trkpt>
      <trkpt lat="47.5736" lon="-3.03337">
        <ele>3</ele>
        <time>2021-08-21T10:11:07.594Z</time>
      </trkpt>
      <trkpt lat="47.57359" lon="-3.03336">
        <ele>3</ele>
        <time>2021-08-21T10:11:08.241Z</time>
      </trkpt>
      <trkpt lat="47.57332" lon="-3.03315">
        <ele>2.4000000953674</ele>
        <time>2021-08-21T10:11:08.897Z</time>
      </trkpt>
      <trkpt lat="47.57327" lon="-3.033">
        <ele>1.3999999761581</ele>
        <time>2021-08-21T10:11:09.556Z</time>
      </trkpt>
      <trkpt lat="47.57329" lon="-3.03278">
        <ele>0.40000000596046</ele>
        <time>2021-08-21T10:11:10.219Z</time>
      </trkpt>
      <trkpt lat="47.57329" lon="-3.03261">
        <ele>1.9</ele>
        <time>2021-08-21T10:11:10.885Z</time>
      </trkpt>
      <trkpt lat="47.57333" lon="-3.03249">
        <ele>2</ele>
        <time>2021-08-21T10:11:11.554Z</time>
      </trkpt>
      <trkpt lat="47.57334" lon="-3.03244">
        <ele>2.1</ele>
        <time>2021-08-21T10:11:12.224Z</time>
      </trkpt>
      <trkpt lat="47.57335" lon="-3.03243">
        <ele>2.2</ele>
        <time>2021-08-21T10:11:12.894Z</time>
      </trkpt>
      <trkpt lat="47.57335" lon="-3.03237">
        <ele>2.1</ele>
        <time>2021-08-21T10:11:13.565Z</time>
      </trkpt>
      <trkpt lat="47.57337" lon="-3.03217">
        <ele>0.20000000298023</ele>
        <time>2021-08-21T10:11:14.240Z</time>
      </trkpt>
      <trkpt lat="47.57339" lon="-3.03197">
        <ele>0.20000000298023</ele>
        <time>2021-08-21T10:11:14.919Z</time>
      </trkpt>
      <trkpt lat="47.57343" lon="-3.03162">
        <ele>0.60000002384186</ele>
        <time>2021-08-21T10:11:15.604Z</time>
      </trkpt>
      <trkpt lat="47.57343" lon="-3.03128">
        <ele>0.80000001192093</ele>
        <time>2021-08-21T10:11:16.295Z</time>
      </trkpt>
      <trkpt lat="47.57344" lon="-3.03094">
        <ele>0.80000001192093</ele>
        <time>2021-08-21T10:11:16.993Z</time>
      </trkpt>
      <trkpt lat="47.57345" lon="-3.03061">
        <ele>1.3999999761581</ele>
        <time>2021-08-21T10:11:17.697Z</time>
      </trkpt>
      <trkpt lat="47.57344" lon="-3.03034">
        <ele>1.3999999761581</ele>
        <time>2021-08-21T10:11:18.406Z</time>
      </trkpt>
      <trkpt lat="47.57342" lon="-3.0303">
        <ele>1.2000000476837</ele>
        <time>2021-08-21T10:11:19.116Z</time>
      </trkpt>
      <trkpt lat="47.5734" lon="-3.03001">
        <ele>0.80000001192093</ele>
        <time>2021-08-21T10:11:19.831Z</time>
      </trkpt>
      <trkpt lat="47.57335" lon="-3.02958">
        <ele>4</ele>
        <time>2021-08-21T10:11:20.554Z</time>
      </trkpt>
      <trkpt lat="47.57329" lon="-3.02925">
        <ele>3.7999999523163</ele>
        <time>2021-08-21T10:11:21.284Z</time>
      </trkpt>
      <trkpt lat="47.5732" lon="-3.0289">
        <ele>2.4000000953674</ele>
        <time>2021-08-21T10:11:22.021Z</time>
      </trkpt>
      <trkpt lat="47.57307" lon="-3.02856">
        <ele>3</ele>
        <time>2021-08-21T10:11:22.765Z</time>
      </trkpt>
      <trkpt lat="47.57293" lon="-3.02823">
        <ele>2.5999999046326</ele>
        <time>2021-08-21T10:11:23.516Z</time>
      </trkpt>
      <trkpt lat="47.57278" lon="-3.02798">
        <ele>1.7999999523163</ele>
        <time>2021-08-21T10:11:24.273Z</time>
      </trkpt>
      <trkpt lat="47.57263" lon="-3.02772">
        <ele>1.3999999761581</ele>
        <time>2021-08-21T10:11:25.037Z</time>
      </trkpt>
      <trkpt lat="47.57251" lon="-3.0275">
        <ele>0.40000000596046</ele>
        <time>2021-08-21T10:11:25.806Z</time>
      </trkpt>
      <trkpt lat="47.57246" lon="-3.02729">
        <ele>1.2000000476837</ele>
        <time>2021-08-21T10:11:26.579Z</time>
      </trkpt>
      <trkpt lat="47.57252" lon="-3.02717">
        <ele>2.4000000953674</ele>
        <time>2021-08-21T10:11:27.355Z</time>
      </trkpt>
      <trkpt lat="47.57255" lon="-3.02717">
        <ele>2.7999999523163</ele>
        <time>2021-08-21T10:11:28.132Z</time>
      </trkpt>
      <trkpt lat="47.57263" lon="-3.0272">
        <ele>3.7999999523163</ele>
        <time>2021-08-21T10:11:28.911Z</time>
      </trkpt>
      <trkpt lat="47.57273" lon="-3.02726">
        <ele>4.8000001907349</ele>
        <time>2021-08-21T10:11:29.693Z</time>
      </trkpt>
      <trkpt lat="47.57274" lon="-3.02727">
        <ele>4.8000001907349</ele>
        <time>2021-08-21T10:11:30.475Z</time>
      </trkpt>
      <trkpt lat="47.57275" lon="-3.02726">
        <ele>5</ele>
        <time>2021-08-21T10:11:31.257Z</time>
      </trkpt>
      <trkpt lat="47.57275" lon="-3.02727">
        <ele>5</ele>
        <time>2021-08-21T10:11:32.040Z</time>
      </trkpt>
      <trkpt lat="47.57276" lon="-3.02727">
        <ele>5.1999998092651</ele>
        <time>2021-08-21T10:11:32.823Z</time>
      </trkpt>
      <trkpt lat="47.5728" lon="-3.0273">
        <ele>5.5999999046326</ele>
        <time>2021-08-21T10:11:33.607Z</time>
      </trkpt>
      <trkpt lat="47.57294" lon="-3.02736">
        <ele>7.1999998092651</ele>
        <time>2021-08-21T10:11:34.395Z</time>
      </trkpt>
      <trkpt lat="47.57313" lon="-3.0274">
        <ele>9</ele>
        <time>2021-08-21T10:11:35.188Z</time>
      </trkpt>
      <trkpt lat="47.5733" lon="-3.02746">
        <ele>9.1999998092651</ele>
        <time>2021-08-21T10:11:35.986Z</time>
      </trkpt>
      <trkpt lat="47.57347" lon="-3.02752">
        <ele>8.3999996185303</ele>
        <time>2021-08-21T10:11:36.789Z</time>
      </trkpt>
      <trkpt lat="47.57363" lon="-3.02758">
        <ele>8.1999998092651</ele>
        <time>2021-08-21T10:11:37.596Z</time>
      </trkpt>
      <trkpt lat="47.57384" lon="-3.02761">
        <ele>7.4000000953674</ele>
        <time>2021-08-21T10:11:38.409Z</time>
      </trkpt>
      <trkpt lat="47.57403" lon="-3.02766">
        <ele>7.4000000953674</ele>
        <time>2021-08-21T10:11:39.227Z</time>
      </trkpt>
      <trkpt lat="47.57422" lon="-3.02771">
        <ele>7.8000001907349</ele>
        <time>2021-08-21T10:11:40.051Z</time>
      </trkpt>
      <trkpt lat="47.57446" lon="-3.02778">
        <ele>9</ele>
        <time>2021-08-21T10:11:40.882Z</time>
      </trkpt>
      <trkpt lat="47.57462" lon="-3.02783">
        <ele>9</ele>
        <time>2021-08-21T10:11:41.717Z</time>
      </trkpt>
      <trkpt lat="47.57479" lon="-3.02774">
        <ele>9</ele>
        <time>2021-08-21T10:11:42.557Z</time>
      </trkpt>
      <trkpt lat="47.57499" lon="-3.0278">
        <ele>9</ele>
        <time>2021-08-21T10:11:43.402Z</time>
      </trkpt>
      <trkpt lat="47.57514" lon="-3.02804">
        <ele>9.3999996185303</ele>
        <time>2021-08-21T10:11:44.253Z</time>
      </trkpt>
      <trkpt lat="47.5753" lon="-3.02829">
        <ele>10</ele>
        <time>2021-08-21T10:11:45.111Z</time>
      </trkpt>
      <trkpt lat="47.57548" lon="-3.02856">
        <ele>9.8000001907349</ele>
        <time>2021-08-21T10:11:45.976Z</time>
      </trkpt>
      <trkpt lat="47.57564" lon="-3.02876">
        <ele>9.3999996185303</ele>
        <time>2021-08-21T10:11:46.847Z</time>
      </trkpt>
      <trkpt lat="47.57568" lon="-3.02886">
        <ele>10.199999809265</ele>
        <time>2021-08-21T10:11:47.720Z</time>
      </trkpt>
      <trkpt lat="47.57587" lon="-3.02915">
        <ele>11.199999809265</ele>
        <time>2021-08-21T10:11:48.600Z</time>
      </trkpt>
      <trkpt lat="47.57607" lon="-3.02945">
        <ele>11.800000190735</ele>
        <time>2021-08-21T10:11:49.488Z</time>
      </trkpt>
      <trkpt lat="47.57628" lon="-3.02975">
        <ele>10.39999961853</ele>
        <time>2021-08-21T10:11:50.384Z</time>
      </trkpt>
      <trkpt lat="47.57648" lon="-3.02998">
        <ele>9.8000001907349</ele>
        <time>2021-08-21T10:11:51.287Z</time>
      </trkpt>
      <trkpt lat="47.57674" lon="-3.0302">
        <ele>10</ele>
        <time>2021-08-21T10:11:52.198Z</time>
      </trkpt>
      <trkpt lat="47.57701" lon="-3.03041">
        <ele>10.199999809265</ele>
        <time>2021-08-21T10:11:53.118Z</time>
      </trkpt>
      <trkpt lat="47.57719" lon="-3.03057">
        <ele>10.199999809265</ele>
        <time>2021-08-21T10:11:54.043Z</time>
      </trkpt>
      <trkpt lat="47.57724" lon="-3.03061">
        <ele>10.39999961853</ele>
        <time>2021-08-21T10:11:54.970Z</time>
      </trkpt>
      <trkpt lat="47.57757" lon="-3.03088">
        <ele>11.39999961853</ele>
        <time>2021-08-21T10:11:55.907Z</time>
      </trkpt>
      <trkpt lat="47.57786" lon="-3.03105">
        <ele>12</ele>
        <time>2021-08-21T10:11:56.853Z</time>
      </trkpt>
      <trkpt lat="47.5779" lon="-3.03106">
        <ele>12</ele>
        <time>2021-08-21T10:11:57.800Z</time>
      </trkpt>
      <trkpt lat="47.57805" lon="-3.03103">
        <ele>12.800000190735</ele>
        <time>2021-08-21T10:11:58.751Z</time>
      </trkpt>
      <trkpt lat="47.57836" lon="-3.03097">
        <ele>13</ele>
        <time>2021-08-21T10:11:59.711Z</time>
      </trkpt>
      <trkpt lat="47.57868" lon="-3.03091">
        <ele>14</ele>
        <time>2021-08-21T10:12:00.680Z</time>
      </trkpt>
      <trkpt lat="47.579" lon="-3.03084">
        <ele>13.60000038147</ele>
        <time>2021-08-21T10:12:01.658Z</time>
      </trkpt>
      <trkpt lat="47.5791" lon="-3.03077">
        <ele>13.800000190735</ele>
        <time>2021-08-21T10:12:02.639Z</time>
      </trkpt>
      <trkpt lat="47.57913" lon="-3.03077">
        <ele>13.800000190735</ele>
        <time>2021-08-21T10:12:03.620Z</time>
      </trkpt>
      <trkpt lat="47.57913" lon="-3.03088">
        <ele>13.39999961853</ele>
        <time>2021-08-21T10:12:04.603Z</time>
      </trkpt>
      <trkpt lat="47.57921" lon="-3.03098">
        <ele>13</ele>
        <time>2021-08-21T10:12:05.589Z</time>
      </trkpt>
      <trkpt lat="47.57945" lon="-3.03127">
        <ele>12</ele>
        <time>2021-08-21T10:12:06.584Z</time>
      </trkpt>
      <trkpt lat="47.57971" lon="-3.03159">
        <ele>12.60000038147</ele>
        <time>2021-08-21T10:12:07.588Z</time>
      </trkpt>
      <trkpt lat="47.5798" lon="-3.0317">
        <ele>12.60000038147</ele>
        <time>2021-08-21T10:12:08.595Z</time>
      </trkpt>
      <trkpt lat="47.57994" lon="-3.03187">
        <ele>12.39999961853</ele>
        <time>2021-08-21T10:12:09.607Z</time>
      </trkpt>
      <trkpt lat="47.58023" lon="-3.03216">
        <ele>12.60000038147</ele>
        <time>2021-08-21T10:12:10.629Z</time>
      </trkpt>
      <trkpt lat="47.58036" lon="-3.03228">
        <ele>12.60000038147</ele>
        <time>2021-08-21T10:12:11.655Z</time>
      </trkpt>
      <trkpt lat="47.58035" lon="-3.03234">
        <ele>12.39999961853</ele>
        <time>2021-08-21T10:12:12.682Z</time>
      </trkpt>
      <trkpt lat="47.58029" lon="-3.03237">
        <ele>12</ele>
        <time>2021-08-21T10:12:13.711Z</time>
      </trkpt>
      <trkpt lat="47.58015" lon="-3.03246">
        <ele>11.199999809265</ele>
        <time>2021-08-21T10:12:14.744Z</time>
      </trkpt>
      <trkpt lat="47.58009" lon="-3.03249">
        <ele>10.800000190735</ele>
        <time>2021-08-21T10:12:15.779Z</time>
      </trkpt>
      <trkpt lat="47.58016" lon="-3.03275">
        <ele>10.199999809265</ele>
        <time>2021-08-21T10:12:16.819Z</time>
      </trkpt>
      <trkpt lat="47.5802" lon="-3.03278">
        <ele>10</ele>
        <time>2021-08-21T10:12:17.860Z</time>
      </trkpt>
      <trkpt lat="47.58023" lon="-3.0328">
        <ele>10</ele>
        <time>2021-08-21T10:12:18.902Z</time>
      </trkpt>
      <trkpt lat="47.58036" lon="-3.03285">
        <ele>9.8000001907349</ele>
        <time>2021-08-21T10:12:19.948Z</time>
      </trkpt>
      <trkpt lat="47.58046" lon="-3.03291">
        <ele>10.199999809265</ele>
        <time>2021-08-21T10:12:20.997Z</time>
      </trkpt>
      <trkpt lat="47.5806" lon="-3.03304">
        <ele>10.800000190735</ele>
        <time>2021-08-21T10:12:22.050Z</time>
      </trkpt>
      <trkpt lat="47.58072" lon="-3.03315">
        <ele>11.800000190735</ele>
        <time>2021-08-21T10:12:23.107Z</time>
      </trkpt>
      <trkpt lat="47.5808" lon="-3.03321">
        <ele>12.39999961853</ele>
        <time>2021-08-21T10:12:24.167Z</time>
      </trkpt>
      <trkpt lat="47.58089" lon="-3.03326">
        <ele>13</ele>
        <time>2021-08-21T10:12:25.229Z</time>
      </trkpt>
      <trkpt lat="47.581" lon="-3.03333">
        <ele>13.60000038147</ele>
        <time>2021-08-21T10:12:26.294Z</time>
      </trkpt>
      <trkpt lat="47.58103" lon="-3.03337">
        <ele>13.60000038147</ele>
        <time>2021-08-21T10:12:27.360Z</time>
      </trkpt>
      <trkpt lat="47.58106" lon="-3.03341">
        <ele>13.800000190735</ele>
        <time>2021-08-21T10:12:28.428Z</time>
      </trkpt>
      <trkpt lat="47.58125" lon="-3.03365">
        <ele>13</ele>
        <time>2021-08-21T10:12:29.502Z</time>
      </trkpt>
      <trkpt lat="47.58129" lon="-3.03367">
        <ele>12.800000190735</ele>
        <time>2021-08-21T10:12:30.578Z</time>
      </trkpt>
      <trkpt lat="47.58144" lon="-3.03379">
        <ele>12</ele>
        <time>2021-08-21T10:12:31.658Z</time>
      </trkpt>
      <trkpt lat="47.58161" lon="-3.03391">
        <ele>12.199999809265</ele>
        <time>2021-08-21T10:12:32.743Z</time>
      </trkpt>
      <trkpt lat="47.58177" lon="-3.034">
        <ele>12</ele>
        <time>2021-08-21T10:12:33.833Z</time>
      </trkpt>
      <trkpt lat="47.58191" lon="-3.03409">
        <ele>11.199999809265</ele>
        <time>2021-08-21T10:12:34.927Z</time>
      </trkpt>
      <trkpt lat="47.58202" lon="-3.03419">
        <ele>10</ele>
        <time>2021-08-21T10:12:36.025Z</time>
      </trkpt>
      <trkpt lat="47.58201" lon="-3.03424">
        <ele>9.1999998092651</ele>
        <time>2021-08-21T10:12:37.124Z</time>
      </trkpt>
      <trkpt lat="47.58202" lon="-3.03433">
        <ele>8</ele>
        <time>2021-08-21T10:12:38.224Z</time>
      </trkpt>
      <trkpt lat="47.58201" lon="-3.03441">
        <ele>7.4000000953674</ele>
        <time>2021-08-21T10:12:39.326Z</time>
      </trkpt>
      <trkpt lat="47.58199" lon="-3.03451">
        <ele>6.8000001907349</ele>
        <time>2021-08-21T10:12:40.430Z</time>
      </trkpt>
      <trkpt lat="47.58194" lon="-3.03474">
        <ele>5.4000000953674</ele>
        <time>2021-08-21T10:12:41.538Z</time>
      </trkpt>
      <trkpt lat="47.58194" lon="-3.03483">
        <ele>5</ele>
        <time>2021-08-21T10:12:42.648Z</time>
      </trkpt>
      <trkpt lat="47.58188" lon="-3.03528">
        <ele>5.8000001907349</ele>
        <time>2021-08-21T10:12:43.767Z</time>
      </trkpt>
      <trkpt lat="47.58179" lon="-3.03555">
        <ele>6.1999998092651</ele>
        <time>2021-08-21T10:12:44.891Z</time>
      </trkpt>
      <trkpt lat="47.58163" lon="-3.03595">
        <ele>7.1999998092651</ele>
        <time>2021-08-21T10:12:46.024Z</time>
      </trkpt>
      <trkpt lat="47.58154" lon="-3.03619">
        <ele>6.5999999046326</ele>
        <time>2021-08-21T10:12:47.162Z</time>
      </trkpt>
      <trkpt lat="47.58143" lon="-3.03642">
        <ele>5.4000000953674</ele>
        <time>2021-08-21T10:12:48.305Z</time>
      </trkpt>
      <trkpt lat="47.5814" lon="-3.03655">
        <ele>4.8000001907349</ele>
        <time>2021-08-21T10:12:49.451Z</time>
      </trkpt>
      <trkpt lat="47.58141" lon="-3.0366">
        <ele>5</ele>
        <time>2021-08-21T10:12:50.598Z</time>
      </trkpt>
      <trkpt lat="47.58147" lon="-3.03679">
        <ele>6.1999998092651</ele>
        <time>2021-08-21T10:12:51.749Z</time>
      </trkpt>
      <trkpt lat="47.5815" lon="-3.0369">
        <ele>7</ele>
        <time>2021-08-21T10:12:52.902Z</time>
      </trkpt>
      <trkpt lat="47.58154" lon="-3.03711">
        <ele>7.1999998092651</ele>
        <time>2021-08-21T10:12:54.059Z</time>
      </trkpt>
      <trkpt lat="47.58159" lon="-3.03726">
        <ele>7.5999999046326</ele>
        <time>2021-08-21T10:12:55.219Z</time>
      </trkpt>
      <trkpt lat="47.58161" lon="-3.03727">
        <ele>8</ele>
        <time>2021-08-21T10:12:56.380Z</time>
      </trkpt>
      <trkpt lat="47.58167" lon="-3.03737">
        <ele>8.6000003814697</ele>
        <time>2021-08-21T10:12:57.543Z</time>
      </trkpt>
      <trkpt lat="47.5817" lon="-3.03748">
        <ele>8.3999996185303</ele>
        <time>2021-08-21T10:12:58.708Z</time>
      </trkpt>
      <trkpt lat="47.58177" lon="-3.03773">
        <ele>7.5999999046326</ele>
        <time>2021-08-21T10:12:59.878Z</time>
      </trkpt>
      <trkpt lat="47.58189" lon="-3.03791">
        <ele>8</ele>
        <time>2021-08-21T10:13:01.053Z</time>
      </trkpt>
      <trkpt lat="47.58203" lon="-3.03812">
        <ele>7.8000001907349</ele>
        <time>2021-08-21T10:13:02.233Z</time>
      </trkpt>
      <trkpt lat="47.58223" lon="-3.03844">
        <ele>7.4000000953674</ele>
        <time>2021-08-21T10:13:03.422Z</time>
      </trkpt>
      <trkpt lat="47.58233" lon="-3.03859">
        <ele>6.8000001907349</ele>
        <time>2021-08-21T10:13:04.614Z</time>
      </trkpt>
      <trkpt lat="47.58252" lon="-3.03877">
        <ele>5.8000001907349</ele>
        <time>2021-08-21T10:13:05.812Z</time>
      </trkpt>
      <trkpt lat="47.58273" lon="-3.03897">
        <ele>5</ele>
        <time>2021-08-21T10:13:07.017Z</time>
      </trkpt>
      <trkpt lat="47.58298" lon="-3.03915">
        <ele>3.7999999523163</ele>
        <time>2021-08-21T10:13:08.230Z</time>
      </trkpt>
      <trkpt lat="47.58317" lon="-3.03921">
        <ele>4</ele>
        <time>2021-08-21T10:13:09.448Z</time>
      </trkpt>
      <trkpt lat="47.58335" lon="-3.03926">
        <ele>4.4000000953674</ele>
        <time>2021-08-21T10:13:10.671Z</time>
      </trkpt>
      <trkpt lat="47.58364" lon="-3.03933">
        <ele>5</ele>
        <time>2021-08-21T10:13:11.902Z</time>
      </trkpt>
      <trkpt lat="47.58376" lon="-3.03938">
        <ele>5.4000000953674</ele>
        <time>2021-08-21T10:13:13.137Z</time>
      </trkpt>
      <trkpt lat="47.58394" lon="-3.03944">
        <ele>6.1999998092651</ele>
        <time>2021-08-21T10:13:14.377Z</time>
      </trkpt>
      <trkpt lat="47.58398" lon="-3.03946">
        <ele>6.4000000953674</ele>
        <time>2021-08-21T10:13:15.618Z</time>
      </trkpt>
      <trkpt lat="47.58415" lon="-3.03949">
        <ele>7.4000000953674</ele>
        <time>2021-08-21T10:13:16.864Z</time>
      </trkpt>
      <trkpt lat="47.58437" lon="-3.03947">
        <ele>8.3999996185303</ele>
        <time>2021-08-21T10:13:18.116Z</time>
      </trkpt>
      <trkpt lat="47.5845" lon="-3.03944">
        <ele>8.8000001907349</ele>
        <time>2021-08-21T10:13:19.371Z</time>
      </trkpt>
      <trkpt lat="47.58463" lon="-3.03942">
        <ele>8.8000001907349</ele>
        <time>2021-08-21T10:13:20.630Z</time>
      </trkpt>
      <trkpt lat="47.58478" lon="-3.03935">
        <ele>9.6000003814697</ele>
        <time>2021-08-21T10:13:21.893Z</time>
      </trkpt>
      <trkpt lat="47.58488" lon="-3.03928">
        <ele>10.199999809265</ele>
        <time>2021-08-21T10:13:23.159Z</time>
      </trkpt>
      <trkpt lat="47.58491" lon="-3.03924">
        <ele>10.60000038147</ele>
        <time>2021-08-21T10:13:24.426Z</time>
      </trkpt>
      <trkpt lat="47.58493" lon="-3.03921">
        <ele>10.800000190735</ele>
        <time>2021-08-21T10:13:25.694Z</time>
      </trkpt>
      <trkpt lat="47.58497" lon="-3.0392">
        <ele>10.800000190735</ele>
        <time>2021-08-21T10:13:26.963Z</time>
      </trkpt>
      <trkpt lat="47.58505" lon="-3.03912">
        <ele>11.60000038147</ele>
        <time>2021-08-21T10:13:28.235Z</time>
      </trkpt>
      <trkpt lat="47.5851" lon="-3.03904">
        <ele>12.39999961853</ele>
        <time>2021-08-21T10:13:29.509Z</time>
      </trkpt>
      <trkpt lat="47.58514" lon="-3.03895">
        <ele>13.199999809265</ele>
        <time>2021-08-21T10:13:30.785Z</time>
      </trkpt>
      <trkpt lat="47.58518" lon="-3.03889">
        <ele>13.60000038147</ele>
        <time>2021-08-21T10:13:32.062Z</time>
      </trkpt>
      <trkpt lat="47.58521" lon="-3.03884">
        <ele>14.199999809265</ele>
        <time>2021-08-21T10:13:33.341Z</time>
      </trkpt>
      <trkpt lat="47.58525" lon="-3.03878">
        <ele>14.800000190735</ele>
        <time>2021-08-21T10:13:34.621Z</time>
      </trkpt>
      <trkpt lat="47.58531" lon="-3.03862">
        <ele>16</ele>
        <time>2021-08-21T10:13:35.905Z</time>
      </trkpt>
      <trkpt lat="47.5854" lon="-3.03851">
        <ele>16.200000762939</ele>
        <time>2021-08-21T10:13:37.192Z</time>
      </trkpt>
      <trkpt lat="47.58555" lon="-3.0383">
        <ele>16.60000038147</ele>
        <time>2021-08-21T10:13:38.485Z</time>
      </trkpt>
      <trkpt lat="47.58562" lon="-3.03823">
        <ele>16.799999237061</ele>
        <time>2021-08-21T10:13:39.780Z</time>
      </trkpt>
      <trkpt lat="47.58564" lon="-3.03823">
        <ele>16.799999237061</ele>
        <time>2021-08-21T10:13:41.075Z</time>
      </trkpt>
      <trkpt lat="47.58567" lon="-3.03815">
        <ele>17.39999961853</ele>
        <time>2021-08-21T10:13:42.372Z</time>
      </trkpt>
      <trkpt lat="47.58568" lon="-3.03822">
        <ele>17</ele>
        <time>2021-08-21T10:13:43.670Z</time>
      </trkpt>
      <trkpt lat="47.58569" lon="-3.03822">
        <ele>17</ele>
        <time>2021-08-21T10:13:44.969Z</time>
      </trkpt>
      <trkpt lat="47.5857" lon="-3.03824">
        <ele>16.799999237061</ele>
        <time>2021-08-21T10:13:46.268Z</time>
      </trkpt>
      <trkpt lat="47.58573" lon="-3.03835">
        <ele>16</ele>
        <time>2021-08-21T10:13:47.569Z</time>
      </trkpt>
      <trkpt lat="47.58579" lon="-3.03857">
        <ele>15.60000038147</ele>
        <time>2021-08-21T10:13:48.875Z</time>
      </trkpt>
      <trkpt lat="47.58583" lon="-3.03869">
        <ele>15.199999809265</ele>
        <time>2021-08-21T10:13:50.183Z</time>
      </trkpt>
      <trkpt lat="47.58589" lon="-3.03869">
        <ele>15.39999961853</ele>
        <time>2021-08-21T10:13:51.493Z</time>
      </trkpt>
      <trkpt lat="47.58591" lon="-3.03866">
        <ele>15.800000190735</ele>
        <time>2021-08-21T10:13:52.803Z</time>
      </trkpt>
      <trkpt lat="47.58596" lon="-3.03858">
        <ele>16.39999961853</ele>
        <time>2021-08-21T10:13:54.116Z</time>
      </trkpt>
      <trkpt lat="47.58604" lon="-3.03846">
        <ele>17.39999961853</ele>
        <time>2021-08-21T10:13:55.432Z</time>
      </trkpt>
      <trkpt lat="47.58612" lon="-3.03838">
        <ele>18.60000038147</ele>
        <time>2021-08-21T10:13:56.750Z</time>
      </trkpt>
      <trkpt lat="47.58621" lon="-3.03832">
        <ele>19.799999237061</ele>
        <time>2021-08-21T10:13:58.071Z</time>
      </trkpt>
      <trkpt lat="47.58628" lon="-3.03828">
        <ele>20.39999961853</ele>
        <time>2021-08-21T10:13:59.394Z</time>
      </trkpt>
      <trkpt lat="47.58632" lon="-3.03825">
        <ele>21</ele>
        <time>2021-08-21T10:14:00.718Z</time>
      </trkpt>
      <trkpt lat="47.58635" lon="-3.03825">
        <ele>21.200000762939</ele>
        <time>2021-08-21T10:14:02.043Z</time>
      </trkpt>
      <trkpt lat="47.58649" lon="-3.03832">
        <ele>21.39999961853</ele>
        <time>2021-08-21T10:14:03.372Z</time>
      </trkpt>
      <trkpt lat="47.58656" lon="-3.03832">
        <ele>21.799999237061</ele>
        <time>2021-08-21T10:14:04.703Z</time>
      </trkpt>
      <trkpt lat="47.5867" lon="-3.03831">
        <ele>22.60000038147</ele>
        <time>2021-08-21T10:14:06.038Z</time>
      </trkpt>
      <trkpt lat="47.58688" lon="-3.0383">
        <ele>23.39999961853</ele>
        <time>2021-08-21T10:14:07.378Z</time>
      </trkpt>
      <trkpt lat="47.58697" lon="-3.0382">
        <ele>24</ele>
        <time>2021-08-21T10:14:08.721Z</time>
      </trkpt>
      <trkpt lat="47.58701" lon="-3.03798">
        <ele>24.799999237061</ele>
        <time>2021-08-21T10:14:10.068Z</time>
      </trkpt>
      <trkpt lat="47.58704" lon="-3.03776">
        <ele>25.60000038147</ele>
        <time>2021-08-21T10:14:11.419Z</time>
      </trkpt>
      <trkpt lat="47.58705" lon="-3.0377">
        <ele>25.799999237061</ele>
        <time>2021-08-21T10:14:12.772Z</time>
      </trkpt>
      <trkpt lat="47.5871" lon="-3.03771">
        <ele>25.799999237061</ele>
        <time>2021-08-21T10:14:14.126Z</time>
      </trkpt>
      <trkpt lat="47.58729" lon="-3.03775">
        <ele>25.60000038147</ele>
        <time>2021-08-21T10:14:15.485Z</time>
      </trkpt>
      <trkpt lat="47.58744" lon="-3.03778">
        <ele>25.60000038147</ele>
        <time>2021-08-21T10:14:16.848Z</time>
      </trkpt>
      <trkpt lat="47.58745" lon="-3.03778">
        <ele>25.60000038147</ele>
        <time>2021-08-21T10:14:18.212Z</time>
      </trkpt>
      <trkpt lat="47.58755" lon="-3.03796">
        <ele>25</ele>
        <time>2021-08-21T10:14:19.580Z</time>
      </trkpt>
      <trkpt lat="47.58799" lon="-3.03784">
        <ele>24.60000038147</ele>
        <time>2021-08-21T10:14:20.960Z</time>
      </trkpt>
      <trkpt lat="47.58817" lon="-3.03788">
        <ele>24</ele>
        <time>2021-08-21T10:14:22.345Z</time>
      </trkpt>
      <trkpt lat="47.58833" lon="-3.038">
        <ele>22.60000038147</ele>
        <time>2021-08-21T10:14:23.735Z</time>
      </trkpt>
      <trkpt lat="47.58849" lon="-3.03799">
        <ele>22.60000038147</ele>
        <time>2021-08-21T10:14:25.129Z</time>
      </trkpt>
      <trkpt lat="47.58866" lon="-3.03798">
        <ele>22.39999961853</ele>
        <time>2021-08-21T10:14:26.528Z</time>
      </trkpt>
      <trkpt lat="47.58892" lon="-3.03799">
        <ele>22.60000038147</ele>
        <time>2021-08-21T10:14:27.934Z</time>
      </trkpt>
      <trkpt lat="47.58913" lon="-3.03799">
        <ele>22.60000038147</ele>
        <time>2021-08-21T10:14:29.346Z</time>
      </trkpt>
      <trkpt lat="47.58935" lon="-3.0378">
        <ele>24.60000038147</ele>
        <time>2021-08-21T10:14:30.765Z</time>
      </trkpt>
      <trkpt lat="47.58959" lon="-3.03765">
        <ele>26.39999961853</ele>
        <time>2021-08-21T10:14:32.191Z</time>
      </trkpt>
      <trkpt lat="47.58973" lon="-3.0378">
        <ele>25.799999237061</ele>
        <time>2021-08-21T10:14:33.622Z</time>
      </trkpt>
      <trkpt lat="47.58988" lon="-3.03796">
        <ele>24.799999237061</ele>
        <time>2021-08-21T10:14:35.058Z</time>
      </trkpt>
      <trkpt lat="47.59012" lon="-3.03822">
        <ele>22.799999237061</ele>
        <time>2021-08-21T10:14:36.502Z</time>
      </trkpt>
      <trkpt lat="47.5905" lon="-3.0386">
        <ele>22.200000762939</ele>
        <time>2021-08-21T10:14:37.959Z</time>
      </trkpt>
      <trkpt lat="47.59074" lon="-3.03878">
        <ele>22.60000038147</ele>
        <time>2021-08-21T10:14:39.423Z</time>
      </trkpt>
      <trkpt lat="47.59078" lon="-3.03881">
        <ele>22.799999237061</ele>
        <time>2021-08-21T10:14:40.888Z</time>
      </trkpt>
      <trkpt lat="47.5909" lon="-3.03834">
        <ele>23.39999961853</ele>
        <time>2021-08-21T10:14:42.363Z</time>
      </trkpt>
      <trkpt lat="47.59096" lon="-3.03821">
        <ele>23.60000038147</ele>
        <time>2021-08-21T10:14:43.841Z</time>
      </trkpt>
      <trkpt lat="47.591" lon="-3.03808">
        <ele>23.39999961853</ele>
        <time>2021-08-21T10:14:45.321Z</time>
      </trkpt>
      <trkpt lat="47.59104" lon="-3.03801">
        <ele>23.39999961853</ele>
        <time>2021-08-21T10:14:46.803Z</time>
      </trkpt>
      <trkpt lat="47.59107" lon="-3.03801">
        <ele>23.200000762939</ele>
        <time>2021-08-21T10:14:48.286Z</time>
      </trkpt>
      <trkpt lat="47.59121" lon="-3.03808">
        <ele>22.200000762939</ele>
        <time>2021-08-21T10:14:49.773Z</time>
      </trkpt>
      <trkpt lat="47.5914" lon="-3.03815">
        <ele>21</ele>
        <time>2021-08-21T10:14:51.265Z</time>
      </trkpt>
      <trkpt lat="47.59154" lon="-3.03824">
        <ele>20.60000038147</ele>
        <time>2021-08-21T10:14:52.762Z</time>
      </trkpt>
      <trkpt lat="47.59176" lon="-3.03829">
        <ele>20</ele>
        <time>2021-08-21T10:14:54.265Z</time>
      </trkpt>
      <trkpt lat="47.592" lon="-3.03821">
        <ele>19.799999237061</ele>
        <time>2021-08-21T10:14:55.774Z</time>
      </trkpt>
      <trkpt lat="47.59216" lon="-3.03825">
        <ele>19.39999961853</ele>
        <time>2021-08-21T10:14:57.288Z</time>
      </trkpt>
      <trkpt lat="47.59224" lon="-3.03827">
        <ele>18.799999237061</ele>
        <time>2021-08-21T10:14:58.804Z</time>
      </trkpt>
      <trkpt lat="47.59243" lon="-3.03832">
        <ele>17.200000762939</ele>
        <time>2021-08-21T10:15:00.325Z</time>
      </trkpt>
      <trkpt lat="47.59252" lon="-3.03834">
        <ele>16.60000038147</ele>
        <time>2021-08-21T10:15:01.849Z</time>
      </trkpt>
      <trkpt lat="47.59256" lon="-3.03835">
        <ele>16.39999961853</ele>
        <time>2021-08-21T10:15:03.374Z</time>
      </trkpt>
      <trkpt lat="47.59273" lon="-3.03836">
        <ele>15.60000038147</ele>
        <time>2021-08-21T10:15:04.904Z</time>
      </trkpt>
      <trkpt lat="47.59314" lon="-3.03832">
        <ele>14.60000038147</ele>
        <time>2021-08-21T10:15:06.445Z</time>
      </trkpt>
      <trkpt lat="47.59319" lon="-3.03823">
        <ele>15</ele>
        <time>2021-08-21T10:15:07.988Z</time>
      </trkpt>
      <trkpt lat="47.59318" lon="-3.03818">
        <ele>15</ele>
        <time>2021-08-21T10:15:09.532Z</time>
      </trkpt>
      <trkpt lat="47.59316" lon="-3.03809">
        <ele>15.60000038147</ele>
        <time>2021-08-21T10:15:11.078Z</time>
      </trkpt>
      <trkpt lat="47.59313" lon="-3.038">
        <ele>16.200000762939</ele>
        <time>2021-08-21T10:15:12.626Z</time>
      </trkpt>
      <trkpt lat="47.59309" lon="-3.0378">
        <ele>17</ele>
        <time>2021-08-21T10:15:14.178Z</time>
      </trkpt>
      <trkpt lat="47.59304" lon="-3.03759">
        <ele>17.200000762939</ele>
        <time>2021-08-21T10:15:15.734Z</time>
      </trkpt>
      <trkpt lat="47.593" lon="-3.03742">
        <ele>17.200000762939</ele>
        <time>2021-08-21T10:15:17.293Z</time>
      </trkpt>
      <trkpt lat="47.59295" lon="-3.0372">
        <ele>16.200000762939</ele>
        <time>2021-08-21T10:15:18.856Z</time>
      </trkpt>
      <trkpt lat="47.5929" lon="-3.03694">
        <ele>15</ele>
        <time>2021-08-21T10:15:20.424Z</time>
      </trkpt>
      <trkpt lat="47.59284" lon="-3.03668">
        <ele>15.39999961853</ele>
        <time>2021-08-21T10:15:21.997Z</time>
      </trkpt>
      <trkpt lat="47.59278" lon="-3.03641">
        <ele>16.39999961853</ele>
        <time>2021-08-21T10:15:23.576Z</time>
      </trkpt>
      <trkpt lat="47.5928" lon="-3.03609">
        <ele>17</ele>
        <time>2021-08-21T10:15:25.161Z</time>
      </trkpt>
      <trkpt lat="47.59285" lon="-3.03587">
        <ele>17</ele>
        <time>2021-08-21T10:15:26.750Z</time>
      </trkpt>
      <trkpt lat="47.59286" lon="-3.03581">
        <ele>17</ele>
        <time>2021-08-21T10:15:28.340Z</time>
      </trkpt>
      <trkpt lat="47.59286" lon="-3.0358">
        <ele>17</ele>
        <time>2021-08-21T10:15:29.930Z</time>
      </trkpt>
      <trkpt lat="47.5929" lon="-3.03565">
        <ele>17</ele>
        <time>2021-08-21T10:15:31.523Z</time>
      </trkpt>
      <trkpt lat="47.59295" lon="-3.03542">
        <ele>17</ele>
        <time>2021-08-21T10:15:33.121Z</time>
      </trkpt>
      <trkpt lat="47.59305" lon="-3.03496">
        <ele>18</ele>
        <time>2021-08-21T10:15:34.728Z</time>
      </trkpt>
      <trkpt lat="47.59312" lon="-3.03463">
        <ele>19.39999961853</ele>
        <time>2021-08-21T10:15:36.341Z</time>
      </trkpt>
      <trkpt lat="47.59323" lon="-3.03444">
        <ele>20</ele>
        <time>2021-08-21T10:15:37.959Z</time>
      </trkpt>
      <trkpt lat="47.59335" lon="-3.03422">
        <ele>20</ele>
        <time>2021-08-21T10:15:39.582Z</time>
      </trkpt>
      <trkpt lat="47.59334" lon="-3.03419">
        <ele>20.200000762939</ele>
        <time>2021-08-21T10:15:41.206Z</time>
      </trkpt>
      <trkpt lat="47.59326" lon="-3.03404">
        <ele>21.39999961853</ele>
        <time>2021-08-21T10:15:42.833Z</time>
      </trkpt>
      <trkpt lat="47.59308" lon="-3.03369">
        <ele>23.799999237061</ele>
        <time>2021-08-21T10:15:44.469Z</time>
      </trkpt>
      <trkpt lat="47.59295" lon="-3.03346">
        <ele>24.39999961853</ele>
        <time>2021-08-21T10:15:46.110Z</time>
      </trkpt>
      <trkpt lat="47.59303" lon="-3.03333">
        <ele>23.60000038147</ele>
        <time>2021-08-21T10:15:47.754Z</time>
      </trkpt>
      <trkpt lat="47.59317" lon="-3.03317">
        <ele>22.60000038147</ele>
        <time>2021-08-21T10:15:49.403Z</time>
      </trkpt>
      <trkpt lat="47.5934" lon="-3.03286">
        <ele>21.799999237061</ele>
        <time>2021-08-21T10:15:51.061Z</time>
      </trkpt>
      <trkpt lat="47.59356" lon="-3.03261">
        <ele>21.39999961853</ele>
        <time>2021-08-21T10:15:52.725Z</time>
      </trkpt>
      <trkpt lat="47.59361" lon="-3.03244">
        <ele>21.799999237061</ele>
        <time>2021-08-21T10:15:54.393Z</time>
      </trkpt>
      <trkpt lat="47.59369" lon="-3.03246">
        <ele>21.200000762939</ele>
        <time>2021-08-21T10:15:56.063Z</time>
      </trkpt>
      <trkpt lat="47.59373" lon="-3.03247">
        <ele>21</ele>
        <time>2021-08-21T10:15:57.734Z</time>
      </trkpt>
      <trkpt lat="47.59381" lon="-3.03248">
        <ele>20.39999961853</ele>
        <time>2021-08-21T10:15:59.407Z</time>
      </trkpt>
      <trkpt lat="47.59393" lon="-3.03251">
        <ele>20</ele>
        <time>2021-08-21T10:16:01.084Z</time>
      </trkpt>
      <trkpt lat="47.59399" lon="-3.03246">
        <ele>19.799999237061</ele>
        <time>2021-08-21T10:16:02.762Z</time>
      </trkpt>
      <trkpt lat="47.59399" lon="-3.03243">
        <ele>19.799999237061</ele>
        <time>2021-08-21T10:16:04.441Z</time>
      </trkpt>
      <trkpt lat="47.59397" lon="-3.03221">
        <ele>20.39999961853</ele>
        <time>2021-08-21T10:16:06.124Z</time>
      </trkpt>
      <trkpt lat="47.59394" lon="-3.03182">
        <ele>21</ele>
        <time>2021-08-21T10:16:07.814Z</time>
      </trkpt>
      <trkpt lat="47.59389" lon="-3.03135">
        <ele>20</ele>
        <time>2021-08-21T10:16:09.513Z</time>
      </trkpt>
      <trkpt lat="47.59387" lon="-3.0313">
        <ele>20.200000762939</ele>
        <time>2021-08-21T10:16:11.213Z</time>
      </trkpt>
      <trkpt lat="47.5938" lon="-3.03106">
        <ele>20</ele>
        <time>2021-08-21T10:16:12.918Z</time>
      </trkpt>
      <trkpt lat="47.59376" lon="-3.03092">
        <ele>20</ele>
        <time>2021-08-21T10:16:14.626Z</time>
      </trkpt>
      <trkpt lat="47.59378" lon="-3.03084">
        <ele>20</ele>
        <time>2021-08-21T10:16:16.336Z</time>
      </trkpt>
      <trkpt lat="47.59379" lon="-3.03077">
        <ele>20</ele>
        <time>2021-08-21T10:16:18.047Z</time>
      </trkpt>
      <trkpt lat="47.59383" lon="-3.03059">
        <ele>20</ele>
        <time>2021-08-21T10:16:19.761Z</time>
      </trkpt>
      <trkpt lat="47.59393" lon="-3.03023">
        <ele>19.39999961853</ele>
        <time>2021-08-21T10:16:21.483Z</time>
      </trkpt>
      <trkpt lat="47.594" lon="-3.02999">
        <ele>19</ele>
        <time>2021-08-21T10:16:23.209Z</time>
      </trkpt>
      <trkpt lat="47.5941" lon="-3.02976">
        <ele>19</ele>
        <time>2021-08-21T10:16:24.940Z</time>
      </trkpt>
      <trkpt lat="47.59419" lon="-3.02937">
        <ele>18.200000762939</ele>
        <time>2021-08-21T10:16:26.679Z</time>
      </trkpt>
      <trkpt lat="47.59423" lon="-3.029">
        <ele>17.200000762939</ele>
        <time>2021-08-21T10:16:28.425Z</time>
      </trkpt>
      <trkpt lat="47.59423" lon="-3.02887">
        <ele>16.799999237061</ele>
        <time>2021-08-21T10:16:30.174Z</time>
      </trkpt>
      <trkpt lat="47.59419" lon="-3.02874">
        <ele>16</ele>
        <time>2021-08-21T10:16:31.925Z</time>
      </trkpt>
      <trkpt lat="47.59417" lon="-3.02868">
        <ele>15.60000038147</ele>
        <time>2021-08-21T10:16:33.677Z</time>
      </trkpt>
      <trkpt lat="47.59407" lon="-3.02817">
        <ele>15</ele>
        <time>2021-08-21T10:16:35.439Z</time>
      </trkpt>
      <trkpt lat="47.59404" lon="-3.02751">
        <ele>14</ele>
        <time>2021-08-21T10:16:37.213Z</time>
      </trkpt>
      <trkpt lat="47.59402" lon="-3.02739">
        <ele>13.800000190735</ele>
        <time>2021-08-21T10:16:38.990Z</time>
      </trkpt>
      <trkpt lat="47.59399" lon="-3.02726">
        <ele>13.39999961853</ele>
        <time>2021-08-21T10:16:40.769Z</time>
      </trkpt>
      <trkpt lat="47.59397" lon="-3.0272">
        <ele>13.199999809265</ele>
        <time>2021-08-21T10:16:42.550Z</time>
      </trkpt>
      <trkpt lat="47.59374" lon="-3.02684">
        <ele>14.60000038147</ele>
        <time>2021-08-21T10:16:44.340Z</time>
      </trkpt>
      <trkpt lat="47.5936" lon="-3.02661">
        <ele>15.60000038147</ele>
        <time>2021-08-21T10:16:46.136Z</time>
      </trkpt>
      <trkpt lat="47.59353" lon="-3.02644">
        <ele>15.60000038147</ele>
        <time>2021-08-21T10:16:47.935Z</time>
      </trkpt>
      <trkpt lat="47.59348" lon="-3.02625">
        <ele>15.39999961853</ele>
        <time>2021-08-21T10:16:49.738Z</time>
      </trkpt>
      <trkpt lat="47.59334" lon="-3.02571">
        <ele>11.800000190735</ele>
        <time>2021-08-21T10:16:51.552Z</time>
      </trkpt>
      <trkpt lat="47.59323" lon="-3.02524">
        <ele>10</ele>
        <time>2021-08-21T10:16:53.375Z</time>
      </trkpt>
      <trkpt lat="47.59314" lon="-3.02499">
        <ele>9.8000001907349</ele>
        <time>2021-08-21T10:16:55.203Z</time>
      </trkpt>
      <trkpt lat="47.5931" lon="-3.02489">
        <ele>10</ele>
        <time>2021-08-21T10:16:57.034Z</time>
      </trkpt>
      <trkpt lat="47.59304" lon="-3.0249">
        <ele>9.8000001907349</ele>
        <time>2021-08-21T10:16:58.866Z</time>
      </trkpt>
      <trkpt lat="47.59296" lon="-3.02493">
        <ele>9.8000001907349</ele>
        <time>2021-08-21T10:17:00.700Z</time>
      </trkpt>
      <trkpt lat="47.59293" lon="-3.02482">
        <ele>10</ele>
        <time>2021-08-21T10:17:02.537Z</time>
      </trkpt>
      <trkpt lat="47.59289" lon="-3.02463">
        <ele>10</ele>
        <time>2021-08-21T10:17:04.377Z</time>
      </trkpt>
      <trkpt lat="47.59276" lon="-3.0244">
        <ele>8.8000001907349</ele>
        <time>2021-08-21T10:17:06.223Z</time>
      </trkpt>
      <trkpt lat="47.59262" lon="-3.02416">
        <ele>2.7999999523163</ele>
        <time>2021-08-21T10:17:08.074Z</time>
      </trkpt>
      <trkpt lat="47.59241" lon="-3.02385">
        <ele>4.2</ele>
        <time>2021-08-21T10:17:09.934Z</time>
      </trkpt>
      <trkpt lat="47.59216" lon="-3.02347">
        <ele>1</ele>
        <time>2021-08-21T10:17:11.804Z</time>
      </trkpt>
      <trkpt lat="47.59188" lon="-3.02305">
        <time>2021-08-21T10:17:13.684Z</time>
      </trkpt>
      <trkpt lat="47.59163" lon="-3.02268">
        <ele>3.4</ele>
        <time>2021-08-21T10:17:15.574Z</time>
      </trkpt>
      <trkpt lat="47.59141" lon="-3.02235">
        <ele>6.1999998092651</ele>
        <time>2021-08-21T10:17:17.473Z</time>
      </trkpt>
      <trkpt lat="47.59137" lon="-3.0223">
        <ele>6.8000001907349</ele>
        <time>2021-08-21T10:17:19.373Z</time>
      </trkpt>
      <trkpt lat="47.5911" lon="-3.0219">
        <ele>12.800000190735</ele>
        <time>2021-08-21T10:17:21.284Z</time>
      </trkpt>
      <trkpt lat="47.59107" lon="-3.02185">
        <ele>13.199999809265</ele>
        <time>2021-08-21T10:17:23.196Z</time>
      </trkpt>
      <trkpt lat="47.59091" lon="-3.02161">
        <ele>15</ele>
        <time>2021-08-21T10:17:25.114Z</time>
      </trkpt>
      <trkpt lat="47.59061" lon="-3.02117">
        <ele>18.60000038147</ele>
        <time>2021-08-21T10:17:27.044Z</time>
      </trkpt>
      <trkpt lat="47.59042" lon="-3.02088">
        <ele>20</ele>
        <time>2021-08-21T10:17:28.981Z</time>
      </trkpt>
      <trkpt lat="47.59041" lon="-3.02087">
        <ele>20</ele>
        <time>2021-08-21T10:17:30.919Z</time>
      </trkpt>
      <trkpt lat="47.59037" lon="-3.02082">
        <ele>20</ele>
        <time>2021-08-21T10:17:32.858Z</time>
      </trkpt>
      <trkpt lat="47.59027" lon="-3.02067">
        <ele>19.799999237061</ele>
        <time>2021-08-21T10:17:34.801Z</time>
      </trkpt>
      <trkpt lat="47.59007" lon="-3.02037">
        <ele>18</ele>
        <time>2021-08-21T10:17:36.752Z</time>
      </trkpt>
      <trkpt lat="47.58983" lon="-3.02002">
        <ele>13.60000038147</ele>
        <time>2021-08-21T10:17:38.712Z</time>
      </trkpt>
      <trkpt lat="47.58952" lon="-3.01957">
        <ele>8.8000001907349</ele>
        <time>2021-08-21T10:17:40.684Z</time>
      </trkpt>
      <trkpt lat="47.58913" lon="-3.01893">
        <ele>5.5999999046326</ele>
        <time>2021-08-21T10:17:42.672Z</time>
      </trkpt>
      <trkpt lat="47.58887" lon="-3.01831">
        <ele>6.1999998092651</ele>
        <time>2021-08-21T10:17:44.673Z</time>
      </trkpt>
      <trkpt lat="47.58872" lon="-3.01784">
        <ele>7.4000000953674</ele>
        <time>2021-08-21T10:17:46.684Z</time>
      </trkpt>
      <trkpt lat="47.58863" lon="-3.01749">
        <ele>8.3999996185303</ele>
        <time>2021-08-21T10:17:48.702Z</time>
      </trkpt>
      <trkpt lat="47.58851" lon="-3.01703">
        <ele>8.6000003814697</ele>
        <time>2021-08-21T10:17:50.729Z</time>
      </trkpt>
      <trkpt lat="47.58847" lon="-3.01693">
        <ele>8.6000003814697</ele>
        <time>2021-08-21T10:17:52.758Z</time>
      </trkpt>
      <trkpt lat="47.58842" lon="-3.01683">
        <ele>8.3999996185303</ele>
        <time>2021-08-21T10:17:54.790Z</time>
      </trkpt>
      <trkpt lat="47.58857" lon="-3.01646">
        <ele>6.8000001907349</ele>
        <time>2021-08-21T10:17:56.830Z</time>
      </trkpt>
      <trkpt lat="47.58857" lon="-3.01645">
        <ele>6.8000001907349</ele>
        <time>2021-08-21T10:17:58.870Z</time>
      </trkpt>
      <trkpt lat="47.58866" lon="-3.01641">
        <ele>6.4000000953674</ele>
        <time>2021-08-21T10:18:00.912Z</time>
      </trkpt>
      <trkpt lat="47.5887" lon="-3.01639">
        <ele>6.5999999046326</ele>
        <time>2021-08-21T10:18:02.956Z</time>
      </trkpt>
      <trkpt lat="47.58879" lon="-3.01634">
        <ele>6.5999999046326</ele>
        <time>2021-08-21T10:18:05.002Z</time>
      </trkpt>
      <trkpt lat="47.58889" lon="-3.01631">
        <ele>6.8000001907349</ele>
        <time>2021-08-21T10:18:07.051Z</time>
      </trkpt>
      <trkpt lat="47.58906" lon="-3.01634">
        <ele>7</ele>
        <time>2021-08-21T10:18:09.105Z</time>
      </trkpt>
      <trkpt lat="47.5891" lon="-3.01634">
        <ele>7</ele>
        <time>2021-08-21T10:18:11.160Z</time>
      </trkpt>
      <trkpt lat="47.58927" lon="-3.01637">
        <ele>7.1999998092651</ele>
        <time>2021-08-21T10:18:13.220Z</time>
      </trkpt>
      <trkpt lat="47.58965" lon="-3.0164">
        <ele>6.4000000953674</ele>
        <time>2021-08-21T10:18:15.290Z</time>
      </trkpt>
      <trkpt lat="47.58973" lon="-3.01639">
        <ele>6</ele>
        <time>2021-08-21T10:18:17.362Z</time>
      </trkpt>
      <trkpt lat="47.58991" lon="-3.01637">
        <ele>6.8000001907349</ele>
        <time>2021-08-21T10:18:19.439Z</time>
      </trkpt>
      <trkpt lat="47.59023" lon="-3.01624">
        <ele>8.1999998092651</ele>
        <time>2021-08-21T10:18:21.525Z</time>
      </trkpt>
      <trkpt lat="47.59056" lon="-3.0161">
        <ele>7</ele>
        <time>2021-08-21T10:18:23.620Z</time>
      </trkpt>
      <trkpt lat="47.59075" lon="-3.01601">
        <ele>6.4000000953674</ele>
        <time>2021-08-21T10:18:25.721Z</time>
      </trkpt>
      <trkpt lat="47.59096" lon="-3.01592">
        <ele>6.5999999046326</ele>
        <time>2021-08-21T10:18:27.828Z</time>
      </trkpt>
      <trkpt lat="47.59101" lon="-3.0159">
        <ele>7</ele>
        <time>2021-08-21T10:18:29.937Z</time>
      </trkpt>
      <trkpt lat="47.59125" lon="-3.01589">
        <ele>6.5999999046326</ele>
        <time>2021-08-21T10:18:32.052Z</time>
      </trkpt>
      <trkpt lat="47.59159" lon="-3.01592">
        <ele>6.5999999046326</ele>
        <time>2021-08-21T10:18:34.176Z</time>
      </trkpt>
      <trkpt lat="47.59191" lon="-3.01594">
        <ele>7.1999998092651</ele>
        <time>2021-08-21T10:18:36.309Z</time>
      </trkpt>
      <trkpt lat="47.59212" lon="-3.01592">
        <ele>7</ele>
        <time>2021-08-21T10:18:38.448Z</time>
      </trkpt>
      <trkpt lat="47.59221" lon="-3.01592">
        <ele>6.8000001907349</ele>
        <time>2021-08-21T10:18:40.589Z</time>
      </trkpt>
      <trkpt lat="47.59239" lon="-3.0159">
        <ele>6.8000001907349</ele>
        <time>2021-08-21T10:18:42.735Z</time>
      </trkpt>
      <trkpt lat="47.59248" lon="-3.01588">
        <ele>7</ele>
        <time>2021-08-21T10:18:44.884Z</time>
      </trkpt>
      <trkpt lat="47.59272" lon="-3.01575">
        <ele>7.8000001907349</ele>
        <time>2021-08-21T10:18:47.040Z</time>
      </trkpt>
      <trkpt lat="47.59295" lon="-3.01556">
        <ele>9.3999996185303</ele>
        <time>2021-08-21T10:18:49.203Z</time>
      </trkpt>
      <trkpt lat="47.5932" lon="-3.01536">
        <ele>11</ele>
        <time>2021-08-21T10:18:51.374Z</time>
      </trkpt>
      <trkpt lat="47.59341" lon="-3.01518">
        <ele>11.39999961853</ele>
        <time>2021-08-21T10:18:53.552Z</time>
      </trkpt>
      <trkpt lat="47.59371" lon="-3.01504">
        <ele>10.199999809265</ele>
        <time>2021-08-21T10:18:55.738Z</time>
      </trkpt>
      <trkpt lat="47.59398" lon="-3.01493">
        <ele>9.1999998092651</ele>
        <time>2021-08-21T10:18:57.932Z</time>
      </trkpt>
      <trkpt lat="47.59431" lon="-3.01496">
        <ele>8.1999998092651</ele>
        <time>2021-08-21T10:19:00.135Z</time>
      </trkpt>
      <trkpt lat="47.59464" lon="-3.01509">
        <ele>7.1999998092651</ele>
        <time>2021-08-21T10:19:02.347Z</time>
      </trkpt>
      <trkpt lat="47.59514" lon="-3.01526">
        <ele>5.1999998092651</ele>
        <time>2021-08-21T10:19:04.573Z</time>
      </trkpt>
      <trkpt lat="47.5952" lon="-3.01526">
        <ele>5.1999998092651</ele>
        <time>2021-08-21T10:19:06.801Z</time>
      </trkpt>
      <trkpt lat="47.59544" lon="-3.01525">
        <ele>4.8000001907349</ele>
        <time>2021-08-21T10:19:09.035Z</time>
      </trkpt>
      <trkpt lat="47.59554" lon="-3.0152">
        <ele>4.5999999046326</ele>
        <time>2021-08-21T10:19:11.273Z</time>
      </trkpt>
      <trkpt lat="47.59575" lon="-3.0151">
        <ele>4.5999999046326</ele>
        <time>2021-08-21T10:19:13.516Z</time>
      </trkpt>
      <trkpt lat="47.59623" lon="-3.01487">
        <ele>4.5999999046326</ele>
        <time>2021-08-21T10:19:15.774Z</time>
      </trkpt>
      <trkpt lat="47.59673" lon="-3.01461">
        <ele>5.8000001907349</ele>
        <time>2021-08-21T10:19:18.046Z</time>
      </trkpt>
      <trkpt lat="47.59715" lon="-3.01437">
        <ele>6.8000001907349</ele>
        <time>2021-08-21T10:19:20.330Z</time>
      </trkpt>
      <trkpt lat="47.5974" lon="-3.01423">
        <ele>7</ele>
        <time>2021-08-21T10:19:22.622Z</time>
      </trkpt>
      <trkpt lat="47.59758" lon="-3.01413">
        <ele>6.8000001907349</ele>
        <time>2021-08-21T10:19:24.919Z</time>
      </trkpt>
      <trkpt lat="47.59796" lon="-3.01392">
        <ele>7</ele>
        <time>2021-08-21T10:19:27.227Z</time>
      </trkpt>
      <trkpt lat="47.59831" lon="-3.01372">
        <ele>8.8000001907349</ele>
        <time>2021-08-21T10:19:29.545Z</time>
      </trkpt>
      <trkpt lat="47.59858" lon="-3.01357">
        <ele>9.1999998092651</ele>
        <time>2021-08-21T10:19:31.871Z</time>
      </trkpt>
      <trkpt lat="47.59882" lon="-3.0134">
        <ele>10.39999961853</ele>
        <time>2021-08-21T10:19:34.205Z</time>
      </trkpt>
      <trkpt lat="47.59897" lon="-3.01328">
        <ele>11</ele>
        <time>2021-08-21T10:19:36.543Z</time>
      </trkpt>
      <trkpt lat="47.599" lon="-3.01325">
        <ele>11</ele>
        <time>2021-08-21T10:19:38.882Z</time>
      </trkpt>
      <trkpt lat="47.59921" lon="-3.01308">
        <ele>11</ele>
        <time>2021-08-21T10:19:41.228Z</time>
      </trkpt>
      <trkpt lat="47.59935" lon="-3.01296">
        <ele>11</ele>
        <time>2021-08-21T10:19:43.578Z</time>
      </trkpt>
      <trkpt lat="47.59936" lon="-3.0128">
        <ele>11.39999961853</ele>
        <time>2021-08-21T10:19:45.931Z</time>
      </trkpt>
      <trkpt lat="47.59935" lon="-3.01275">
        <ele>11.60000038147</ele>
        <time>2021-08-21T10:19:48.285Z</time>
      </trkpt>
      <trkpt lat="47.59924" lon="-3.01256">
        <ele>11</ele>
        <time>2021-08-21T10:19:50.644Z</time>
      </trkpt>
      <trkpt lat="47.59911" lon="-3.01243">
        <ele>10.800000190735</ele>
        <time>2021-08-21T10:19:53.007Z</time>
      </trkpt>
      <trkpt lat="47.59896" lon="-3.0123">
        <ele>10</ele>
        <time>2021-08-21T10:19:55.375Z</time>
      </trkpt>
      <trkpt lat="47.5988" lon="-3.01214">
        <ele>10</ele>
        <time>2021-08-21T10:19:57.748Z</time>
      </trkpt>
      <trkpt lat="47.59859" lon="-3.01196">
        <ele>10.60000038147</ele>
        <time>2021-08-21T10:20:00.128Z</time>
      </trkpt>
      <trkpt lat="47.59843" lon="-3.01189">
        <ele>11</ele>
        <time>2021-08-21T10:20:02.513Z</time>
      </trkpt>
      <trkpt lat="47.5983" lon="-3.01185">
        <ele>10.800000190735</ele>
        <time>2021-08-21T10:20:04.901Z</time>
      </trkpt>
      <trkpt lat="47.59817" lon="-3.01178">
        <ele>11.199999809265</ele>
        <time>2021-08-21T10:20:07.293Z</time>
      </trkpt>
      <trkpt lat="47.59799" lon="-3.01167">
        <ele>11</ele>
        <time>2021-08-21T10:20:09.690Z</time>
      </trkpt>
      <trkpt lat="47.59782" lon="-3.01156">
        <ele>11</ele>
        <time>2021-08-21T10:20:12.092Z</time>
      </trkpt>
      <trkpt lat="47.59763" lon="-3.01149">
        <ele>12</ele>
        <time>2021-08-21T10:20:14.500Z</time>
      </trkpt>
      <trkpt lat="47.59745" lon="-3.01147">
        <ele>12.60000038147</ele>
        <time>2021-08-21T10:20:16.913Z</time>
      </trkpt>
      <trkpt lat="47.5974" lon="-3.01142">
        <ele>12.800000190735</ele>
        <time>2021-08-21T10:20:19.327Z</time>
      </trkpt>
      <trkpt lat="47.59734" lon="-3.01136">
        <ele>13.39999961853</ele>
        <time>2021-08-21T10:20:21.743Z</time>
      </trkpt>
      <trkpt lat="47.59721" lon="-3.01129">
        <ele>13.800000190735</ele>
        <time>2021-08-21T10:20:24.163Z</time>
      </trkpt>
      <trkpt lat="47.59705" lon="-3.01122">
        <ele>13.199999809265</ele>
        <time>2021-08-21T10:20:26.588Z</time>
      </trkpt>
      <trkpt lat="47.59691" lon="-3.01113">
        <ele>14</ele>
        <time>2021-08-21T10:20:29.017Z</time>
      </trkpt>
      <trkpt lat="47.59665" lon="-3.01097">
        <ele>15</ele>
        <time>2021-08-21T10:20:31.454Z</time>
      </trkpt>
      <trkpt lat="47.59641" lon="-3.01081">
        <ele>15</ele>
        <time>2021-08-21T10:20:33.898Z</time>
      </trkpt>
      <trkpt lat="47.59623" lon="-3.01063">
        <ele>15.39999961853</ele>
        <time>2021-08-21T10:20:36.348Z</time>
      </trkpt>
      <trkpt lat="47.59609" lon="-3.01044">
        <ele>16.39999961853</ele>
        <time>2021-08-21T10:20:38.803Z</time>
      </trkpt>
      <trkpt lat="47.59592" lon="-3.01023">
        <ele>16.799999237061</ele>
        <time>2021-08-21T10:20:41.264Z</time>
      </trkpt>
      <trkpt lat="47.59586" lon="-3.01017">
        <ele>17</ele>
        <time>2021-08-21T10:20:43.727Z</time>
      </trkpt>
      <trkpt lat="47.59578" lon="-3.01008">
        <ele>16.799999237061</ele>
        <time>2021-08-21T10:20:46.193Z</time>
      </trkpt>
      <trkpt lat="47.59562" lon="-3.00989">
        <ele>16</ele>
        <time>2021-08-21T10:20:48.664Z</time>
      </trkpt>
      <trkpt lat="47.5956" lon="-3.00976">
        <ele>15.39999961853</ele>
        <time>2021-08-21T10:20:51.138Z</time>
      </trkpt>
      <trkpt lat="47.59563" lon="-3.00961">
        <ele>14.39999961853</ele>
        <time>2021-08-21T10:20:53.615Z</time>
      </trkpt>
      <trkpt lat="47.59565" lon="-3.00953">
        <ele>13.800000190735</ele>
        <time>2021-08-21T10:20:56.093Z</time>
      </trkpt>
      <trkpt lat="47.59567" lon="-3.00944">
        <ele>13.39999961853</ele>
        <time>2021-08-21T10:20:58.573Z</time>
      </trkpt>
      <trkpt lat="47.59572" lon="-3.0092">
        <ele>12.60000038147</ele>
        <time>2021-08-21T10:21:01.058Z</time>
      </trkpt>
      <trkpt lat="47.59574" lon="-3.00913">
        <ele>12.39999961853</ele>
        <time>2021-08-21T10:21:03.544Z</time>
      </trkpt>
      <trkpt lat="47.59578" lon="-3.00899">
        <ele>11.800000190735</ele>
        <time>2021-08-21T10:21:06.033Z</time>
      </trkpt>
      <trkpt lat="47.59581" lon="-3.00892">
        <ele>11.60000038147</ele>
        <time>2021-08-21T10:21:08.524Z</time>
      </trkpt>
      <trkpt lat="47.59595" lon="-3.00862">
        <ele>11.39999961853</ele>
        <time>2021-08-21T10:21:11.021Z</time>
      </trkpt>
      <trkpt lat="47.59611" lon="-3.00852">
        <ele>11.800000190735</ele>
        <time>2021-08-21T10:21:13.523Z</time>
      </trkpt>
      <trkpt lat="47.59629" lon="-3.00851">
        <ele>12.39999961853</ele>
        <time>2021-08-21T10:21:16.030Z</time>
      </trkpt>
      <trkpt lat="47.59649" lon="-3.00852">
        <ele>12.800000190735</ele>
        <time>2021-08-21T10:21:18.542Z</time>
      </trkpt>
      <trkpt lat="47.59671" lon="-3.00849">
        <ele>13</ele>
        <time>2021-08-21T10:21:21.061Z</time>
      </trkpt>
      <trkpt lat="47.59676" lon="-3.00843">
        <ele>13.60000038147</ele>
        <time>2021-08-21T10:21:23.581Z</time>
      </trkpt>
      <trkpt lat="47.59679" lon="-3.00835">
        <ele>14.199999809265</ele>
        <time>2021-08-21T10:21:26.103Z</time>
      </trkpt>
      <trkpt lat="47.59693" lon="-3.00797">
        <ele>17.39999961853</ele>
        <time>2021-08-21T10:21:28.633Z</time>
      </trkpt>
      <trkpt lat="47.597" lon="-3.00778">
        <ele>18.60000038147</ele>
        <time>2021-08-21T10:21:31.167Z</time>
      </trkpt>
      <trkpt lat="47.59706" lon="-3.00757">
        <ele>19.200000762939</ele>
        <time>2021-08-21T10:21:33.705Z</time>
      </trkpt>
      <trkpt lat="47.59713" lon="-3.00732">
        <ele>20</ele>
        <time>2021-08-21T10:21:36.248Z</time>
      </trkpt>
      <trkpt lat="47.59716" lon="-3.00717">
        <ele>20</ele>
        <time>2021-08-21T10:21:38.794Z</time>
      </trkpt>
      <trkpt lat="47.59722" lon="-3.00699">
        <ele>20</ele>
        <time>2021-08-21T10:21:41.344Z</time>
      </trkpt>
      <trkpt lat="47.59726" lon="-3.00695">
        <ele>20</ele>
        <time>2021-08-21T10:21:43.895Z</time>
      </trkpt>
      <trkpt lat="47.59728" lon="-3.00691">
        <ele>20</ele>
        <time>2021-08-21T10:21:46.447Z</time>
      </trkpt>
      <trkpt lat="47.59731" lon="-3.00685">
        <ele>20</ele>
        <time>2021-08-21T10:21:49.001Z</time>
      </trkpt>
      <trkpt lat="47.59733" lon="-3.0068">
        <ele>20</ele>
        <time>2021-08-21T10:21:51.556Z</time>
      </trkpt>
      <trkpt lat="47.59734" lon="-3.00676">
        <ele>20</ele>
        <time>2021-08-21T10:21:54.112Z</time>
      </trkpt>
      <trkpt lat="47.5974" lon="-3.00651">
        <ele>20</ele>
        <time>2021-08-21T10:21:56.673Z</time>
      </trkpt>
      <trkpt lat="47.59744" lon="-3.0062">
        <ele>18.799999237061</ele>
        <time>2021-08-21T10:21:59.239Z</time>
      </trkpt>
      <trkpt lat="47.59742" lon="-3.00611">
        <ele>18.60000038147</ele>
        <time>2021-08-21T10:22:01.807Z</time>
      </trkpt>
      <trkpt lat="47.59742" lon="-3.00595">
        <ele>17.39999961853</ele>
        <time>2021-08-21T10:22:04.378Z</time>
      </trkpt>
      <trkpt lat="47.5974" lon="-3.00572">
        <ele>16</ele>
        <time>2021-08-21T10:22:06.953Z</time>
      </trkpt>
      <trkpt lat="47.59735" lon="-3.00558">
        <ele>15.60000038147</ele>
        <time>2021-08-21T10:22:09.531Z</time>
      </trkpt>
      <trkpt lat="47.59735" lon="-3.00551">
        <ele>15</ele>
        <time>2021-08-21T10:22:12.111Z</time>
      </trkpt>
      <trkpt lat="47.59736" lon="-3.00544">
        <ele>14.60000038147</ele>
        <time>2021-08-21T10:22:14.692Z</time>
      </trkpt>
      <trkpt lat="47.59738" lon="-3.00514">
        <ele>13.39999961853</ele>
        <time>2021-08-21T10:22:17.278Z</time>
      </trkpt>
      <trkpt lat="47.59742" lon="-3.00445">
        <ele>15</ele>
        <time>2021-08-21T10:22:19.877Z</time>
      </trkpt>
      <trkpt lat="47.59741" lon="-3.0039">
        <ele>14.199999809265</ele>
        <time>2021-08-21T10:22:22.486Z</time>
      </trkpt>
      <trkpt lat="47.59743" lon="-3.00348">
        <ele>12.39999961853</ele>
        <time>2021-08-21T10:22:25.103Z</time>
      </trkpt>
      <trkpt lat="47.59745" lon="-3.00295">
        <ele>13.199999809265</ele>
        <time>2021-08-21T10:22:27.730Z</time>
      </trkpt>
      <trkpt lat="47.59752" lon="-3.00253">
        <ele>16.39999961853</ele>
        <time>2021-08-21T10:22:30.365Z</time>
      </trkpt>
      <trkpt lat="47.59761" lon="-3.00205">
        <ele>18.200000762939</ele>
        <time>2021-08-21T10:22:33.009Z</time>
      </trkpt>
      <trkpt lat="47.59769" lon="-3.0016">
        <ele>18</ele>
        <time>2021-08-21T10:22:35.662Z</time>
      </trkpt>
      <trkpt lat="47.59785" lon="-3.00138">
        <ele>18</ele>
        <time>2021-08-21T10:22:38.321Z</time>
      </trkpt>
      <trkpt lat="47.59788" lon="-3.00133">
        <ele>18</ele>
        <time>2021-08-21T10:22:40.981Z</time>
      </trkpt>
      <trkpt lat="47.59803" lon="-3.00124">
        <ele>18</ele>
        <time>2021-08-21T10:22:43.646Z</time>
      </trkpt>
      <trkpt lat="47.59807" lon="-3.00121">
        <ele>18</ele>
        <time>2021-08-21T10:22:46.312Z</time>
      </trkpt>
      <trkpt lat="47.59827" lon="-3.00111">
        <ele>18</ele>
        <time>2021-08-21T10:22:48.984Z</time>
      </trkpt>
      <trkpt lat="47.59858" lon="-3.001">
        <ele>17.200000762939</ele>
        <time>2021-08-21T10:22:51.665Z</time>
      </trkpt>
      <trkpt lat="47.59866" lon="-3.00102">
        <ele>17.200000762939</ele>
        <time>2021-08-21T10:22:54.348Z</time>
      </trkpt>
      <trkpt lat="47.59879" lon="-3.00105">
        <ele>17.200000762939</ele>
        <time>2021-08-21T10:22:57.034Z</time>
      </trkpt>
      <trkpt lat="47.59916" lon="-3.00113">
        <ele>16.60000038147</ele>
        <time>2021-08-21T10:22:59.731Z</time>
      </trkpt>
      <trkpt lat="47.59947" lon="-3.00122">
        <ele>15.800000190735</ele>
        <time>2021-08-21T10:23:02.436Z</time>
      </trkpt>
      <trkpt lat="47.59952" lon="-3.00126">
        <ele>16</ele>
        <time>2021-08-21T10:23:05.143Z</time>
      </trkpt>
      <trkpt lat="47.59964" lon="-3.00128">
        <ele>16</ele>
        <time>2021-08-21T10:23:07.853Z</time>
      </trkpt>
      <trkpt lat="47.5999" lon="-3.00123">
        <ele>16</ele>
        <time>2021-08-21T10:23:10.570Z</time>
      </trkpt>
      <trkpt lat="47.60025" lon="-3.00112">
        <ele>17.799999237061</ele>
        <time>2021-08-21T10:23:13.297Z</time>
      </trkpt>
      <trkpt lat="47.60036" lon="-3.00109">
        <ele>18.39999961853</ele>
        <time>2021-08-21T10:23:16.027Z</time>
      </trkpt>
      <trkpt lat="47.6004" lon="-3.0011">
        <ele>18.39999961853</ele>
        <time>2021-08-21T10:23:18.758Z</time>
      </trkpt>
      <trkpt lat="47.60043" lon="-3.00111">
        <ele>18.39999961853</ele>
        <time>2021-08-21T10:23:21.490Z</time>
      </trkpt>
      <trkpt lat="47.60051" lon="-3.00114">
        <ele>18.60000038147</ele>
        <time>2021-08-21T10:23:24.224Z</time>
      </trkpt>
      <trkpt lat="47.60058" lon="-3.00118">
        <ele>18.39999961853</ele>
        <time>2021-08-21T10:23:26.960Z</time>
      </trkpt>
      <trkpt lat="47.60066" lon="-3.00124">
        <ele>17.799999237061</ele>
        <time>2021-08-21T10:23:29.699Z</time>
      </trkpt>
      <trkpt lat="47.60074" lon="-3.0013">
        <ele>17.200000762939</ele>
        <time>2021-08-21T10:23:32.440Z</time>
      </trkpt>
      <trkpt lat="47.60082" lon="-3.00135">
        <ele>16.799999237061</ele>
        <time>2021-08-21T10:23:35.184Z</time>
      </trkpt>
      <trkpt lat="47.60085" lon="-3.00138">
        <ele>16.60000038147</ele>
        <time>2021-08-21T10:23:37.929Z</time>
      </trkpt>
      <trkpt lat="47.60098" lon="-3.00146">
        <ele>15.800000190735</ele>
        <time>2021-08-21T10:23:40.678Z</time>
      </trkpt>
      <trkpt lat="47.60107" lon="-3.00153">
        <ele>15.199999809265</ele>
        <time>2021-08-21T10:23:43.429Z</time>
      </trkpt>
      <trkpt lat="47.60116" lon="-3.00159">
        <ele>14.800000190735</ele>
        <time>2021-08-21T10:23:46.183Z</time>
      </trkpt>
      <trkpt lat="47.60134" lon="-3.00172">
        <ele>13.60000038147</ele>
        <time>2021-08-21T10:23:48.943Z</time>
      </trkpt>
      <trkpt lat="47.60139" lon="-3.00175">
        <ele>13.199999809265</ele>
        <time>2021-08-21T10:23:51.704Z</time>
      </trkpt>
      <trkpt lat="47.60173" lon="-3.00192">
        <ele>12.800000190735</ele>
        <time>2021-08-21T10:23:54.475Z</time>
      </trkpt>
      <trkpt lat="47.60196" lon="-3.00199">
        <ele>13.60000038147</ele>
        <time>2021-08-21T10:23:57.252Z</time>
      </trkpt>
      <trkpt lat="47.6023" lon="-3.0021">
        <ele>13.60000038147</ele>
        <time>2021-08-21T10:24:00.039Z</time>
      </trkpt>
      <trkpt lat="47.6024" lon="-3.00213">
        <ele>12.60000038147</ele>
        <time>2021-08-21T10:24:02.829Z</time>
      </trkpt>
      <trkpt lat="47.60253" lon="-3.00217">
        <ele>11.60000038147</ele>
        <time>2021-08-21T10:24:05.622Z</time>
      </trkpt>
      <trkpt lat="47.60275" lon="-3.00224">
        <ele>9.8000001907349</ele>
        <time>2021-08-21T10:24:08.422Z</time>
      </trkpt>
      <trkpt lat="47.60293" lon="-3.00229">
        <ele>9.1999998092651</ele>
        <time>2021-08-21T10:24:11.226Z</time>
      </trkpt>
      <trkpt lat="47.60297" lon="-3.00231">
        <ele>9.3999996185303</ele>
        <time>2021-08-21T10:24:14.032Z</time>
      </trkpt>
      <trkpt lat="47.60307" lon="-3.00234">
        <ele>9.8000001907349</ele>
        <time>2021-08-21T10:24:16.840Z</time>
      </trkpt>
      <trkpt lat="47.6034" lon="-3.00244">
        <ele>10.199999809265</ele>
        <time>2021-08-21T10:24:19.658Z</time>
      </trkpt>
      <trkpt lat="47.60348" lon="-3.00247">
        <ele>10.39999961853</ele>
        <time>2021-08-21T10:24:22.478Z</time>
      </trkpt>
      <trkpt lat="47.60362" lon="-3.00251">
        <ele>10.60000038147</ele>
        <time>2021-08-21T10:24:25.302Z</time>
      </trkpt>
      <trkpt lat="47.60377" lon="-3.00255">
        <ele>11</ele>
        <time>2021-08-21T10:24:28.130Z</time>
      </trkpt>
      <trkpt lat="47.60391" lon="-3.0026">
        <ele>11</ele>
        <time>2021-08-21T10:24:30.962Z</time>
      </trkpt>
      <trkpt lat="47.60398" lon="-3.00262">
        <ele>11.199999809265</ele>
        <time>2021-08-21T10:24:33.796Z</time>
      </trkpt>
      <trkpt lat="47.60404" lon="-3.00264">
        <ele>11.39999961853</ele>
        <time>2021-08-21T10:24:36.632Z</time>
      </trkpt>
      <trkpt lat="47.60406" lon="-3.00265">
        <ele>11.60000038147</ele>
        <time>2021-08-21T10:24:39.468Z</time>
      </trkpt>
      <trkpt lat="47.60414" lon="-3.00267">
        <ele>11.800000190735</ele>
        <time>2021-08-21T10:24:42.306Z</time>
      </trkpt>
      <trkpt lat="47.60415" lon="-3.00268">
        <ele>11.800000190735</ele>
        <time>2021-08-21T10:24:45.145Z</time>
      </trkpt>
      <trkpt lat="47.60413" lon="-3.00267">
        <ele>11.800000190735</ele>
        <time>2021-08-21T10:24:47.985Z</time>
      </trkpt>
      <trkpt lat="47.60406" lon="-3.00265">
        <ele>11.60000038147</ele>
        <time>2021-08-21T10:24:50.826Z</time>
      </trkpt>
      <trkpt lat="47.60392" lon="-3.0026">
        <ele>11</ele>
        <time>2021-08-21T10:24:53.671Z</time>
      </trkpt>
      <trkpt lat="47.60382" lon="-3.00257">
        <ele>11</ele>
        <time>2021-08-21T10:24:56.519Z</time>
      </trkpt>
      <trkpt lat="47.60368" lon="-3.00253">
        <ele>10.800000190735</ele>
        <time>2021-08-21T10:24:59.371Z</time>
      </trkpt>
      <trkpt lat="47.60343" lon="-3.00245">
        <ele>10.39999961853</ele>
        <time>2021-08-21T10:25:02.230Z</time>
      </trkpt>
      <trkpt lat="47.60321" lon="-3.00238">
        <ele>10</ele>
        <time>2021-08-21T10:25:05.095Z</time>
      </trkpt>
      <trkpt lat="47.60298" lon="-3.00231">
        <ele>9.3999996185303</ele>
        <time>2021-08-21T10:25:07.967Z</time>
      </trkpt>
      <trkpt lat="47.60284" lon="-3.00227">
        <ele>9.1999998092651</ele>
        <time>2021-08-21T10:25:10.843Z</time>
      </trkpt>
      <trkpt lat="47.60266" lon="-3.00221">
        <ele>10.60000038147</ele>
        <time>2021-08-21T10:25:13.724Z</time>
      </trkpt>
      <trkpt lat="47.60263" lon="-3.0022">
        <ele>10.800000190735</ele>
        <time>2021-08-21T10:25:16.606Z</time>
      </trkpt>
      <trkpt lat="47.60251" lon="-3.00216">
        <ele>11.800000190735</ele>
        <time>2021-08-21T10:25:19.491Z</time>
      </trkpt>
      <trkpt lat="47.60233" lon="-3.00211">
        <ele>13.199999809265</ele>
        <time>2021-08-21T10:25:22.381Z</time>
      </trkpt>
      <trkpt lat="47.60219" lon="-3.00206">
        <ele>14</ele>
        <time>2021-08-21T10:25:25.275Z</time>
      </trkpt>
      <trkpt lat="47.60211" lon="-3.00204">
        <ele>13.800000190735</ele>
        <time>2021-08-21T10:25:28.171Z</time>
      </trkpt>
      <trkpt lat="47.6021" lon="-3.00203">
        <ele>13.800000190735</ele>
        <time>2021-08-21T10:25:31.068Z</time>
      </trkpt>
      <trkpt lat="47.60217" lon="-3.00206">
        <ele>14</ele>
        <time>2021-08-21T10:25:33.967Z</time>
      </trkpt>
      <trkpt lat="47.60231" lon="-3.0021">
        <ele>13.39999961853</ele>
        <time>2021-08-21T10:25:36.869Z</time>
      </trkpt>
      <trkpt lat="47.60248" lon="-3.00216">
        <ele>12</ele>
        <time>2021-08-21T10:25:39.777Z</time>
      </trkpt>
      <trkpt lat="47.60261" lon="-3.0022">
        <ele>11</ele>
        <time>2021-08-21T10:25:42.688Z</time>
      </trkpt>
      <trkpt lat="47.60281" lon="-3.00226">
        <ele>9.3999996185303</ele>
        <time>2021-08-21T10:25:45.605Z</time>
      </trkpt>
      <trkpt lat="47.60308" lon="-3.00234">
        <ele>9.8000001907349</ele>
        <time>2021-08-21T10:25:48.529Z</time>
      </trkpt>
      <trkpt lat="47.60324" lon="-3.00239">
        <ele>10</ele>
        <time>2021-08-21T10:25:51.458Z</time>
      </trkpt>
      <trkpt lat="47.60343" lon="-3.00245">
        <ele>10.39999961853</ele>
        <time>2021-08-21T10:25:54.392Z</time>
      </trkpt>
      <trkpt lat="47.60348" lon="-3.00247">
        <ele>10.39999961853</ele>
        <time>2021-08-21T10:25:57.327Z</time>
      </trkpt>
      <trkpt lat="47.60368" lon="-3.00253">
        <ele>10.800000190735</ele>
        <time>2021-08-21T10:26:00.268Z</time>
      </trkpt>
      <trkpt lat="47.60388" lon="-3.00259">
        <ele>11</ele>
        <time>2021-08-21T10:26:03.215Z</time>
      </trkpt>
      <trkpt lat="47.60405" lon="-3.00264">
        <ele>11.39999961853</ele>
        <time>2021-08-21T10:26:06.166Z</time>
      </trkpt>
      <trkpt lat="47.60416" lon="-3.00268">
        <ele>11.800000190735</ele>
        <time>2021-08-21T10:26:09.121Z</time>
      </trkpt>
      <trkpt lat="47.6042" lon="-3.00269">
        <ele>12</ele>
        <time>2021-08-21T10:26:12.077Z</time>
      </trkpt>
      <trkpt lat="47.60436" lon="-3.00274">
        <ele>12.60000038147</ele>
        <time>2021-08-21T10:26:15.037Z</time>
      </trkpt>
      <trkpt lat="47.60451" lon="-3.00279">
        <ele>13.199999809265</ele>
        <time>2021-08-21T10:26:18.001Z</time>
      </trkpt>
      <trkpt lat="47.60472" lon="-3.00286">
        <ele>14.199999809265</ele>
        <time>2021-08-21T10:26:20.971Z</time>
      </trkpt>
      <trkpt lat="47.60492" lon="-3.00292">
        <ele>15.199999809265</ele>
        <time>2021-08-21T10:26:23.947Z</time>
      </trkpt>
      <trkpt lat="47.60505" lon="-3.00295">
        <ele>15.60000038147</ele>
        <time>2021-08-21T10:26:26.926Z</time>
      </trkpt>
      <trkpt lat="47.60517" lon="-3.00297">
        <ele>15.39999961853</ele>
        <time>2021-08-21T10:26:29.909Z</time>
      </trkpt>
      <trkpt lat="47.60521" lon="-3.00282">
        <ele>16.799999237061</ele>
        <time>2021-08-21T10:26:32.895Z</time>
      </trkpt>
      <trkpt lat="47.60525" lon="-3.00279">
        <ele>17</ele>
        <time>2021-08-21T10:26:35.882Z</time>
      </trkpt>
      <trkpt lat="47.60535" lon="-3.00301">
        <ele>15.39999961853</ele>
        <time>2021-08-21T10:26:38.874Z</time>
      </trkpt>
      <trkpt lat="47.60554" lon="-3.00305">
        <ele>15.800000190735</ele>
        <time>2021-08-21T10:26:41.871Z</time>
      </trkpt>
      <trkpt lat="47.60563" lon="-3.00307">
        <ele>16.200000762939</ele>
        <time>2021-08-21T10:26:44.871Z</time>
      </trkpt>
      <trkpt lat="47.60597" lon="-3.00293">
        <ele>19.799999237061</ele>
        <time>2021-08-21T10:26:47.881Z</time>
      </trkpt>
      <trkpt lat="47.60621" lon="-3.00278">
        <ele>21.799999237061</ele>
        <time>2021-08-21T10:26:50.898Z</time>
      </trkpt>
      <trkpt lat="47.60641" lon="-3.00266">
        <ele>23</ele>
        <time>2021-08-21T10:26:53.921Z</time>
      </trkpt>
      <trkpt lat="47.60657" lon="-3.00256">
        <ele>21.799999237061</ele>
        <time>2021-08-21T10:26:56.949Z</time>
      </trkpt>
      <trkpt lat="47.60689" lon="-3.00261">
        <ele>21</ele>
        <time>2021-08-21T10:26:59.985Z</time>
      </trkpt>
      <trkpt lat="47.60717" lon="-3.00274">
        <ele>20.39999961853</ele>
        <time>2021-08-21T10:27:03.029Z</time>
      </trkpt>
      <trkpt lat="47.60749" lon="-3.00288">
        <ele>20.200000762939</ele>
        <time>2021-08-21T10:27:06.082Z</time>
      </trkpt>
      <trkpt lat="47.60764" lon="-3.00294">
        <ele>19.60000038147</ele>
        <time>2021-08-21T10:27:09.140Z</time>
      </trkpt>
      <trkpt lat="47.60784" lon="-3.00295">
        <ele>18.799999237061</ele>
        <time>2021-08-21T10:27:12.203Z</time>
      </trkpt>
      <trkpt lat="47.60809" lon="-3.00297">
        <ele>17.799999237061</ele>
        <time>2021-08-21T10:27:15.273Z</time>
      </trkpt>
      <trkpt lat="47.60826" lon="-3.00298">
        <ele>17.200000762939</ele>
        <time>2021-08-21T10:27:18.348Z</time>
      </trkpt>
      <trkpt lat="47.60839" lon="-3.00297">
        <ele>16.60000038147</ele>
        <time>2021-08-21T10:27:21.426Z</time>
      </trkpt>
      <trkpt lat="47.60845" lon="-3.00295">
        <ele>16.200000762939</ele>
        <time>2021-08-21T10:27:24.506Z</time>
      </trkpt>
      <trkpt lat="47.60856" lon="-3.00293">
        <ele>15.60000038147</ele>
        <time>2021-08-21T10:27:27.589Z</time>
      </trkpt>
      <trkpt lat="47.60868" lon="-3.0029">
        <ele>15</ele>
        <time>2021-08-21T10:27:30.675Z</time>
      </trkpt>
      <trkpt lat="47.60882" lon="-3.00287">
        <ele>15</ele>
        <time>2021-08-21T10:27:33.765Z</time>
      </trkpt>
      <trkpt lat="47.60898" lon="-3.00284">
        <ele>15.199999809265</ele>
        <time>2021-08-21T10:27:36.860Z</time>
      </trkpt>
      <trkpt lat="47.60914" lon="-3.00282">
        <ele>15.39999961853</ele>
        <time>2021-08-21T10:27:39.959Z</time>
      </trkpt>
      <trkpt lat="47.60938" lon="-3.00281">
        <ele>15.39999961853</ele>
        <time>2021-08-21T10:27:43.065Z</time>
      </trkpt>
      <trkpt lat="47.6096" lon="-3.0028">
        <ele>15.800000190735</ele>
        <time>2021-08-21T10:27:46.177Z</time>
      </trkpt>
      <trkpt lat="47.60982" lon="-3.00279">
        <ele>16.60000038147</ele>
        <time>2021-08-21T10:27:49.295Z</time>
      </trkpt>
      <trkpt lat="47.60996" lon="-3.00279">
        <ele>17.200000762939</ele>
        <time>2021-08-21T10:27:52.417Z</time>
      </trkpt>
      <trkpt lat="47.61018" lon="-3.00277">
        <ele>17.60000038147</ele>
        <time>2021-08-21T10:27:55.545Z</time>
      </trkpt>
      <trkpt lat="47.61045" lon="-3.00276">
        <ele>18.60000038147</ele>
        <time>2021-08-21T10:27:58.680Z</time>
      </trkpt>
      <trkpt lat="47.61064" lon="-3.00275">
        <ele>18.60000038147</ele>
        <time>2021-08-21T10:28:01.820Z</time>
      </trkpt>
      <trkpt lat="47.61082" lon="-3.00271">
        <ele>18.799999237061</ele>
        <time>2021-08-21T10:28:04.965Z</time>
      </trkpt>
      <trkpt lat="47.61084" lon="-3.0027">
        <ele>18.799999237061</ele>
        <time>2021-08-21T10:28:08.111Z</time>
      </trkpt>
      <trkpt lat="47.61088" lon="-3.00269">
        <ele>19</ele>
        <time>2021-08-21T10:28:11.258Z</time>
      </trkpt>
      <trkpt lat="47.61103" lon="-3.00263">
        <ele>19.60000038147</ele>
        <time>2021-08-21T10:28:14.409Z</time>
      </trkpt>
      <trkpt lat="47.6112" lon="-3.00257">
        <ele>20</ele>
        <time>2021-08-21T10:28:17.565Z</time>
      </trkpt>
      <trkpt lat="47.61141" lon="-3.00257">
        <ele>19.200000762939</ele>
        <time>2021-08-21T10:28:20.727Z</time>
      </trkpt>
      <trkpt lat="47.61155" lon="-3.00254">
        <ele>19.39999961853</ele>
        <time>2021-08-21T10:28:23.893Z</time>
      </trkpt>
      <trkpt lat="47.61164" lon="-3.00251">
        <ele>19.39999961853</ele>
        <time>2021-08-21T10:28:27.061Z</time>
      </trkpt>
      <trkpt lat="47.61179" lon="-3.00246">
        <ele>19.60000038147</ele>
        <time>2021-08-21T10:28:30.233Z</time>
      </trkpt>
      <trkpt lat="47.61184" lon="-3.00245">
        <ele>19.60000038147</ele>
        <time>2021-08-21T10:28:33.407Z</time>
      </trkpt>
      <trkpt lat="47.6119" lon="-3.00241">
        <ele>19.799999237061</ele>
        <time>2021-08-21T10:28:36.582Z</time>
      </trkpt>
      <trkpt lat="47.61204" lon="-3.00229">
        <ele>19.60000038147</ele>
        <time>2021-08-21T10:28:39.762Z</time>
      </trkpt>
      <trkpt lat="47.61216" lon="-3.00219">
        <ele>18.60000038147</ele>
        <time>2021-08-21T10:28:42.946Z</time>
      </trkpt>
      <trkpt lat="47.6122" lon="-3.00215">
        <ele>18.39999961853</ele>
        <time>2021-08-21T10:28:46.131Z</time>
      </trkpt>
      <trkpt lat="47.61237" lon="-3.00209">
        <ele>18</ele>
        <time>2021-08-21T10:28:49.321Z</time>
      </trkpt>
      <trkpt lat="47.61242" lon="-3.00208">
        <ele>18</ele>
        <time>2021-08-21T10:28:52.512Z</time>
      </trkpt>
      <trkpt lat="47.61259" lon="-3.00202">
        <ele>18.200000762939</ele>
        <time>2021-08-21T10:28:55.708Z</time>
      </trkpt>
      <trkpt lat="47.61274" lon="-3.00197">
        <ele>18.39999961853</ele>
        <time>2021-08-21T10:28:58.908Z</time>
      </trkpt>
      <trkpt lat="47.61304" lon="-3.00188">
        <ele>18.799999237061</ele>
        <time>2021-08-21T10:29:02.116Z</time>
      </trkpt>
      <trkpt lat="47.61308" lon="-3.00186">
        <ele>18.799999237061</ele>
        <time>2021-08-21T10:29:05.326Z</time>
      </trkpt>
      <trkpt lat="47.61325" lon="-3.00181">
        <ele>19</ele>
        <time>2021-08-21T10:29:08.541Z</time>
      </trkpt>
      <trkpt lat="47.61339" lon="-3.00175">
        <ele>19.200000762939</ele>
        <time>2021-08-21T10:29:11.760Z</time>
      </trkpt>
      <trkpt lat="47.61351" lon="-3.0017">
        <ele>18.799999237061</ele>
        <time>2021-08-21T10:29:14.982Z</time>
      </trkpt>
      <trkpt lat="47.61365" lon="-3.00163">
        <ele>18.60000038147</ele>
        <time>2021-08-21T10:29:18.208Z</time>
      </trkpt>
      <trkpt lat="47.61385" lon="-3.00154">
        <ele>19</ele>
        <time>2021-08-21T10:29:21.440Z</time>
      </trkpt>
      <trkpt lat="47.61403" lon="-3.00146">
        <ele>20.200000762939</ele>
        <time>2021-08-21T10:29:24.677Z</time>
      </trkpt>
      <trkpt lat="47.61416" lon="-3.0014">
        <ele>21.60000038147</ele>
        <time>2021-08-21T10:29:27.918Z</time>
      </trkpt>
      <trkpt lat="47.61434" lon="-3.00131">
        <ele>23</ele>
        <time>2021-08-21T10:29:31.164Z</time>
      </trkpt>
      <trkpt lat="47.61454" lon="-3.00121">
        <ele>24.200000762939</ele>
        <time>2021-08-21T10:29:34.416Z</time>
      </trkpt>
      <trkpt lat="47.61475" lon="-3.00111">
        <ele>24.60000038147</ele>
        <time>2021-08-21T10:29:37.674Z</time>
      </trkpt>
      <trkpt lat="47.61493" lon="-3.00102">
        <ele>25.39999961853</ele>
        <time>2021-08-21T10:29:40.937Z</time>
      </trkpt>
      <trkpt lat="47.61508" lon="-3.00094">
        <ele>26.200000762939</ele>
        <time>2021-08-21T10:29:44.204Z</time>
      </trkpt>
      <trkpt lat="47.61529" lon="-3.00093">
        <ele>27.60000038147</ele>
        <time>2021-08-21T10:29:47.477Z</time>
      </trkpt>
      <trkpt lat="47.61546" lon="-3.00095">
        <ele>28.60000038147</ele>
        <time>2021-08-21T10:29:50.755Z</time>
      </trkpt>
      <trkpt lat="47.6156" lon="-3.00096">
        <ele>29</ele>
        <time>2021-08-21T10:29:54.037Z</time>
      </trkpt>
      <trkpt lat="47.61594" lon="-3.001">
        <ele>30.200000762939</ele>
        <time>2021-08-21T10:29:57.328Z</time>
      </trkpt>
      <trkpt lat="47.61608" lon="-3.00105">
        <ele>30.799999237061</ele>
        <time>2021-08-21T10:30:00.623Z</time>
      </trkpt>
      <trkpt lat="47.61608" lon="-3.00102">
        <ele>30.799999237061</ele>
        <time>2021-08-21T10:30:03.918Z</time>
      </trkpt>
      <trkpt lat="47.61608" lon="-3.001">
        <ele>30.799999237061</ele>
        <time>2021-08-21T10:30:07.214Z</time>
      </trkpt>
      <trkpt lat="47.61616" lon="-3.00092">
        <ele>30.799999237061</ele>
        <time>2021-08-21T10:30:10.512Z</time>
      </trkpt>
      <trkpt lat="47.61621" lon="-3.00093">
        <ele>30.799999237061</ele>
        <time>2021-08-21T10:30:13.812Z</time>
      </trkpt>
      <trkpt lat="47.61636" lon="-3.00094">
        <ele>30.200000762939</ele>
        <time>2021-08-21T10:30:17.116Z</time>
      </trkpt>
      <trkpt lat="47.61653" lon="-3.00094">
        <ele>29.60000038147</ele>
        <time>2021-08-21T10:30:20.425Z</time>
      </trkpt>
      <trkpt lat="47.61668" lon="-3.00091">
        <ele>29</ele>
        <time>2021-08-21T10:30:23.738Z</time>
      </trkpt>
      <trkpt lat="47.61684" lon="-3.00096">
        <ele>28.39999961853</ele>
        <time>2021-08-21T10:30:27.055Z</time>
      </trkpt>
      <trkpt lat="47.61688" lon="-3.00096">
        <ele>28.39999961853</ele>
        <time>2021-08-21T10:30:30.373Z</time>
      </trkpt>
      <trkpt lat="47.61693" lon="-3.00096">
        <ele>28.200000762939</ele>
        <time>2021-08-21T10:30:33.693Z</time>
      </trkpt>
      <trkpt lat="47.61711" lon="-3.00085">
        <ele>27</ele>
        <time>2021-08-21T10:30:37.018Z</time>
      </trkpt>
      <trkpt lat="47.6173" lon="-3.00072">
        <ele>25.60000038147</ele>
        <time>2021-08-21T10:30:40.349Z</time>
      </trkpt>
      <trkpt lat="47.61735" lon="-3.00072">
        <ele>25.39999961853</ele>
        <time>2021-08-21T10:30:43.681Z</time>
      </trkpt>
      <trkpt lat="47.61741" lon="-3.00075">
        <ele>24.799999237061</ele>
        <time>2021-08-21T10:30:47.015Z</time>
      </trkpt>
      <trkpt lat="47.61754" lon="-3.00082">
        <ele>23</ele>
        <time>2021-08-21T10:30:50.353Z</time>
      </trkpt>
      <trkpt lat="47.61782" lon="-3.00096">
        <ele>21</ele>
        <time>2021-08-21T10:30:53.699Z</time>
      </trkpt>
      <trkpt lat="47.61835" lon="-3.00116">
        <ele>19</ele>
        <time>2021-08-21T10:30:57.060Z</time>
      </trkpt>
      <trkpt lat="47.61858" lon="-3.00122">
        <ele>19</ele>
        <time>2021-08-21T10:31:00.427Z</time>
      </trkpt>
      <trkpt lat="47.61865" lon="-3.00124">
        <ele>19</ele>
        <time>2021-08-21T10:31:03.796Z</time>
      </trkpt>
      <trkpt lat="47.61907" lon="-3.00139">
        <ele>18.39999961853</ele>
        <time>2021-08-21T10:31:07.177Z</time>
      </trkpt>
      <trkpt lat="47.61934" lon="-3.00154">
        <ele>18</ele>
        <time>2021-08-21T10:31:10.566Z</time>
      </trkpt>
      <trkpt lat="47.61941" lon="-3.00159">
        <ele>18.200000762939</ele>
        <time>2021-08-21T10:31:13.957Z</time>
      </trkpt>
      <trkpt lat="47.61946" lon="-3.00163">
        <ele>18.39999961853</ele>
        <time>2021-08-21T10:31:17.350Z</time>
      </trkpt>
      <trkpt lat="47.61963" lon="-3.00153">
        <ele>18.60000038147</ele>
        <time>2021-08-21T10:31:20.748Z</time>
      </trkpt>
      <trkpt lat="47.61983" lon="-3.00155">
        <ele>19</ele>
        <time>2021-08-21T10:31:24.151Z</time>
      </trkpt>
      <trkpt lat="47.6201" lon="-3.00154">
        <ele>19</ele>
        <time>2021-08-21T10:31:27.561Z</time>
      </trkpt>
      <trkpt lat="47.62022" lon="-3.00152">
        <ele>19</ele>
        <time>2021-08-21T10:31:30.975Z</time>
      </trkpt>
      <trkpt lat="47.62037" lon="-3.00149">
        <ele>19</ele>
        <time>2021-08-21T10:31:34.393Z</time>
      </trkpt>
      <trkpt lat="47.62064" lon="-3.00144">
        <ele>19.60000038147</ele>
        <time>2021-08-21T10:31:37.818Z</time>
      </trkpt>
      <trkpt lat="47.62089" lon="-3.0014">
        <ele>21.799999237061</ele>
        <time>2021-08-21T10:31:41.251Z</time>
      </trkpt>
      <trkpt lat="47.62107" lon="-3.00137">
        <ele>24.60000038147</ele>
        <time>2021-08-21T10:31:44.688Z</time>
      </trkpt>
      <trkpt lat="47.62122" lon="-3.00138">
        <ele>25.799999237061</ele>
        <time>2021-08-21T10:31:48.129Z</time>
      </trkpt>
      <trkpt lat="47.62145" lon="-3.0014">
        <ele>26.200000762939</ele>
        <time>2021-08-21T10:31:51.577Z</time>
      </trkpt>
      <trkpt lat="47.62164" lon="-3.00142">
        <ele>24.799999237061</ele>
        <time>2021-08-21T10:31:55.030Z</time>
      </trkpt>
      <trkpt lat="47.62181" lon="-3.00143">
        <ele>23.200000762939</ele>
        <time>2021-08-21T10:31:58.488Z</time>
      </trkpt>
      <trkpt lat="47.622" lon="-3.00138">
        <ele>21.799999237061</ele>
        <time>2021-08-21T10:32:01.951Z</time>
      </trkpt>
      <trkpt lat="47.62204" lon="-3.00136">
        <ele>21.60000038147</ele>
        <time>2021-08-21T10:32:05.415Z</time>
      </trkpt>
      <trkpt lat="47.62217" lon="-3.0013">
        <ele>20.60000038147</ele>
        <time>2021-08-21T10:32:08.883Z</time>
      </trkpt>
      <trkpt lat="47.62247" lon="-3.00114">
        <ele>20.799999237061</ele>
        <time>2021-08-21T10:32:12.360Z</time>
      </trkpt>
      <trkpt lat="47.62284" lon="-3.00096">
        <ele>21</ele>
        <time>2021-08-21T10:32:15.847Z</time>
      </trkpt>
      <trkpt lat="47.62299" lon="-3.00089">
        <ele>20.60000038147</ele>
        <time>2021-08-21T10:32:19.339Z</time>
      </trkpt>
      <trkpt lat="47.62306" lon="-3.00085">
        <ele>20.60000038147</ele>
        <time>2021-08-21T10:32:22.833Z</time>
      </trkpt>
      <trkpt lat="47.62329" lon="-3.0008">
        <ele>20.799999237061</ele>
        <time>2021-08-21T10:32:26.333Z</time>
      </trkpt>
      <trkpt lat="47.6236" lon="-3.00084">
        <ele>22.200000762939</ele>
        <time>2021-08-21T10:32:29.842Z</time>
      </trkpt>
      <trkpt lat="47.62382" lon="-3.00087">
        <ele>22.60000038147</ele>
        <time>2021-08-21T10:32:33.357Z</time>
      </trkpt>
      <trkpt lat="47.62396" lon="-3.00089">
        <ele>23</ele>
        <time>2021-08-21T10:32:36.876Z</time>
      </trkpt>
      <trkpt lat="47.62402" lon="-3.0009">
        <ele>23</ele>
        <time>2021-08-21T10:32:40.396Z</time>
      </trkpt>
      <trkpt lat="47.62403" lon="-3.00089">
        <ele>22.799999237061</ele>
        <time>2021-08-21T10:32:43.917Z</time>
      </trkpt>
      <trkpt lat="47.62409" lon="-3.00087">
        <ele>22.799999237061</ele>
        <time>2021-08-21T10:32:47.439Z</time>
      </trkpt>
      <trkpt lat="47.62421" lon="-3.00082">
        <ele>22.60000038147</ele>
        <time>2021-08-21T10:32:50.964Z</time>
      </trkpt>
      <trkpt lat="47.6244" lon="-3.00074">
        <ele>23.60000038147</ele>
        <time>2021-08-21T10:32:54.495Z</time>
      </trkpt>
      <trkpt lat="47.62456" lon="-3.00067">
        <ele>24</ele>
        <time>2021-08-21T10:32:58.030Z</time>
      </trkpt>
      <trkpt lat="47.62472" lon="-3.0006">
        <ele>24</ele>
        <time>2021-08-21T10:33:01.570Z</time>
      </trkpt>
      <trkpt lat="47.62498" lon="-3.0005">
        <ele>22.39999961853</ele>
        <time>2021-08-21T10:33:05.117Z</time>
      </trkpt>
      <trkpt lat="47.62512" lon="-3.00042">
        <ele>21.60000038147</ele>
        <time>2021-08-21T10:33:08.669Z</time>
      </trkpt>
      <trkpt lat="47.62524" lon="-3.00032">
        <ele>21.200000762939</ele>
        <time>2021-08-21T10:33:12.225Z</time>
      </trkpt>
      <trkpt lat="47.62551" lon="-3.00011">
        <ele>21.60000038147</ele>
        <time>2021-08-21T10:33:15.789Z</time>
      </trkpt>
      <trkpt lat="47.62555" lon="-3.00008">
        <ele>21.60000038147</ele>
        <time>2021-08-21T10:33:19.354Z</time>
      </trkpt>
      <trkpt lat="47.62558" lon="-3.00005">
        <ele>21.60000038147</ele>
        <time>2021-08-21T10:33:22.920Z</time>
      </trkpt>
      <trkpt lat="47.62577" lon="-2.99986">
        <ele>23</ele>
        <time>2021-08-21T10:33:26.492Z</time>
      </trkpt>
      <trkpt lat="47.6258" lon="-2.99983">
        <ele>24.799999237061</ele>
        <time>2021-08-21T10:33:30.065Z</time>
      </trkpt>
      <trkpt lat="47.62586" lon="-2.99977">
        <ele>25.200000762939</ele>
        <time>2021-08-21T10:33:33.640Z</time>
      </trkpt>
      <trkpt lat="47.62603" lon="-2.99972">
        <ele>25.60000038147</ele>
        <time>2021-08-21T10:33:37.220Z</time>
      </trkpt>
      <trkpt lat="47.62617" lon="-2.99967">
        <ele>25.60000038147</ele>
        <time>2021-08-21T10:33:40.804Z</time>
      </trkpt>
      <trkpt lat="47.6264" lon="-2.9996">
        <ele>26</ele>
        <time>2021-08-21T10:33:44.394Z</time>
      </trkpt>
      <trkpt lat="47.6266" lon="-2.99955">
        <ele>25.39999961853</ele>
        <time>2021-08-21T10:33:47.990Z</time>
      </trkpt>
      <trkpt lat="47.62677" lon="-2.99955">
        <ele>24.799999237061</ele>
        <time>2021-08-21T10:33:51.591Z</time>
      </trkpt>
      <trkpt lat="47.62701" lon="-2.99955">
        <ele>25</ele>
        <time>2021-08-21T10:33:55.198Z</time>
      </trkpt>
      <trkpt lat="47.6272" lon="-2.99955">
        <ele>25</ele>
        <time>2021-08-21T10:33:58.810Z</time>
      </trkpt>
      <trkpt lat="47.62737" lon="-2.99955">
        <ele>25.39999961853</ele>
        <time>2021-08-21T10:34:02.427Z</time>
      </trkpt>
      <trkpt lat="47.62759" lon="-2.99955">
        <ele>26.200000762939</ele>
        <time>2021-08-21T10:34:06.050Z</time>
      </trkpt>
      <trkpt lat="47.62782" lon="-2.99955">
        <ele>27</ele>
        <time>2021-08-21T10:34:09.679Z</time>
      </trkpt>
      <trkpt lat="47.62795" lon="-2.99955">
        <ele>27.39999961853</ele>
        <time>2021-08-21T10:34:13.312Z</time>
      </trkpt>
      <trkpt lat="47.6281" lon="-2.99955">
        <ele>28</ele>
        <time>2021-08-21T10:34:16.949Z</time>
      </trkpt>
      <trkpt lat="47.62823" lon="-2.99955">
        <ele>28.39999961853</ele>
        <time>2021-08-21T10:34:20.590Z</time>
      </trkpt>
      <trkpt lat="47.62859" lon="-2.99951">
        <ele>30.39999961853</ele>
        <time>2021-08-21T10:34:24.241Z</time>
      </trkpt>
      <trkpt lat="47.62871" lon="-2.99949">
        <ele>30.60000038147</ele>
        <time>2021-08-21T10:34:27.895Z</time>
      </trkpt>
      <trkpt lat="47.62893" lon="-2.99947">
        <ele>30.60000038147</ele>
        <time>2021-08-21T10:34:31.555Z</time>
      </trkpt>
      <trkpt lat="47.62912" lon="-2.99948">
        <ele>30.60000038147</ele>
        <time>2021-08-21T10:34:35.220Z</time>
      </trkpt>
      <trkpt lat="47.62927" lon="-2.99949">
        <ele>30.60000038147</ele>
        <time>2021-08-21T10:34:38.889Z</time>
      </trkpt>
      <trkpt lat="47.6295" lon="-2.99956">
        <ele>31.799999237061</ele>
        <time>2021-08-21T10:34:42.565Z</time>
      </trkpt>
      <trkpt lat="47.62969" lon="-2.99963">
        <ele>32.200000762939</ele>
        <time>2021-08-21T10:34:46.246Z</time>
      </trkpt>
      <trkpt lat="47.62992" lon="-2.99961">
        <ele>32</ele>
        <time>2021-08-21T10:34:49.933Z</time>
      </trkpt>
      <trkpt lat="47.63016" lon="-2.99957">
        <ele>32</ele>
        <time>2021-08-21T10:34:53.627Z</time>
      </trkpt>
      <trkpt lat="47.63043" lon="-2.99954">
        <ele>31.39999961853</ele>
        <time>2021-08-21T10:34:57.328Z</time>
      </trkpt>
      <trkpt lat="47.63061" lon="-2.99955">
        <ele>30.799999237061</ele>
        <time>2021-08-21T10:35:01.035Z</time>
      </trkpt>
      <trkpt lat="47.63085" lon="-2.99963">
        <ele>30.39999961853</ele>
        <time>2021-08-21T10:35:04.748Z</time>
      </trkpt>
      <trkpt lat="47.63108" lon="-2.99971">
        <ele>31.39999961853</ele>
        <time>2021-08-21T10:35:08.468Z</time>
      </trkpt>
      <trkpt lat="47.63113" lon="-2.99973">
        <ele>31.60000038147</ele>
        <time>2021-08-21T10:35:12.189Z</time>
      </trkpt>
      <trkpt lat="47.63127" lon="-2.99978">
        <ele>32.200000762939</ele>
        <time>2021-08-21T10:35:15.914Z</time>
      </trkpt>
      <trkpt lat="47.63132" lon="-2.99979">
        <ele>32.400001525879</ele>
        <time>2021-08-21T10:35:19.640Z</time>
      </trkpt>
      <trkpt lat="47.63141" lon="-2.99982">
        <ele>32.799999237061</ele>
        <time>2021-08-21T10:35:23.369Z</time>
      </trkpt>
      <trkpt lat="47.63149" lon="-2.99987">
        <ele>32</ele>
        <time>2021-08-21T10:35:27.100Z</time>
      </trkpt>
      <trkpt lat="47.63156" lon="-2.9999">
        <ele>32</ele>
        <time>2021-08-21T10:35:30.833Z</time>
      </trkpt>
      <trkpt lat="47.63157" lon="-2.99991">
        <ele>32</ele>
        <time>2021-08-21T10:35:34.567Z</time>
      </trkpt>
      <trkpt lat="47.63163" lon="-2.99995">
        <ele>32</ele>
        <time>2021-08-21T10:35:38.302Z</time>
      </trkpt>
      <trkpt lat="47.63168" lon="-2.99997">
        <ele>32.400001525879</ele>
        <time>2021-08-21T10:35:42.039Z</time>
      </trkpt>
      <trkpt lat="47.63189" lon="-3.00009">
        <ele>33.599998474121</ele>
        <time>2021-08-21T10:35:45.782Z</time>
      </trkpt>
      <trkpt lat="47.63213" lon="-3.00022">
        <ele>34.799999237061</ele>
        <time>2021-08-21T10:35:49.532Z</time>
      </trkpt>
      <trkpt lat="47.63228" lon="-3.0003">
        <ele>35.599998474121</ele>
        <time>2021-08-21T10:35:53.286Z</time>
      </trkpt>
      <trkpt lat="47.63237" lon="-3.00035">
        <ele>35.799999237061</ele>
        <time>2021-08-21T10:35:57.043Z</time>
      </trkpt>
      <trkpt lat="47.63255" lon="-3.00045">
        <ele>36</ele>
        <time>2021-08-21T10:36:00.805Z</time>
      </trkpt>
      <trkpt lat="47.63265" lon="-3.0005">
        <ele>36</ele>
        <time>2021-08-21T10:36:04.570Z</time>
      </trkpt>
      <trkpt lat="47.63266" lon="-3.00051">
        <ele>36</ele>
        <time>2021-08-21T10:36:08.336Z</time>
      </trkpt>
      <trkpt lat="47.6327" lon="-3.00053">
        <ele>36</ele>
        <time>2021-08-21T10:36:12.103Z</time>
      </trkpt>
      <trkpt lat="47.63272" lon="-3.00054">
        <ele>36</ele>
        <time>2021-08-21T10:36:15.870Z</time>
      </trkpt>
      <trkpt lat="47.63278" lon="-3.00058">
        <ele>36</ele>
        <time>2021-08-21T10:36:19.639Z</time>
      </trkpt>
      <trkpt lat="47.6328" lon="-3.00059">
        <ele>36</ele>
        <time>2021-08-21T10:36:23.409Z</time>
      </trkpt>
      <trkpt lat="47.63283" lon="-3.00062">
        <ele>36</ele>
        <time>2021-08-21T10:36:27.180Z</time>
      </trkpt>
      <trkpt lat="47.63284" lon="-3.00063">
        <ele>36</ele>
        <time>2021-08-21T10:36:30.951Z</time>
      </trkpt>
      <trkpt lat="47.63295" lon="-3.00071">
        <ele>37</ele>
        <time>2021-08-21T10:36:34.725Z</time>
      </trkpt>
      <trkpt lat="47.633" lon="-3.00075">
        <ele>37.400001525879</ele>
        <time>2021-08-21T10:36:38.501Z</time>
      </trkpt>
      <trkpt lat="47.63305" lon="-3.00079">
        <ele>37.599998474121</ele>
        <time>2021-08-21T10:36:42.279Z</time>
      </trkpt>
      <trkpt lat="47.63308" lon="-3.00081">
        <ele>37.599998474121</ele>
        <time>2021-08-21T10:36:46.057Z</time>
      </trkpt>
      <trkpt lat="47.63321" lon="-3.00104">
        <ele>37</ele>
        <time>2021-08-21T10:36:49.841Z</time>
      </trkpt>
      <trkpt lat="47.63317" lon="-3.00117">
        <ele>37</ele>
        <time>2021-08-21T10:36:53.627Z</time>
      </trkpt>
      <trkpt lat="47.63311" lon="-3.00136">
        <ele>37</ele>
        <time>2021-08-21T10:36:57.417Z</time>
      </trkpt>
      <trkpt lat="47.63305" lon="-3.00155">
        <ele>36.799999237061</ele>
        <time>2021-08-21T10:37:01.211Z</time>
      </trkpt>
      <trkpt lat="47.63302" lon="-3.00166">
        <ele>36.599998474121</ele>
        <time>2021-08-21T10:37:05.007Z</time>
      </trkpt>
      <trkpt lat="47.633" lon="-3.00172">
        <ele>36.200000762939</ele>
        <time>2021-08-21T10:37:08.805Z</time>
      </trkpt>
      <trkpt lat="47.63299" lon="-3.00177">
        <ele>36.200000762939</ele>
        <time>2021-08-21T10:37:12.604Z</time>
      </trkpt>
      <trkpt lat="47.63292" lon="-3.00197">
        <ele>36.599998474121</ele>
        <time>2021-08-21T10:37:16.407Z</time>
      </trkpt>
      <trkpt lat="47.63286" lon="-3.00217">
        <ele>36.799999237061</ele>
        <time>2021-08-21T10:37:20.214Z</time>
      </trkpt>
      <trkpt lat="47.6328" lon="-3.00236">
        <ele>37</ele>
        <time>2021-08-21T10:37:24.025Z</time>
      </trkpt>
      <trkpt lat="47.63272" lon="-3.00262">
        <ele>37.599998474121</ele>
        <time>2021-08-21T10:37:27.841Z</time>
      </trkpt>
      <trkpt lat="47.63269" lon="-3.00271">
        <ele>37.599998474121</ele>
        <time>2021-08-21T10:37:31.659Z</time>
      </trkpt>
      <trkpt lat="47.63266" lon="-3.00283">
        <ele>37.400001525879</ele>
        <time>2021-08-21T10:37:35.479Z</time>
      </trkpt>
      <trkpt lat="47.6326" lon="-3.003">
        <ele>37.599998474121</ele>
        <time>2021-08-21T10:37:39.303Z</time>
      </trkpt>
      <trkpt lat="47.63254" lon="-3.0032">
        <ele>38</ele>
        <time>2021-08-21T10:37:43.131Z</time>
      </trkpt>
      <trkpt lat="47.63253" lon="-3.00324">
        <ele>38</ele>
        <time>2021-08-21T10:37:46.960Z</time>
      </trkpt>
      <trkpt lat="47.63248" lon="-3.00357">
        <ele>37.400001525879</ele>
        <time>2021-08-21T10:37:50.795Z</time>
      </trkpt>
      <trkpt lat="47.63247" lon="-3.00383">
        <ele>36.400001525879</ele>
        <time>2021-08-21T10:37:54.635Z</time>
      </trkpt>
      <trkpt lat="47.6324" lon="-3.00411">
        <ele>35.200000762939</ele>
        <time>2021-08-21T10:37:58.480Z</time>
      </trkpt>
      <trkpt lat="47.63233" lon="-3.00439">
        <ele>34.799999237061</ele>
        <time>2021-08-21T10:38:02.331Z</time>
      </trkpt>
      <trkpt lat="47.6323" lon="-3.00452">
        <ele>35</ele>
        <time>2021-08-21T10:38:06.185Z</time>
      </trkpt>
      <trkpt lat="47.63227" lon="-3.00464">
        <ele>35</ele>
        <time>2021-08-21T10:38:10.041Z</time>
      </trkpt>
      <trkpt lat="47.63225" lon="-3.00481">
        <ele>35</ele>
        <time>2021-08-21T10:38:13.900Z</time>
      </trkpt>
      <trkpt lat="47.63232" lon="-3.00489">
        <ele>35.200000762939</ele>
        <time>2021-08-21T10:38:17.761Z</time>
      </trkpt>
      <trkpt lat="47.63238" lon="-3.00498">
        <ele>35.400001525879</ele>
        <time>2021-08-21T10:38:21.625Z</time>
      </trkpt>
      <trkpt lat="47.63241" lon="-3.00502">
        <ele>35.599998474121</ele>
        <time>2021-08-21T10:38:25.490Z</time>
      </trkpt>
      <trkpt lat="47.63255" lon="-3.00511">
        <ele>36</ele>
        <time>2021-08-21T10:38:29.359Z</time>
      </trkpt>
      <trkpt lat="47.63259" lon="-3.00513">
        <ele>36</ele>
        <time>2021-08-21T10:38:33.229Z</time>
      </trkpt>
      <trkpt lat="47.63268" lon="-3.00517">
        <ele>35.799999237061</ele>
        <time>2021-08-21T10:38:37.102Z</time>
      </trkpt>
      <trkpt lat="47.63296" lon="-3.0053">
        <ele>34.400001525879</ele>
        <time>2021-08-21T10:38:40.983Z</time>
      </trkpt>
      <trkpt lat="47.63323" lon="-3.00543">
        <ele>34.400001525879</ele>
        <time>2021-08-21T10:38:44.872Z</time>
      </trkpt>
      <trkpt lat="47.63328" lon="-3.00545">
        <ele>34.400001525879</ele>
        <time>2021-08-21T10:38:48.762Z</time>
      </trkpt>
      <trkpt lat="47.63338" lon="-3.00549">
        <ele>34.799999237061</ele>
        <time>2021-08-21T10:38:52.655Z</time>
      </trkpt>
      <trkpt lat="47.63354" lon="-3.00563">
        <ele>34</ele>
        <time>2021-08-21T10:38:56.553Z</time>
      </trkpt>
      <trkpt lat="47.63362" lon="-3.00572">
        <ele>33.799999237061</ele>
        <time>2021-08-21T10:39:00.454Z</time>
      </trkpt>
      <trkpt lat="47.63371" lon="-3.00581">
        <ele>33.599998474121</ele>
        <time>2021-08-21T10:39:04.358Z</time>
      </trkpt>
      <trkpt lat="47.63375" lon="-3.00586">
        <ele>33.400001525879</ele>
        <time>2021-08-21T10:39:08.263Z</time>
      </trkpt>
      <trkpt lat="47.63392" lon="-3.00602">
        <ele>33.799999237061</ele>
        <time>2021-08-21T10:39:12.174Z</time>
      </trkpt>
      <trkpt lat="47.63407" lon="-3.00618">
        <ele>33.599998474121</ele>
        <time>2021-08-21T10:39:16.090Z</time>
      </trkpt>
      <trkpt lat="47.6342" lon="-3.00631">
        <ele>33.799999237061</ele>
        <time>2021-08-21T10:39:20.010Z</time>
      </trkpt>
      <trkpt lat="47.63434" lon="-3.00645">
        <ele>33.200000762939</ele>
        <time>2021-08-21T10:39:23.935Z</time>
      </trkpt>
      <trkpt lat="47.6345" lon="-3.00661">
        <ele>32.799999237061</ele>
        <time>2021-08-21T10:39:27.865Z</time>
      </trkpt>
      <trkpt lat="47.6347" lon="-3.00681">
        <ele>33.599998474121</ele>
        <time>2021-08-21T10:39:31.801Z</time>
      </trkpt>
      <trkpt lat="47.63484" lon="-3.00695">
        <ele>33.400001525879</ele>
        <time>2021-08-21T10:39:35.742Z</time>
      </trkpt>
      <trkpt lat="47.63486" lon="-3.00698">
        <ele>33.400001525879</ele>
        <time>2021-08-21T10:39:39.684Z</time>
      </trkpt>
      <trkpt lat="47.635" lon="-3.00705">
        <ele>33.200000762939</ele>
        <time>2021-08-21T10:39:43.630Z</time>
      </trkpt>
      <trkpt lat="47.63518" lon="-3.00709">
        <ele>32.400001525879</ele>
        <time>2021-08-21T10:39:47.581Z</time>
      </trkpt>
      <trkpt lat="47.63523" lon="-3.0071">
        <ele>32.200000762939</ele>
        <time>2021-08-21T10:39:51.533Z</time>
      </trkpt>
      <trkpt lat="47.63543" lon="-3.00721">
        <ele>31.60000038147</ele>
        <time>2021-08-21T10:39:55.491Z</time>
      </trkpt>
      <trkpt lat="47.63544" lon="-3.00728">
        <ele>31.200000762939</ele>
        <time>2021-08-21T10:39:59.451Z</time>
      </trkpt>
      <trkpt lat="47.63545" lon="-3.00765">
        <ele>31.39999961853</ele>
        <time>2021-08-21T10:40:03.417Z</time>
      </trkpt>
      <trkpt lat="47.63546" lon="-3.00773">
        <ele>31.200000762939</ele>
        <time>2021-08-21T10:40:07.385Z</time>
      </trkpt>
      <trkpt lat="47.63547" lon="-3.00811">
        <ele>29.799999237061</ele>
        <time>2021-08-21T10:40:11.360Z</time>
      </trkpt>
      <trkpt lat="47.63547" lon="-3.00813">
        <ele>29.799999237061</ele>
        <time>2021-08-21T10:40:15.335Z</time>
      </trkpt>
      <trkpt lat="47.63551" lon="-3.00814">
        <ele>30</ele>
        <time>2021-08-21T10:40:19.312Z</time>
      </trkpt>
      <trkpt lat="47.63559" lon="-3.00816">
        <ele>30.200000762939</ele>
        <time>2021-08-21T10:40:23.291Z</time>
      </trkpt>
      <trkpt lat="47.6358" lon="-3.00822">
        <ele>30.60000038147</ele>
        <time>2021-08-21T10:40:27.276Z</time>
      </trkpt>
      <trkpt lat="47.63609" lon="-3.0083">
        <ele>29.799999237061</ele>
        <time>2021-08-21T10:40:31.269Z</time>
      </trkpt>
      <trkpt lat="47.63618" lon="-3.00833">
        <ele>29.799999237061</ele>
        <time>2021-08-21T10:40:35.264Z</time>
      </trkpt>
      <trkpt lat="47.6364" lon="-3.00839">
        <ele>28.39999961853</ele>
        <time>2021-08-21T10:40:39.265Z</time>
      </trkpt>
      <trkpt lat="47.63676" lon="-3.00849">
        <ele>29.39999961853</ele>
        <time>2021-08-21T10:40:43.276Z</time>
      </trkpt>
      <trkpt lat="47.63692" lon="-3.00854">
        <ele>30.60000038147</ele>
        <time>2021-08-21T10:40:47.292Z</time>
      </trkpt>
      <trkpt lat="47.63714" lon="-3.0086">
        <ele>32.200000762939</ele>
        <time>2021-08-21T10:40:51.314Z</time>
      </trkpt>
      <trkpt lat="47.63719" lon="-3.00861">
        <ele>32.200000762939</ele>
        <time>2021-08-21T10:40:55.337Z</time>
      </trkpt>
      <trkpt lat="47.63732" lon="-3.00865">
        <ele>32.400001525879</ele>
        <time>2021-08-21T10:40:59.364Z</time>
      </trkpt>
      <trkpt lat="47.63745" lon="-3.00869">
        <ele>32.599998474121</ele>
        <time>2021-08-21T10:41:03.395Z</time>
      </trkpt>
      <trkpt lat="47.63759" lon="-3.00873">
        <ele>33</ele>
        <time>2021-08-21T10:41:07.430Z</time>
      </trkpt>
      <trkpt lat="47.63767" lon="-3.00875">
        <ele>32.599998474121</ele>
        <time>2021-08-21T10:41:11.467Z</time>
      </trkpt>
      <trkpt lat="47.63766" lon="-3.00888">
        <ele>31.60000038147</ele>
        <time>2021-08-21T10:41:15.506Z</time>
      </trkpt>
      <trkpt lat="47.63765" lon="-3.00893">
        <ele>31.39999961853</ele>
        <time>2021-08-21T10:41:19.546Z</time>
      </trkpt>
      <trkpt lat="47.63762" lon="-3.00908">
        <ele>30.799999237061</ele>
        <time>2021-08-21T10:41:23.589Z</time>
      </trkpt>
      <trkpt lat="47.63751" lon="-3.00956">
        <ele>30.200000762939</ele>
        <time>2021-08-21T10:41:27.642Z</time>
      </trkpt>
      <trkpt lat="47.63739" lon="-3.0101">
        <ele>30</ele>
        <time>2021-08-21T10:41:31.705Z</time>
      </trkpt>
      <trkpt lat="47.63736" lon="-3.01046">
        <ele>31.200000762939</ele>
        <time>2021-08-21T10:41:35.775Z</time>
      </trkpt>
      <trkpt lat="47.63737" lon="-3.01053">
        <ele>31.200000762939</ele>
        <time>2021-08-21T10:41:39.846Z</time>
      </trkpt>
      <trkpt lat="47.63737" lon="-3.01059">
        <ele>31.200000762939</ele>
        <time>2021-08-21T10:41:43.918Z</time>
      </trkpt>
      <trkpt lat="47.63745" lon="-3.01086">
        <ele>30.799999237061</ele>
        <time>2021-08-21T10:41:47.996Z</time>
      </trkpt>
      <trkpt lat="47.6376" lon="-3.01136">
        <ele>29</ele>
        <time>2021-08-21T10:41:52.084Z</time>
      </trkpt>
      <trkpt lat="47.63778" lon="-3.01194">
        <ele>29</ele>
        <time>2021-08-21T10:41:56.184Z</time>
      </trkpt>
      <trkpt lat="47.63788" lon="-3.01217">
        <ele>29</ele>
        <time>2021-08-21T10:42:00.289Z</time>
      </trkpt>
      <trkpt lat="47.638" lon="-3.01234">
        <ele>29</ele>
        <time>2021-08-21T10:42:04.398Z</time>
      </trkpt>
      <trkpt lat="47.63808" lon="-3.01237">
        <ele>29</ele>
        <time>2021-08-21T10:42:08.510Z</time>
      </trkpt>
      <trkpt lat="47.63822" lon="-3.01226">
        <ele>29.39999961853</ele>
        <time>2021-08-21T10:42:12.626Z</time>
      </trkpt>
      <trkpt lat="47.6384" lon="-3.01212">
        <ele>29.799999237061</ele>
        <time>2021-08-21T10:42:16.747Z</time>
      </trkpt>
      <trkpt lat="47.6385" lon="-3.01203">
        <ele>30.200000762939</ele>
        <time>2021-08-21T10:42:20.872Z</time>
      </trkpt>
      <trkpt lat="47.63866" lon="-3.01191">
        <ele>30.60000038147</ele>
        <time>2021-08-21T10:42:25.002Z</time>
      </trkpt>
      <trkpt lat="47.63873" lon="-3.01185">
        <ele>30.799999237061</ele>
        <time>2021-08-21T10:42:29.134Z</time>
      </trkpt>
      <trkpt lat="47.63881" lon="-3.01181">
        <ele>31</ele>
        <time>2021-08-21T10:42:33.268Z</time>
      </trkpt>
      <trkpt lat="47.63904" lon="-3.01168">
        <ele>31</ele>
        <time>2021-08-21T10:42:37.409Z</time>
      </trkpt>
      <trkpt lat="47.63929" lon="-3.01153">
        <ele>31</ele>
        <time>2021-08-21T10:42:41.557Z</time>
      </trkpt>
      <trkpt lat="47.63951" lon="-3.0114">
        <ele>31.39999961853</ele>
        <time>2021-08-21T10:42:45.712Z</time>
      </trkpt>
      <trkpt lat="47.63981" lon="-3.01122">
        <ele>32.200000762939</ele>
        <time>2021-08-21T10:42:49.876Z</time>
      </trkpt>
      <trkpt lat="47.64012" lon="-3.01104">
        <ele>33</ele>
        <time>2021-08-21T10:42:54.049Z</time>
      </trkpt>
      <trkpt lat="47.64049" lon="-3.01082">
        <ele>31.799999237061</ele>
        <time>2021-08-21T10:42:58.233Z</time>
      </trkpt>
      <trkpt lat="47.64072" lon="-3.01069">
        <ele>31</ele>
        <time>2021-08-21T10:43:02.424Z</time>
      </trkpt>
      <trkpt lat="47.64104" lon="-3.0105">
        <ele>32.400001525879</ele>
        <time>2021-08-21T10:43:06.624Z</time>
      </trkpt>
      <trkpt lat="47.64137" lon="-3.01031">
        <ele>33.799999237061</ele>
        <time>2021-08-21T10:43:10.834Z</time>
      </trkpt>
      <trkpt lat="47.64164" lon="-3.01015">
        <ele>34.200000762939</ele>
        <time>2021-08-21T10:43:15.052Z</time>
      </trkpt>
      <trkpt lat="47.64177" lon="-3.01007">
        <ele>34.200000762939</ele>
        <time>2021-08-21T10:43:19.274Z</time>
      </trkpt>
      <trkpt lat="47.6419" lon="-3.01014">
        <ele>34</ele>
        <time>2021-08-21T10:43:23.499Z</time>
      </trkpt>
      <trkpt lat="47.64192" lon="-3.01024">
        <ele>33.599998474121</ele>
        <time>2021-08-21T10:43:27.726Z</time>
      </trkpt>
      <trkpt lat="47.64199" lon="-3.0105">
        <ele>32.799999237061</ele>
        <time>2021-08-21T10:43:31.958Z</time>
      </trkpt>
      <trkpt lat="47.64213" lon="-3.0111">
        <ele>32</ele>
        <time>2021-08-21T10:43:36.202Z</time>
      </trkpt>
      <trkpt lat="47.64226" lon="-3.01164">
        <ele>32</ele>
        <time>2021-08-21T10:43:40.457Z</time>
      </trkpt>
      <trkpt lat="47.64245" lon="-3.01229">
        <ele>33.799999237061</ele>
        <time>2021-08-21T10:43:44.725Z</time>
      </trkpt>
      <trkpt lat="47.64263" lon="-3.01285">
        <ele>33.799999237061</ele>
        <time>2021-08-21T10:43:49.005Z</time>
      </trkpt>
      <trkpt lat="47.64276" lon="-3.01326">
        <ele>32</ele>
        <time>2021-08-21T10:43:53.293Z</time>
      </trkpt>
      <trkpt lat="47.64284" lon="-3.01325">
        <ele>32</ele>
        <time>2021-08-21T10:43:57.583Z</time>
      </trkpt>
      <trkpt lat="47.64293" lon="-3.01322">
        <ele>31.60000038147</ele>
        <time>2021-08-21T10:44:01.875Z</time>
      </trkpt>
      <trkpt lat="47.64302" lon="-3.01317">
        <ele>31.200000762939</ele>
        <time>2021-08-21T10:44:06.170Z</time>
      </trkpt>
      <trkpt lat="47.64316" lon="-3.01307">
        <ele>30.60000038147</ele>
        <time>2021-08-21T10:44:10.469Z</time>
      </trkpt>
      <trkpt lat="47.64333" lon="-3.01294">
        <ele>29.200000762939</ele>
        <time>2021-08-21T10:44:14.774Z</time>
      </trkpt>
      <trkpt lat="47.64341" lon="-3.01287">
        <ele>29</ele>
        <time>2021-08-21T10:44:19.081Z</time>
      </trkpt>
      <trkpt lat="47.64352" lon="-3.01274">
        <ele>29</ele>
        <time>2021-08-21T10:44:23.392Z</time>
      </trkpt>
      <trkpt lat="47.64372" lon="-3.01252">
        <ele>29</ele>
        <time>2021-08-21T10:44:27.710Z</time>
      </trkpt>
      <trkpt lat="47.64383" lon="-3.0124">
        <ele>29</ele>
        <time>2021-08-21T10:44:32.032Z</time>
      </trkpt>
      <trkpt lat="47.64397" lon="-3.0122">
        <ele>29.60000038147</ele>
        <time>2021-08-21T10:44:36.359Z</time>
      </trkpt>
      <trkpt lat="47.64417" lon="-3.01191">
        <ele>30</ele>
        <time>2021-08-21T10:44:40.694Z</time>
      </trkpt>
      <trkpt lat="47.64434" lon="-3.01164">
        <ele>29</ele>
        <time>2021-08-21T10:44:45.036Z</time>
      </trkpt>
      <trkpt lat="47.64447" lon="-3.01145">
        <ele>27.799999237061</ele>
        <time>2021-08-21T10:44:49.382Z</time>
      </trkpt>
      <trkpt lat="47.64453" lon="-3.01135">
        <ele>27.200000762939</ele>
        <time>2021-08-21T10:44:53.731Z</time>
      </trkpt>
      <trkpt lat="47.64474" lon="-3.01104">
        <ele>25.39999961853</ele>
        <time>2021-08-21T10:44:58.088Z</time>
      </trkpt>
      <trkpt lat="47.6448" lon="-3.01094">
        <ele>25.200000762939</ele>
        <time>2021-08-21T10:45:02.448Z</time>
      </trkpt>
      <trkpt lat="47.64492" lon="-3.01074">
        <ele>26.200000762939</ele>
        <time>2021-08-21T10:45:06.813Z</time>
      </trkpt>
      <trkpt lat="47.64508" lon="-3.01038">
        <ele>28.200000762939</ele>
        <time>2021-08-21T10:45:11.186Z</time>
      </trkpt>
      <trkpt lat="47.64512" lon="-3.01029">
        <ele>28.200000762939</ele>
        <time>2021-08-21T10:45:15.561Z</time>
      </trkpt>
      <trkpt lat="47.64521" lon="-3.01032">
        <ele>28.39999961853</ele>
        <time>2021-08-21T10:45:19.938Z</time>
      </trkpt>
      <trkpt lat="47.64552" lon="-3.0105">
        <ele>27.799999237061</ele>
        <time>2021-08-21T10:45:24.324Z</time>
      </trkpt>
      <trkpt lat="47.64575" lon="-3.01063">
        <ele>26.39999961853</ele>
        <time>2021-08-21T10:45:28.717Z</time>
      </trkpt>
      <trkpt lat="47.64591" lon="-3.01077">
        <ele>25.799999237061</ele>
        <time>2021-08-21T10:45:33.115Z</time>
      </trkpt>
      <trkpt lat="47.64596" lon="-3.01081">
        <ele>25.39999961853</ele>
        <time>2021-08-21T10:45:37.515Z</time>
      </trkpt>
      <trkpt lat="47.64622" lon="-3.01103">
        <ele>23.200000762939</ele>
        <time>2021-08-21T10:45:41.923Z</time>
      </trkpt>
      <trkpt lat="47.6464" lon="-3.01109">
        <ele>22.200000762939</ele>
        <time>2021-08-21T10:45:46.336Z</time>
      </trkpt>
      <trkpt lat="47.64657" lon="-3.01112">
        <ele>21.60000038147</ele>
        <time>2021-08-21T10:45:50.754Z</time>
      </trkpt>
      <trkpt lat="47.64686" lon="-3.01116">
        <ele>21.39999961853</ele>
        <time>2021-08-21T10:45:55.179Z</time>
      </trkpt>
      <trkpt lat="47.64692" lon="-3.01116">
        <ele>21.200000762939</ele>
        <time>2021-08-21T10:45:59.606Z</time>
      </trkpt>
      <trkpt lat="47.64711" lon="-3.01117">
        <ele>20.39999961853</ele>
        <time>2021-08-21T10:46:04.039Z</time>
      </trkpt>
      <trkpt lat="47.64717" lon="-3.01117">
        <ele>20</ele>
        <time>2021-08-21T10:46:08.473Z</time>
      </trkpt>
      <trkpt lat="47.64721" lon="-3.01117">
        <ele>19.60000038147</ele>
        <time>2021-08-21T10:46:12.908Z</time>
      </trkpt>
      <trkpt lat="47.64734" lon="-3.01117">
        <ele>19</ele>
        <time>2021-08-21T10:46:17.347Z</time>
      </trkpt>
      <trkpt lat="47.64749" lon="-3.01118">
        <ele>18.39999961853</ele>
        <time>2021-08-21T10:46:21.790Z</time>
      </trkpt>
      <trkpt lat="47.64758" lon="-3.01118">
        <ele>18.200000762939</ele>
        <time>2021-08-21T10:46:26.235Z</time>
      </trkpt>
      <trkpt lat="47.64774" lon="-3.01118">
        <ele>18.200000762939</ele>
        <time>2021-08-21T10:46:30.685Z</time>
      </trkpt>
      <trkpt lat="47.64794" lon="-3.01119">
        <ele>18.39999961853</ele>
        <time>2021-08-21T10:46:35.140Z</time>
      </trkpt>
      <trkpt lat="47.64812" lon="-3.0112">
        <ele>19</ele>
        <time>2021-08-21T10:46:39.600Z</time>
      </trkpt>
      <trkpt lat="47.64828" lon="-3.01117">
        <ele>19.39999961853</ele>
        <time>2021-08-21T10:46:44.064Z</time>
      </trkpt>
      <trkpt lat="47.64854" lon="-3.01107">
        <ele>20.799999237061</ele>
        <time>2021-08-21T10:46:48.536Z</time>
      </trkpt>
      <trkpt lat="47.6487" lon="-3.01102">
        <ele>21.799999237061</ele>
        <time>2021-08-21T10:46:53.012Z</time>
      </trkpt>
      <trkpt lat="47.64887" lon="-3.01079">
        <ele>22.60000038147</ele>
        <time>2021-08-21T10:46:57.495Z</time>
      </trkpt>
      <trkpt lat="47.64888" lon="-3.01051">
        <ele>23.60000038147</ele>
        <time>2021-08-21T10:47:01.983Z</time>
      </trkpt>
      <trkpt lat="47.64884" lon="-3.01034">
        <ele>23.60000038147</ele>
        <time>2021-08-21T10:47:06.474Z</time>
      </trkpt>
      <trkpt lat="47.64882" lon="-3.01029">
        <ele>23.60000038147</ele>
        <time>2021-08-21T10:47:10.966Z</time>
      </trkpt>
      <trkpt lat="47.64878" lon="-3.01012">
        <ele>23.39999961853</ele>
        <time>2021-08-21T10:47:15.462Z</time>
      </trkpt>
      <trkpt lat="47.64876" lon="-3.01006">
        <ele>23.200000762939</ele>
        <time>2021-08-21T10:47:19.959Z</time>
      </trkpt>
      <trkpt lat="47.64869" lon="-3.00978">
        <ele>22</ele>
        <time>2021-08-21T10:47:24.462Z</time>
      </trkpt>
      <trkpt lat="47.64868" lon="-3.00972">
        <ele>21.60000038147</ele>
        <time>2021-08-21T10:47:28.966Z</time>
      </trkpt>
      <trkpt lat="47.64865" lon="-3.00962">
        <ele>21</ele>
        <time>2021-08-21T10:47:33.472Z</time>
      </trkpt>
      <trkpt lat="47.64863" lon="-3.00956">
        <ele>21</ele>
        <time>2021-08-21T10:47:37.979Z</time>
      </trkpt>
      <trkpt lat="47.64856" lon="-3.0093">
        <ele>20.39999961853</ele>
        <time>2021-08-21T10:47:42.491Z</time>
      </trkpt>
      <trkpt lat="47.64853" lon="-3.00918">
        <ele>20.200000762939</ele>
        <time>2021-08-21T10:47:47.005Z</time>
      </trkpt>
      <trkpt lat="47.64852" lon="-3.00896">
        <ele>20</ele>
        <time>2021-08-21T10:47:51.523Z</time>
      </trkpt>
      <trkpt lat="47.64855" lon="-3.00884">
        <ele>20.200000762939</ele>
        <time>2021-08-21T10:47:56.044Z</time>
      </trkpt>
      <trkpt lat="47.6486" lon="-3.00866">
        <ele>21</ele>
        <time>2021-08-21T10:48:00.568Z</time>
      </trkpt>
      <trkpt lat="47.64864" lon="-3.00856">
        <ele>21.60000038147</ele>
        <time>2021-08-21T10:48:05.095Z</time>
      </trkpt>
      <trkpt lat="47.64867" lon="-3.00849">
        <ele>22</ele>
        <time>2021-08-21T10:48:09.623Z</time>
      </trkpt>
      <trkpt lat="47.64874" lon="-3.00831">
        <ele>22.39999961853</ele>
        <time>2021-08-21T10:48:14.155Z</time>
      </trkpt>
      <trkpt lat="47.64877" lon="-3.00824">
        <ele>22.39999961853</ele>
        <time>2021-08-21T10:48:18.689Z</time>
      </trkpt>
      <trkpt lat="47.64879" lon="-3.00817">
        <ele>22.60000038147</ele>
        <time>2021-08-21T10:48:23.224Z</time>
      </trkpt>
      <trkpt lat="47.64885" lon="-3.00805">
        <ele>22.799999237061</ele>
        <time>2021-08-21T10:48:27.762Z</time>
      </trkpt>
      <trkpt lat="47.64887" lon="-3.008">
        <ele>22.799999237061</ele>
        <time>2021-08-21T10:48:32.301Z</time>
      </trkpt>
      <trkpt lat="47.64893" lon="-3.00788">
        <ele>22.799999237061</ele>
        <time>2021-08-21T10:48:36.842Z</time>
      </trkpt>
      <trkpt lat="47.64898" lon="-3.00777">
        <ele>23</ele>
        <time>2021-08-21T10:48:41.386Z</time>
      </trkpt>
      <trkpt lat="47.64908" lon="-3.00757">
        <ele>23.60000038147</ele>
        <time>2021-08-21T10:48:45.935Z</time>
      </trkpt>
      <trkpt lat="47.64916" lon="-3.00738">
        <ele>24.60000038147</ele>
        <time>2021-08-21T10:48:50.488Z</time>
      </trkpt>
      <trkpt lat="47.64928" lon="-3.00714">
        <ele>25.799999237061</ele>
        <time>2021-08-21T10:48:55.046Z</time>
      </trkpt>
      <trkpt lat="47.64936" lon="-3.00696">
        <ele>25.799999237061</ele>
        <time>2021-08-21T10:48:59.608Z</time>
      </trkpt>
      <trkpt lat="47.64945" lon="-3.00678">
        <ele>25.60000038147</ele>
        <time>2021-08-21T10:49:04.174Z</time>
      </trkpt>
      <trkpt lat="47.64953" lon="-3.00659">
        <ele>25</ele>
        <time>2021-08-21T10:49:08.745Z</time>
      </trkpt>
      <trkpt lat="47.6496" lon="-3.00645">
        <ele>24.60000038147</ele>
        <time>2021-08-21T10:49:13.319Z</time>
      </trkpt>
      <trkpt lat="47.64962" lon="-3.00641">
        <ele>24.60000038147</ele>
        <time>2021-08-21T10:49:17.894Z</time>
      </trkpt>
      <trkpt lat="47.64963" lon="-3.00638">
        <ele>24.60000038147</ele>
        <time>2021-08-21T10:49:22.469Z</time>
      </trkpt>
      <trkpt lat="47.64971" lon="-3.00632">
        <ele>25</ele>
        <time>2021-08-21T10:49:27.047Z</time>
      </trkpt>
      <trkpt lat="47.64984" lon="-3.0063">
        <ele>26.200000762939</ele>
        <time>2021-08-21T10:49:31.628Z</time>
      </trkpt>
      <trkpt lat="47.64996" lon="-3.00625">
        <ele>27</ele>
        <time>2021-08-21T10:49:36.213Z</time>
      </trkpt>
      <trkpt lat="47.65008" lon="-3.00605">
        <ele>28</ele>
        <time>2021-08-21T10:49:40.803Z</time>
      </trkpt>
      <trkpt lat="47.6502" lon="-3.00585">
        <ele>28.39999961853</ele>
        <time>2021-08-21T10:49:45.398Z</time>
      </trkpt>
      <trkpt lat="47.65031" lon="-3.00567">
        <ele>29</ele>
        <time>2021-08-21T10:49:49.997Z</time>
      </trkpt>
      <trkpt lat="47.65037" lon="-3.00558">
        <ele>29.60000038147</ele>
        <time>2021-08-21T10:49:54.599Z</time>
      </trkpt>
      <trkpt lat="47.65041" lon="-3.00557">
        <ele>29.799999237061</ele>
        <time>2021-08-21T10:49:59.202Z</time>
      </trkpt>
      <trkpt lat="47.65068" lon="-3.00551">
        <ele>30.60000038147</ele>
        <time>2021-08-21T10:50:03.812Z</time>
      </trkpt>
      <trkpt lat="47.65094" lon="-3.00545">
        <ele>32</ele>
        <time>2021-08-21T10:50:08.429Z</time>
      </trkpt>
      <trkpt lat="47.65111" lon="-3.00542">
        <ele>32.799999237061</ele>
        <time>2021-08-21T10:50:13.051Z</time>
      </trkpt>
      <trkpt lat="47.65114" lon="-3.00541">
        <ele>33</ele>
        <time>2021-08-21T10:50:17.674Z</time>
      </trkpt>
      <trkpt lat="47.65117" lon="-3.00536">
        <ele>33</ele>
        <time>2021-08-21T10:50:22.298Z</time>
      </trkpt>
      <trkpt lat="47.65119" lon="-3.00517">
        <ele>32.799999237061</ele>
        <time>2021-08-21T10:50:26.926Z</time>
      </trkpt>
      <trkpt lat="47.65125" lon="-3.00475">
        <ele>32.200000762939</ele>
        <time>2021-08-21T10:50:31.562Z</time>
      </trkpt>
      <trkpt lat="47.65128" lon="-3.00451">
        <ele>31.60000038147</ele>
        <time>2021-08-21T10:50:36.202Z</time>
      </trkpt>
      <trkpt lat="47.65131" lon="-3.00429">
        <ele>31.39999961853</ele>
        <time>2021-08-21T10:50:40.846Z</time>
      </trkpt>
      <trkpt lat="47.65154" lon="-3.00418">
        <ele>31.39999961853</ele>
        <time>2021-08-21T10:50:45.497Z</time>
      </trkpt>
      <trkpt lat="47.65173" lon="-3.00393">
        <ele>32</ele>
        <time>2021-08-21T10:50:50.155Z</time>
      </trkpt>
      <trkpt lat="47.65178" lon="-3.00387">
        <ele>32</ele>
        <time>2021-08-21T10:50:54.815Z</time>
      </trkpt>
      <trkpt lat="47.65177" lon="-3.00377">
        <ele>32</ele>
        <time>2021-08-21T10:50:59.476Z</time>
      </trkpt>
      <trkpt lat="47.65181" lon="-3.00382">
        <ele>32</ele>
        <time>2021-08-21T10:51:04.139Z</time>
      </trkpt>
      <trkpt lat="47.65194" lon="-3.00365">
        <ele>32</ele>
        <time>2021-08-21T10:51:08.807Z</time>
      </trkpt>
      <trkpt lat="47.65213" lon="-3.00338">
        <ele>32</ele>
        <time>2021-08-21T10:51:13.482Z</time>
      </trkpt>
      <trkpt lat="47.65216" lon="-3.00334">
        <ele>32</ele>
        <time>2021-08-21T10:51:18.158Z</time>
      </trkpt>
      <trkpt lat="47.65228" lon="-3.00318">
        <ele>32</ele>
        <time>2021-08-21T10:51:22.838Z</time>
      </trkpt>
      <trkpt lat="47.65231" lon="-3.00313">
        <ele>31.799999237061</ele>
        <time>2021-08-21T10:51:27.520Z</time>
      </trkpt>
      <trkpt lat="47.6525" lon="-3.00288">
        <ele>31.200000762939</ele>
        <time>2021-08-21T10:51:32.208Z</time>
      </trkpt>
      <trkpt lat="47.65282" lon="-3.00243">
        <ele>32</ele>
        <time>2021-08-21T10:51:36.909Z</time>
      </trkpt>
      <trkpt lat="47.65306" lon="-3.0021">
        <ele>33</ele>
        <time>2021-08-21T10:51:41.619Z</time>
      </trkpt>
      <trkpt lat="47.65333" lon="-3.00173">
        <ele>31.60000038147</ele>
        <time>2021-08-21T10:51:46.339Z</time>
      </trkpt>
      <trkpt lat="47.65339" lon="-3.00165">
        <ele>31.39999961853</ele>
        <time>2021-08-21T10:51:51.061Z</time>
      </trkpt>
      <trkpt lat="47.65349" lon="-3.00151">
        <ele>30.799999237061</ele>
        <time>2021-08-21T10:51:55.787Z</time>
      </trkpt>
      <trkpt lat="47.65352" lon="-3.00147">
        <ele>30.60000038147</ele>
        <time>2021-08-21T10:52:00.514Z</time>
      </trkpt>
      <trkpt lat="47.65366" lon="-3.00128">
        <ele>29.799999237061</ele>
        <time>2021-08-21T10:52:05.246Z</time>
      </trkpt>
      <trkpt lat="47.65383" lon="-3.00104">
        <ele>30.200000762939</ele>
        <time>2021-08-21T10:52:09.984Z</time>
      </trkpt>
      <trkpt lat="47.65407" lon="-3.00071">
        <ele>29.60000038147</ele>
        <time>2021-08-21T10:52:14.731Z</time>
      </trkpt>
      <trkpt lat="47.65413" lon="-3.00062">
        <ele>29.799999237061</ele>
        <time>2021-08-21T10:52:19.481Z</time>
      </trkpt>
      <trkpt lat="47.65419" lon="-3.00054">
        <ele>30.200000762939</ele>
        <time>2021-08-21T10:52:24.233Z</time>
      </trkpt>
      <trkpt lat="47.65416" lon="-3.00036">
        <ele>31</ele>
        <time>2021-08-21T10:52:28.988Z</time>
      </trkpt>
      <trkpt lat="47.6541" lon="-3.0003">
        <ele>31</ele>
        <time>2021-08-21T10:52:33.745Z</time>
      </trkpt>
      <trkpt lat="47.65404" lon="-3.00023">
        <ele>31.200000762939</ele>
        <time>2021-08-21T10:52:38.505Z</time>
      </trkpt>
      <trkpt lat="47.654" lon="-3.0002">
        <ele>31.60000038147</ele>
        <time>2021-08-21T10:52:43.266Z</time>
      </trkpt>
      <trkpt lat="47.65382" lon="-3.00002">
        <ele>32</ele>
        <time>2021-08-21T10:52:48.033Z</time>
      </trkpt>
      <trkpt lat="47.65361" lon="-2.99981">
        <ele>32.799999237061</ele>
        <time>2021-08-21T10:52:52.806Z</time>
      </trkpt>
      <trkpt lat="47.65359" lon="-2.99979">
        <ele>32.799999237061</ele>
        <time>2021-08-21T10:52:57.580Z</time>
      </trkpt>
      <trkpt lat="47.65355" lon="-2.99959">
        <ele>32.599998474121</ele>
        <time>2021-08-21T10:53:02.358Z</time>
      </trkpt>
      <trkpt lat="47.65364" lon="-2.99941">
        <ele>33</ele>
        <time>2021-08-21T10:53:07.140Z</time>
      </trkpt>
      <trkpt lat="47.65374" lon="-2.99919">
        <ele>32.599998474121</ele>
        <time>2021-08-21T10:53:11.927Z</time>
      </trkpt>
      <trkpt lat="47.65383" lon="-2.99901">
        <ele>32</ele>
        <time>2021-08-21T10:53:16.718Z</time>
      </trkpt>
      <trkpt lat="47.65393" lon="-2.9988">
        <ele>32.799999237061</ele>
        <time>2021-08-21T10:53:21.514Z</time>
      </trkpt>
      <trkpt lat="47.65397" lon="-2.99869">
        <ele>33.200000762939</ele>
        <time>2021-08-21T10:53:26.312Z</time>
      </trkpt>
      <trkpt lat="47.654" lon="-2.99863">
        <ele>33.200000762939</ele>
        <time>2021-08-21T10:53:31.112Z</time>
      </trkpt>
      <trkpt lat="47.65406" lon="-2.99845">
        <ele>33.400001525879</ele>
        <time>2021-08-21T10:53:35.915Z</time>
      </trkpt>
      <trkpt lat="47.65411" lon="-2.99832">
        <ele>33.200000762939</ele>
        <time>2021-08-21T10:53:40.721Z</time>
      </trkpt>
      <trkpt lat="47.65418" lon="-2.99813">
        <ele>33</ele>
        <time>2021-08-21T10:53:45.531Z</time>
      </trkpt>
      <trkpt lat="47.65428" lon="-2.99787">
        <ele>33</ele>
        <time>2021-08-21T10:53:50.347Z</time>
      </trkpt>
      <trkpt lat="47.65433" lon="-2.99775">
        <ele>33.200000762939</ele>
        <time>2021-08-21T10:53:55.165Z</time>
      </trkpt>
      <trkpt lat="47.65439" lon="-2.99757">
        <ele>33.400001525879</ele>
        <time>2021-08-21T10:53:59.987Z</time>
      </trkpt>
      <trkpt lat="47.65453" lon="-2.99719">
        <ele>33.599998474121</ele>
        <time>2021-08-21T10:54:04.817Z</time>
      </trkpt>
      <trkpt lat="47.65465" lon="-2.99689">
        <ele>34.400001525879</ele>
        <time>2021-08-21T10:54:09.654Z</time>
      </trkpt>
      <trkpt lat="47.65478" lon="-2.99654">
        <ele>34.200000762939</ele>
        <time>2021-08-21T10:54:14.498Z</time>
      </trkpt>
      <trkpt lat="47.655" lon="-2.99614">
        <ele>33.599998474121</ele>
        <time>2021-08-21T10:54:19.351Z</time>
      </trkpt>
      <trkpt lat="47.65508" lon="-2.996">
        <ele>33</ele>
        <time>2021-08-21T10:54:24.208Z</time>
      </trkpt>
      <trkpt lat="47.65517" lon="-2.99579">
        <ele>33.400001525879</ele>
        <time>2021-08-21T10:54:29.069Z</time>
      </trkpt>
      <trkpt lat="47.65527" lon="-2.99553">
        <ele>33.799999237061</ele>
        <time>2021-08-21T10:54:33.936Z</time>
      </trkpt>
      <trkpt lat="47.65531" lon="-2.99543">
        <ele>34</ele>
        <time>2021-08-21T10:54:38.805Z</time>
      </trkpt>
      <trkpt lat="47.65533" lon="-2.99537">
        <ele>34</ele>
        <time>2021-08-21T10:54:43.675Z</time>
      </trkpt>
      <trkpt lat="47.65547" lon="-2.99501">
        <ele>34.400001525879</ele>
        <time>2021-08-21T10:54:48.553Z</time>
      </trkpt>
      <trkpt lat="47.65555" lon="-2.9948">
        <ele>35</ele>
        <time>2021-08-21T10:54:53.436Z</time>
      </trkpt>
      <trkpt lat="47.65564" lon="-2.99457">
        <ele>35.200000762939</ele>
        <time>2021-08-21T10:54:58.324Z</time>
      </trkpt>
      <trkpt lat="47.65569" lon="-2.99444">
        <ele>35.400001525879</ele>
        <time>2021-08-21T10:55:03.214Z</time>
      </trkpt>
      <trkpt lat="47.65577" lon="-2.99424">
        <ele>35.400001525879</ele>
        <time>2021-08-21T10:55:08.109Z</time>
      </trkpt>
      <trkpt lat="47.6558" lon="-2.99418">
        <ele>35.200000762939</ele>
        <time>2021-08-21T10:55:13.005Z</time>
      </trkpt>
      <trkpt lat="47.65584" lon="-2.99407">
        <ele>35</ele>
        <time>2021-08-21T10:55:17.903Z</time>
      </trkpt>
      <trkpt lat="47.65596" lon="-2.99376">
        <ele>34.400001525879</ele>
        <time>2021-08-21T10:55:22.808Z</time>
      </trkpt>
      <trkpt lat="47.65599" lon="-2.99368">
        <ele>34.599998474121</ele>
        <time>2021-08-21T10:55:27.715Z</time>
      </trkpt>
      <trkpt lat="47.656" lon="-2.9935">
        <ele>35</ele>
        <time>2021-08-21T10:55:32.625Z</time>
      </trkpt>
      <trkpt lat="47.65602" lon="-2.99325">
        <ele>36</ele>
        <time>2021-08-21T10:55:37.540Z</time>
      </trkpt>
      <trkpt lat="47.65607" lon="-2.99304">
        <ele>36.200000762939</ele>
        <time>2021-08-21T10:55:42.459Z</time>
      </trkpt>
      <trkpt lat="47.65587" lon="-2.99296">
        <ele>37</ele>
        <time>2021-08-21T10:55:47.383Z</time>
      </trkpt>
      <trkpt lat="47.65573" lon="-2.99291">
        <ele>37</ele>
        <time>2021-08-21T10:55:52.311Z</time>
      </trkpt>
      <trkpt lat="47.65572" lon="-2.99289">
        <ele>37</ele>
        <time>2021-08-21T10:55:57.240Z</time>
      </trkpt>
      <trkpt lat="47.65568" lon="-2.99281">
        <ele>36.599998474121</ele>
        <time>2021-08-21T10:56:02.171Z</time>
      </trkpt>
      <trkpt lat="47.65569" lon="-2.99266">
        <ele>36.599998474121</ele>
        <time>2021-08-21T10:56:07.105Z</time>
      </trkpt>
      <trkpt lat="47.65571" lon="-2.99245">
        <ele>35.599998474121</ele>
        <time>2021-08-21T10:56:12.042Z</time>
      </trkpt>
      <trkpt lat="47.65574" lon="-2.99231">
        <ele>34.599998474121</ele>
        <time>2021-08-21T10:56:16.982Z</time>
      </trkpt>
      <trkpt lat="47.65577" lon="-2.99212">
        <ele>32.799999237061</ele>
        <time>2021-08-21T10:56:21.926Z</time>
      </trkpt>
      <trkpt lat="47.65574" lon="-2.99194">
        <ele>31</ele>
        <time>2021-08-21T10:56:26.873Z</time>
      </trkpt>
      <trkpt lat="47.65571" lon="-2.99185">
        <ele>30.60000038147</ele>
        <time>2021-08-21T10:56:31.822Z</time>
      </trkpt>
      <trkpt lat="47.65562" lon="-2.99147">
        <ele>29.799999237061</ele>
        <time>2021-08-21T10:56:36.779Z</time>
      </trkpt>
      <trkpt lat="47.65562" lon="-2.99128">
        <ele>29</ele>
        <time>2021-08-21T10:56:41.739Z</time>
      </trkpt>
      <trkpt lat="47.65554" lon="-2.99123">
        <ele>29</ele>
        <time>2021-08-21T10:56:46.702Z</time>
      </trkpt>
      <trkpt lat="47.6555" lon="-2.9912">
        <ele>29</ele>
        <time>2021-08-21T10:56:51.666Z</time>
      </trkpt>
      <trkpt lat="47.6552" lon="-2.99102">
        <ele>28.60000038147</ele>
        <time>2021-08-21T10:56:56.639Z</time>
      </trkpt>
      <trkpt lat="47.65502" lon="-2.99089">
        <ele>27.60000038147</ele>
        <time>2021-08-21T10:57:01.617Z</time>
      </trkpt>
      <trkpt lat="47.65498" lon="-2.99084">
        <ele>27.39999961853</ele>
        <time>2021-08-21T10:57:06.597Z</time>
      </trkpt>
      <trkpt lat="47.65488" lon="-2.99076">
        <ele>26.60000038147</ele>
        <time>2021-08-21T10:57:11.580Z</time>
      </trkpt>
      <trkpt lat="47.65483" lon="-2.99078">
        <ele>26.60000038147</ele>
        <time>2021-08-21T10:57:16.564Z</time>
      </trkpt>
      <trkpt lat="47.65478" lon="-2.9908">
        <ele>26.39999961853</ele>
        <time>2021-08-21T10:57:21.550Z</time>
      </trkpt>
      <trkpt lat="47.65461" lon="-2.99088">
        <ele>26.200000762939</ele>
        <time>2021-08-21T10:57:26.540Z</time>
      </trkpt>
      <trkpt lat="47.6545" lon="-2.99093">
        <ele>26</ele>
        <time>2021-08-21T10:57:31.534Z</time>
      </trkpt>
      <trkpt lat="47.6544" lon="-2.99094">
        <ele>25.60000038147</ele>
        <time>2021-08-21T10:57:36.530Z</time>
      </trkpt>
      <trkpt lat="47.65429" lon="-2.99094">
        <ele>25.39999961853</ele>
        <time>2021-08-21T10:57:41.529Z</time>
      </trkpt>
      <trkpt lat="47.65414" lon="-2.99091">
        <ele>25</ele>
        <time>2021-08-21T10:57:46.533Z</time>
      </trkpt>
      <trkpt lat="47.65403" lon="-2.99088">
        <ele>25</ele>
        <time>2021-08-21T10:57:51.540Z</time>
      </trkpt>
      <trkpt lat="47.65391" lon="-2.99082">
        <ele>24.39999961853</ele>
        <time>2021-08-21T10:57:56.550Z</time>
      </trkpt>
      <trkpt lat="47.65383" lon="-2.9907">
        <ele>24</ele>
        <time>2021-08-21T10:58:01.563Z</time>
      </trkpt>
      <trkpt lat="47.6538" lon="-2.99061">
        <ele>23.60000038147</ele>
        <time>2021-08-21T10:58:06.578Z</time>
      </trkpt>
      <trkpt lat="47.65378" lon="-2.99051">
        <ele>23.200000762939</ele>
        <time>2021-08-21T10:58:11.595Z</time>
      </trkpt>
      <trkpt lat="47.65374" lon="-2.99027">
        <ele>21.60000038147</ele>
        <time>2021-08-21T10:58:16.617Z</time>
      </trkpt>
      <trkpt lat="47.65377" lon="-2.98989">
        <ele>19</ele>
        <time>2021-08-21T10:58:21.646Z</time>
      </trkpt>
      <trkpt lat="47.65378" lon="-2.98976">
        <ele>18.200000762939</ele>
        <time>2021-08-21T10:58:26.677Z</time>
      </trkpt>
      <trkpt lat="47.65383" lon="-2.98964">
        <ele>17.799999237061</ele>
        <time>2021-08-21T10:58:31.711Z</time>
      </trkpt>
      <trkpt lat="47.65395" lon="-2.98943">
        <ele>18</ele>
        <time>2021-08-21T10:58:36.750Z</time>
      </trkpt>
      <trkpt lat="47.65431" lon="-2.98875">
        <ele>15.39999961853</ele>
        <time>2021-08-21T10:58:41.805Z</time>
      </trkpt>
      <trkpt lat="47.65435" lon="-2.98865">
        <ele>15.199999809265</ele>
        <time>2021-08-21T10:58:46.862Z</time>
      </trkpt>
      <trkpt lat="47.65447" lon="-2.98838">
        <ele>14.60000038147</ele>
        <time>2021-08-21T10:58:51.925Z</time>
      </trkpt>
      <trkpt lat="47.65464" lon="-2.9877">
        <ele>15</ele>
        <time>2021-08-21T10:58:57.002Z</time>
      </trkpt>
      <trkpt lat="47.65476" lon="-2.9872">
        <ele>16</ele>
        <time>2021-08-21T10:59:02.088Z</time>
      </trkpt>
      <trkpt lat="47.6548" lon="-2.98697">
        <ele>16.200000762939</ele>
        <time>2021-08-21T10:59:07.179Z</time>
      </trkpt>
      <trkpt lat="47.65482" lon="-2.98681">
        <ele>16.200000762939</ele>
        <time>2021-08-21T10:59:12.273Z</time>
      </trkpt>
      <trkpt lat="47.65476" lon="-2.98665">
        <ele>16</ele>
        <time>2021-08-21T10:59:17.370Z</time>
      </trkpt>
      <trkpt lat="47.65471" lon="-2.98658">
        <ele>15.39999961853</ele>
        <time>2021-08-21T10:59:22.469Z</time>
      </trkpt>
      <trkpt lat="47.65466" lon="-2.98651">
        <ele>14.39999961853</ele>
        <time>2021-08-21T10:59:27.570Z</time>
      </trkpt>
      <trkpt lat="47.65445" lon="-2.98633">
        <ele>11</ele>
        <time>2021-08-21T10:59:32.678Z</time>
      </trkpt>
      <trkpt lat="47.65404" lon="-2.986">
        <ele>5</ele>
        <time>2021-08-21T10:59:37.798Z</time>
      </trkpt>
      <trkpt lat="47.65352" lon="-2.98558">
        <ele>6.8000001907349</ele>
        <time>2021-08-21T10:59:42.935Z</time>
      </trkpt>
      <trkpt lat="47.65343" lon="-2.98552">
        <ele>7.4000000953674</ele>
        <time>2021-08-21T10:59:48.074Z</time>
      </trkpt>
      <trkpt lat="47.65317" lon="-2.98526">
        <ele>10.199999809265</ele>
        <time>2021-08-21T10:59:53.222Z</time>
      </trkpt>
      <trkpt lat="47.65301" lon="-2.98504">
        <ele>11.60000038147</ele>
        <time>2021-08-21T10:59:58.376Z</time>
      </trkpt>
      <trkpt lat="47.65298" lon="-2.98499">
        <ele>12</ele>
        <time>2021-08-21T11:00:03.531Z</time>
      </trkpt>
      <trkpt lat="47.65284" lon="-2.98475">
        <ele>11.199999809265</ele>
        <time>2021-08-21T11:00:08.692Z</time>
      </trkpt>
      <trkpt lat="47.65276" lon="-2.98458">
        <ele>11</ele>
        <time>2021-08-21T11:00:13.857Z</time>
      </trkpt>
      <trkpt lat="47.65266" lon="-2.98437">
        <ele>11.39999961853</ele>
        <time>2021-08-21T11:00:19.027Z</time>
      </trkpt>
      <trkpt lat="47.65248" lon="-2.98429">
        <ele>11.199999809265</ele>
        <time>2021-08-21T11:00:24.202Z</time>
      </trkpt>
      <trkpt lat="47.65225" lon="-2.9844">
        <ele>12</ele>
        <time>2021-08-21T11:00:29.384Z</time>
      </trkpt>
      <trkpt lat="47.65213" lon="-2.98445">
        <ele>12.39999961853</ele>
        <time>2021-08-21T11:00:34.569Z</time>
      </trkpt>
      <trkpt lat="47.65206" lon="-2.98448">
        <ele>12.60000038147</ele>
        <time>2021-08-21T11:00:39.756Z</time>
      </trkpt>
      <trkpt lat="47.65195" lon="-2.98454">
        <ele>12.800000190735</ele>
        <time>2021-08-21T11:00:44.946Z</time>
      </trkpt>
      <trkpt lat="47.65172" lon="-2.98464">
        <ele>13.39999961853</ele>
        <time>2021-08-21T11:00:50.143Z</time>
      </trkpt>
      <trkpt lat="47.6515" lon="-2.98474">
        <ele>16.200000762939</ele>
        <time>2021-08-21T11:00:55.346Z</time>
      </trkpt>
      <trkpt lat="47.65129" lon="-2.9847">
        <ele>17.799999237061</ele>
        <time>2021-08-21T11:01:00.555Z</time>
      </trkpt>
      <trkpt lat="47.65127" lon="-2.98456">
        <ele>16.60000038147</ele>
        <time>2021-08-21T11:01:05.767Z</time>
      </trkpt>
      <trkpt lat="47.65122" lon="-2.98422">
        <ele>15</ele>
        <time>2021-08-21T11:01:10.985Z</time>
      </trkpt>
      <trkpt lat="47.65117" lon="-2.98374">
        <ele>12.800000190735</ele>
        <time>2021-08-21T11:01:16.212Z</time>
      </trkpt>
      <trkpt lat="47.65119" lon="-2.98347">
        <ele>10.800000190735</ele>
        <time>2021-08-21T11:01:21.444Z</time>
      </trkpt>
      <trkpt lat="47.65124" lon="-2.98336">
        <ele>9.8000001907349</ele>
        <time>2021-08-21T11:01:26.679Z</time>
      </trkpt>
      <trkpt lat="47.65129" lon="-2.98324">
        <ele>9</ele>
        <time>2021-08-21T11:01:31.916Z</time>
      </trkpt>
      <trkpt lat="47.65142" lon="-2.98283">
        <ele>6.8000001907349</ele>
        <time>2021-08-21T11:01:37.162Z</time>
      </trkpt>
      <trkpt lat="47.65142" lon="-2.98275">
        <ele>6.4000000953674</ele>
        <time>2021-08-21T11:01:42.409Z</time>
      </trkpt>
      <trkpt lat="47.65138" lon="-2.98252">
        <ele>5.5999999046326</ele>
        <time>2021-08-21T11:01:47.660Z</time>
      </trkpt>
      <trkpt lat="47.65133" lon="-2.98236">
        <ele>5.4000000953674</ele>
        <time>2021-08-21T11:01:52.915Z</time>
      </trkpt>
      <trkpt lat="47.65131" lon="-2.98228">
        <ele>5.8000001907349</ele>
        <time>2021-08-21T11:01:58.171Z</time>
      </trkpt>
      <trkpt lat="47.65128" lon="-2.98221">
        <ele>6</ele>
        <time>2021-08-21T11:02:03.429Z</time>
      </trkpt>
      <trkpt lat="47.65126" lon="-2.98218">
        <ele>6</ele>
        <time>2021-08-21T11:02:08.688Z</time>
      </trkpt>
      <trkpt lat="47.6512" lon="-2.98202">
        <ele>6</ele>
        <time>2021-08-21T11:02:13.950Z</time>
      </trkpt>
      <trkpt lat="47.65126" lon="-2.98216">
        <ele>6</ele>
        <time>2021-08-21T11:02:19.215Z</time>
      </trkpt>
      <trkpt lat="47.65127" lon="-2.98212">
        <ele>6</ele>
        <time>2021-08-21T11:02:24.481Z</time>
      </trkpt>
      <trkpt lat="47.65126" lon="-2.98214">
        <ele>6</ele>
        <time>2021-08-21T11:02:29.747Z</time>
      </trkpt>
      <trkpt lat="47.65126" lon="-2.98215">
        <ele>6</ele>
        <time>2021-08-21T11:02:35.014Z</time>
      </trkpt>
      <trkpt lat="47.65127" lon="-2.98218">
        <ele>6</ele>
        <time>2021-08-21T11:02:40.281Z</time>
      </trkpt>
      <trkpt lat="47.65128" lon="-2.98221">
        <ele>6</ele>
        <time>2021-08-21T11:02:45.549Z</time>
      </trkpt>
      <trkpt lat="47.6513" lon="-2.98227">
        <ele>5.8000001907349</ele>
        <time>2021-08-21T11:02:50.818Z</time>
      </trkpt>
      <trkpt lat="47.65131" lon="-2.9823">
        <ele>5.5999999046326</ele>
        <time>2021-08-21T11:02:56.088Z</time>
      </trkpt>
      <trkpt lat="47.65132" lon="-2.98231">
        <ele>5.5999999046326</ele>
        <time>2021-08-21T11:03:01.358Z</time>
      </trkpt>
      <trkpt lat="47.65135" lon="-2.98239">
        <ele>5.4000000953674</ele>
        <time>2021-08-21T11:03:06.630Z</time>
      </trkpt>
      <trkpt lat="47.65135" lon="-2.98239">
        <ele>5.4000000953674</ele>
        <time>2021-08-21T11:03:11.902Z</time>
      </trkpt>
      <trkpt lat="47.65138" lon="-2.98229">
        <ele>5.4000000953674</ele>
        <time>2021-08-21T11:03:17.176Z</time>
      </trkpt>
      <trkpt lat="47.65139" lon="-2.98202">
        <ele>6</ele>
        <time>2021-08-21T11:03:22.455Z</time>
      </trkpt>
      <trkpt lat="47.6514" lon="-2.98184">
        <ele>6</ele>
        <time>2021-08-21T11:03:27.737Z</time>
      </trkpt>
      <trkpt lat="47.65137" lon="-2.98173">
        <ele>6.1999998092651</ele>
        <time>2021-08-21T11:03:33.021Z</time>
      </trkpt>
      <trkpt lat="47.65131" lon="-2.98161">
        <ele>6.5999999046326</ele>
        <time>2021-08-21T11:03:38.308Z</time>
      </trkpt>
      <trkpt lat="47.6512" lon="-2.9815">
        <ele>7</ele>
        <time>2021-08-21T11:03:43.599Z</time>
      </trkpt>
      <trkpt lat="47.65082" lon="-2.98116">
        <ele>7.8000001907349</ele>
        <time>2021-08-21T11:03:48.902Z</time>
      </trkpt>
      <trkpt lat="47.6507" lon="-2.98106">
        <ele>9.6000003814697</ele>
        <time>2021-08-21T11:03:54.209Z</time>
      </trkpt>
      <trkpt lat="47.6506" lon="-2.98098">
        <ele>11</ele>
        <time>2021-08-21T11:03:59.519Z</time>
      </trkpt>
      <trkpt lat="47.65046" lon="-2.98085">
        <ele>13</ele>
        <time>2021-08-21T11:04:04.833Z</time>
      </trkpt>
      <trkpt lat="47.65034" lon="-2.98074">
        <ele>15.60000038147</ele>
        <time>2021-08-21T11:04:10.151Z</time>
      </trkpt>
      <trkpt lat="47.6502" lon="-2.98064">
        <ele>17.799999237061</ele>
        <time>2021-08-21T11:04:15.473Z</time>
      </trkpt>
      <trkpt lat="47.65009" lon="-2.98053">
        <ele>19.39999961853</ele>
        <time>2021-08-21T11:04:20.799Z</time>
      </trkpt>
      <trkpt lat="47.65001" lon="-2.98046">
        <ele>20.799999237061</ele>
        <time>2021-08-21T11:04:26.128Z</time>
      </trkpt>
      <trkpt lat="47.6499" lon="-2.98039">
        <ele>22.39999961853</ele>
        <time>2021-08-21T11:04:31.460Z</time>
      </trkpt>
      <trkpt lat="47.64983" lon="-2.98033">
        <ele>23.200000762939</ele>
        <time>2021-08-21T11:04:36.794Z</time>
      </trkpt>
      <trkpt lat="47.64972" lon="-2.98024">
        <ele>24</ele>
        <time>2021-08-21T11:04:42.132Z</time>
      </trkpt>
      <trkpt lat="47.64962" lon="-2.98015">
        <ele>24.200000762939</ele>
        <time>2021-08-21T11:04:47.473Z</time>
      </trkpt>
      <trkpt lat="47.64961" lon="-2.98013">
        <ele>24.200000762939</ele>
        <time>2021-08-21T11:04:52.814Z</time>
      </trkpt>
      <trkpt lat="47.64948" lon="-2.98007">
        <ele>24.60000038147</ele>
        <time>2021-08-21T11:04:58.159Z</time>
      </trkpt>
      <trkpt lat="47.64938" lon="-2.98004">
        <ele>25</ele>
        <time>2021-08-21T11:05:03.507Z</time>
      </trkpt>
      <trkpt lat="47.64935" lon="-2.98003">
        <ele>25.200000762939</ele>
        <time>2021-08-21T11:05:08.856Z</time>
      </trkpt>
      <trkpt lat="47.64934" lon="-2.98004">
        <ele>25.39999961853</ele>
        <time>2021-08-21T11:05:14.205Z</time>
      </trkpt>
      <trkpt lat="47.64932" lon="-2.98003">
        <ele>25.39999961853</ele>
        <time>2021-08-21T11:05:19.554Z</time>
      </trkpt>
      <trkpt lat="47.64922" lon="-2.98">
        <ele>25.60000038147</ele>
        <time>2021-08-21T11:05:24.906Z</time>
      </trkpt>
      <trkpt lat="47.64898" lon="-2.97994">
        <ele>25.39999961853</ele>
        <time>2021-08-21T11:05:30.265Z</time>
      </trkpt>
      <trkpt lat="47.64885" lon="-2.98">
        <ele>26.60000038147</ele>
        <time>2021-08-21T11:05:35.628Z</time>
      </trkpt>
      <trkpt lat="47.64876" lon="-2.98009">
        <ele>28</ele>
        <time>2021-08-21T11:05:40.994Z</time>
      </trkpt>
      <trkpt lat="47.64868" lon="-2.98019">
        <ele>29</ele>
        <time>2021-08-21T11:05:46.363Z</time>
      </trkpt>
      <trkpt lat="47.64864" lon="-2.98023">
        <ele>29.39999961853</ele>
        <time>2021-08-21T11:05:51.733Z</time>
      </trkpt>
      <trkpt lat="47.6486" lon="-2.98026">
        <ele>29.799999237061</ele>
        <time>2021-08-21T11:05:57.104Z</time>
      </trkpt>
      <trkpt lat="47.64845" lon="-2.98039">
        <ele>31.39999961853</ele>
        <time>2021-08-21T11:06:02.480Z</time>
      </trkpt>
      <trkpt lat="47.6483" lon="-2.98054">
        <ele>32.799999237061</ele>
        <time>2021-08-21T11:06:07.861Z</time>
      </trkpt>
      <trkpt lat="47.6482" lon="-2.98063">
        <ele>33.400001525879</ele>
        <time>2021-08-21T11:06:13.245Z</time>
      </trkpt>
      <trkpt lat="47.64808" lon="-2.98074">
        <ele>34</ele>
        <time>2021-08-21T11:06:18.633Z</time>
      </trkpt>
      <trkpt lat="47.64796" lon="-2.98081">
        <ele>34.400001525879</ele>
        <time>2021-08-21T11:06:24.024Z</time>
      </trkpt>
      <trkpt lat="47.64779" lon="-2.98089">
        <ele>34.400001525879</ele>
        <time>2021-08-21T11:06:29.421Z</time>
      </trkpt>
      <trkpt lat="47.64759" lon="-2.981">
        <ele>34.200000762939</ele>
        <time>2021-08-21T11:06:34.823Z</time>
      </trkpt>
      <trkpt lat="47.6473" lon="-2.98111">
        <ele>33</ele>
        <time>2021-08-21T11:06:40.233Z</time>
      </trkpt>
      <trkpt lat="47.64709" lon="-2.98122">
        <ele>33.200000762939</ele>
        <time>2021-08-21T11:06:45.650Z</time>
      </trkpt>
      <trkpt lat="47.64691" lon="-2.98131">
        <ele>34</ele>
        <time>2021-08-21T11:06:51.072Z</time>
      </trkpt>
      <trkpt lat="47.64668" lon="-2.98145">
        <ele>36.200000762939</ele>
        <time>2021-08-21T11:06:56.501Z</time>
      </trkpt>
      <trkpt lat="47.64651" lon="-2.98158">
        <ele>36.599998474121</ele>
        <time>2021-08-21T11:07:01.935Z</time>
      </trkpt>
      <trkpt lat="47.64636" lon="-2.98167">
        <ele>35.799999237061</ele>
        <time>2021-08-21T11:07:07.374Z</time>
      </trkpt>
      <trkpt lat="47.64627" lon="-2.98172">
        <ele>35</ele>
        <time>2021-08-21T11:07:12.815Z</time>
      </trkpt>
      <trkpt lat="47.64594" lon="-2.98186">
        <ele>32.599998474121</ele>
        <time>2021-08-21T11:07:18.265Z</time>
      </trkpt>
      <trkpt lat="47.64563" lon="-2.98198">
        <ele>32.799999237061</ele>
        <time>2021-08-21T11:07:23.724Z</time>
      </trkpt>
      <trkpt lat="47.64532" lon="-2.98213">
        <ele>33</ele>
        <time>2021-08-21T11:07:29.192Z</time>
      </trkpt>
      <trkpt lat="47.64503" lon="-2.98226">
        <ele>33.400001525879</ele>
        <time>2021-08-21T11:07:34.669Z</time>
      </trkpt>
      <trkpt lat="47.64473" lon="-2.98229">
        <ele>33.200000762939</ele>
        <time>2021-08-21T11:07:40.154Z</time>
      </trkpt>
      <trkpt lat="47.64463" lon="-2.98241">
        <ele>32.200000762939</ele>
        <time>2021-08-21T11:07:45.642Z</time>
      </trkpt>
      <trkpt lat="47.6446" lon="-2.98249">
        <ele>31.39999961853</ele>
        <time>2021-08-21T11:07:51.132Z</time>
      </trkpt>
      <trkpt lat="47.64431" lon="-2.98309">
        <ele>30</ele>
        <time>2021-08-21T11:07:56.636Z</time>
      </trkpt>
      <trkpt lat="47.64404" lon="-2.98352">
        <ele>28.200000762939</ele>
        <time>2021-08-21T11:08:02.151Z</time>
      </trkpt>
      <trkpt lat="47.64392" lon="-2.98354">
        <ele>27.799999237061</ele>
        <time>2021-08-21T11:08:07.669Z</time>
      </trkpt>
      <trkpt lat="47.64386" lon="-2.98354">
        <ele>27.60000038147</ele>
        <time>2021-08-21T11:08:13.189Z</time>
      </trkpt>
      <trkpt lat="47.64337" lon="-2.9836">
        <ele>26</ele>
        <time>2021-08-21T11:08:18.722Z</time>
      </trkpt>
      <trkpt lat="47.6428" lon="-2.98369">
        <ele>24.200000762939</ele>
        <time>2021-08-21T11:08:24.271Z</time>
      </trkpt>
      <trkpt lat="47.64268" lon="-2.98369">
        <ele>23.799999237061</ele>
        <time>2021-08-21T11:08:29.823Z</time>
      </trkpt>
      <trkpt lat="47.64247" lon="-2.98366">
        <ele>24</ele>
        <time>2021-08-21T11:08:35.381Z</time>
      </trkpt>
      <trkpt lat="47.64242" lon="-2.98365">
        <ele>24</ele>
        <time>2021-08-21T11:08:40.940Z</time>
      </trkpt>
      <trkpt lat="47.64216" lon="-2.98363">
        <ele>23.60000038147</ele>
        <time>2021-08-21T11:08:46.507Z</time>
      </trkpt>
      <trkpt lat="47.64205" lon="-2.9836">
        <ele>23.60000038147</ele>
        <time>2021-08-21T11:08:52.076Z</time>
      </trkpt>
      <trkpt lat="47.64185" lon="-2.98352">
        <ele>23</ele>
        <time>2021-08-21T11:08:57.651Z</time>
      </trkpt>
      <trkpt lat="47.64155" lon="-2.98338">
        <ele>21.200000762939</ele>
        <time>2021-08-21T11:09:03.235Z</time>
      </trkpt>
      <trkpt lat="47.64113" lon="-2.98309">
        <ele>20</ele>
        <time>2021-08-21T11:09:08.831Z</time>
      </trkpt>
      <trkpt lat="47.64076" lon="-2.98277">
        <ele>19.60000038147</ele>
        <time>2021-08-21T11:09:14.439Z</time>
      </trkpt>
      <trkpt lat="47.64072" lon="-2.98269">
        <ele>19.799999237061</ele>
        <time>2021-08-21T11:09:20.049Z</time>
      </trkpt>
      <trkpt lat="47.64057" lon="-2.9823">
        <ele>20.200000762939</ele>
        <time>2021-08-21T11:09:25.668Z</time>
      </trkpt>
      <trkpt lat="47.64043" lon="-2.98191">
        <ele>22</ele>
        <time>2021-08-21T11:09:31.295Z</time>
      </trkpt>
      <trkpt lat="47.64027" lon="-2.98156">
        <ele>22.60000038147</ele>
        <time>2021-08-21T11:09:36.930Z</time>
      </trkpt>
      <trkpt lat="47.64021" lon="-2.98146">
        <ele>22.60000038147</ele>
        <time>2021-08-21T11:09:42.567Z</time>
      </trkpt>
      <trkpt lat="47.6401" lon="-2.98145">
        <ele>21.799999237061</ele>
        <time>2021-08-21T11:09:48.207Z</time>
      </trkpt>
      <trkpt lat="47.63992" lon="-2.9815">
        <ele>20.60000038147</ele>
        <time>2021-08-21T11:09:53.852Z</time>
      </trkpt>
      <trkpt lat="47.6395" lon="-2.98158">
        <ele>18.799999237061</ele>
        <time>2021-08-21T11:09:59.509Z</time>
      </trkpt>
      <trkpt lat="47.63944" lon="-2.98157">
        <ele>19</ele>
        <time>2021-08-21T11:10:05.167Z</time>
      </trkpt>
      <trkpt lat="47.63919" lon="-2.98143">
        <ele>20</ele>
        <time>2021-08-21T11:10:10.833Z</time>
      </trkpt>
      <trkpt lat="47.63899" lon="-2.9813">
        <ele>20</ele>
        <time>2021-08-21T11:10:16.505Z</time>
      </trkpt>
      <trkpt lat="47.63893" lon="-2.98122">
        <ele>20</ele>
        <time>2021-08-21T11:10:22.179Z</time>
      </trkpt>
      <trkpt lat="47.63884" lon="-2.98108">
        <ele>19.60000038147</ele>
        <time>2021-08-21T11:10:27.856Z</time>
      </trkpt>
      <trkpt lat="47.63871" lon="-2.98089">
        <ele>18.60000038147</ele>
        <time>2021-08-21T11:10:33.538Z</time>
      </trkpt>
      <trkpt lat="47.63859" lon="-2.98081">
        <ele>18</ele>
        <time>2021-08-21T11:10:39.224Z</time>
      </trkpt>
      <trkpt lat="47.63829" lon="-2.9807">
        <ele>15.39999961853</ele>
        <time>2021-08-21T11:10:44.918Z</time>
      </trkpt>
      <trkpt lat="47.63785" lon="-2.98054">
        <ele>12.199999809265</ele>
        <time>2021-08-21T11:10:50.625Z</time>
      </trkpt>
      <trkpt lat="47.6373" lon="-2.98034">
        <ele>9.3999996185303</ele>
        <time>2021-08-21T11:10:56.348Z</time>
      </trkpt>
      <trkpt lat="47.63693" lon="-2.9803">
        <ele>10.60000038147</ele>
        <time>2021-08-21T11:11:02.081Z</time>
      </trkpt>
      <trkpt lat="47.63666" lon="-2.98027">
        <ele>13.39999961853</ele>
        <time>2021-08-21T11:11:07.821Z</time>
      </trkpt>
      <trkpt lat="47.63651" lon="-2.98026">
        <ele>15.39999961853</ele>
        <time>2021-08-21T11:11:13.565Z</time>
      </trkpt>
      <trkpt lat="47.63646" lon="-2.98026">
        <ele>16</ele>
        <time>2021-08-21T11:11:19.310Z</time>
      </trkpt>
      <trkpt lat="47.63623" lon="-2.98033">
        <ele>18.39999961853</ele>
        <time>2021-08-21T11:11:25.062Z</time>
      </trkpt>
      <trkpt lat="47.63619" lon="-2.98035">
        <ele>18.799999237061</ele>
        <time>2021-08-21T11:11:30.815Z</time>
      </trkpt>
      <trkpt lat="47.63614" lon="-2.98038">
        <ele>19</ele>
        <time>2021-08-21T11:11:36.570Z</time>
      </trkpt>
      <trkpt lat="47.63599" lon="-2.98045">
        <ele>19</ele>
        <time>2021-08-21T11:11:42.329Z</time>
      </trkpt>
      <trkpt lat="47.63591" lon="-2.98052">
        <ele>19</ele>
        <time>2021-08-21T11:11:48.091Z</time>
      </trkpt>
      <trkpt lat="47.63582" lon="-2.98059">
        <ele>18.60000038147</ele>
        <time>2021-08-21T11:11:53.855Z</time>
      </trkpt>
      <trkpt lat="47.63569" lon="-2.9807">
        <ele>17.60000038147</ele>
        <time>2021-08-21T11:11:59.623Z</time>
      </trkpt>
      <trkpt lat="47.63556" lon="-2.98081">
        <ele>16.799999237061</ele>
        <time>2021-08-21T11:12:05.396Z</time>
      </trkpt>
      <trkpt lat="47.63525" lon="-2.98108">
        <ele>16</ele>
        <time>2021-08-21T11:12:11.178Z</time>
      </trkpt>
      <trkpt lat="47.63517" lon="-2.98114">
        <ele>15.60000038147</ele>
        <time>2021-08-21T11:12:16.963Z</time>
      </trkpt>
      <trkpt lat="47.6351" lon="-2.98125">
        <ele>15.39999961853</ele>
        <time>2021-08-21T11:12:22.751Z</time>
      </trkpt>
      <trkpt lat="47.63502" lon="-2.98144">
        <ele>16.39999961853</ele>
        <time>2021-08-21T11:12:28.543Z</time>
      </trkpt>
      <trkpt lat="47.6349" lon="-2.98173">
        <ele>18.799999237061</ele>
        <time>2021-08-21T11:12:34.341Z</time>
      </trkpt>
      <trkpt lat="47.63488" lon="-2.98179">
        <ele>19.200000762939</ele>
        <time>2021-08-21T11:12:40.140Z</time>
      </trkpt>
      <trkpt lat="47.63478" lon="-2.98201">
        <ele>19.799999237061</ele>
        <time>2021-08-21T11:12:45.944Z</time>
      </trkpt>
      <trkpt lat="47.63461" lon="-2.98244">
        <ele>19.39999961853</ele>
        <time>2021-08-21T11:12:51.757Z</time>
      </trkpt>
      <trkpt lat="47.63439" lon="-2.98297">
        <ele>17.60000038147</ele>
        <time>2021-08-21T11:12:57.582Z</time>
      </trkpt>
      <trkpt lat="47.63434" lon="-2.98307">
        <ele>17.39999961853</ele>
        <time>2021-08-21T11:13:03.409Z</time>
      </trkpt>
      <trkpt lat="47.63429" lon="-2.98326">
        <ele>17.60000038147</ele>
        <time>2021-08-21T11:13:09.240Z</time>
      </trkpt>
      <trkpt lat="47.63454" lon="-2.98365">
        <ele>18</ele>
        <time>2021-08-21T11:13:15.081Z</time>
      </trkpt>
      <trkpt lat="47.63456" lon="-2.98371">
        <ele>18</ele>
        <time>2021-08-21T11:13:20.923Z</time>
      </trkpt>
      <trkpt lat="47.63465" lon="-2.98401">
        <ele>18.39999961853</ele>
        <time>2021-08-21T11:13:26.771Z</time>
      </trkpt>
      <trkpt lat="47.63479" lon="-2.98451">
        <ele>18.799999237061</ele>
        <time>2021-08-21T11:13:32.629Z</time>
      </trkpt>
      <trkpt lat="47.6348" lon="-2.98464">
        <ele>19</ele>
        <time>2021-08-21T11:13:38.490Z</time>
      </trkpt>
      <trkpt lat="47.63481" lon="-2.98484">
        <ele>19</ele>
        <time>2021-08-21T11:13:44.355Z</time>
      </trkpt>
      <trkpt lat="47.63484" lon="-2.98533">
        <ele>19.799999237061</ele>
        <time>2021-08-21T11:13:50.229Z</time>
      </trkpt>
      <trkpt lat="47.63495" lon="-2.98582">
        <ele>20.799999237061</ele>
        <time>2021-08-21T11:13:56.112Z</time>
      </trkpt>
      <trkpt lat="47.63517" lon="-2.98642">
        <ele>23.200000762939</ele>
        <time>2021-08-21T11:14:02.008Z</time>
      </trkpt>
      <trkpt lat="47.63541" lon="-2.98693">
        <ele>23.799999237061</ele>
        <time>2021-08-21T11:14:07.915Z</time>
      </trkpt>
      <trkpt lat="47.63548" lon="-2.98706">
        <ele>23.799999237061</ele>
        <time>2021-08-21T11:14:13.825Z</time>
      </trkpt>
      <trkpt lat="47.63551" lon="-2.98712">
        <ele>23.60000038147</ele>
        <time>2021-08-21T11:14:19.737Z</time>
      </trkpt>
      <trkpt lat="47.63546" lon="-2.98725">
        <ele>24</ele>
        <time>2021-08-21T11:14:25.652Z</time>
      </trkpt>
      <trkpt lat="47.63538" lon="-2.98742">
        <ele>24.60000038147</ele>
        <time>2021-08-21T11:14:31.570Z</time>
      </trkpt>
      <trkpt lat="47.63524" lon="-2.98771">
        <ele>24.799999237061</ele>
        <time>2021-08-21T11:14:37.495Z</time>
      </trkpt>
      <trkpt lat="47.63513" lon="-2.98794">
        <ele>24</ele>
        <time>2021-08-21T11:14:43.425Z</time>
      </trkpt>
      <trkpt lat="47.63504" lon="-2.98813">
        <ele>24</ele>
        <time>2021-08-21T11:14:49.360Z</time>
      </trkpt>
      <trkpt lat="47.63494" lon="-2.98834">
        <ele>23.200000762939</ele>
        <time>2021-08-21T11:14:55.299Z</time>
      </trkpt>
      <trkpt lat="47.63483" lon="-2.98853">
        <ele>22.60000038147</ele>
        <time>2021-08-21T11:15:01.243Z</time>
      </trkpt>
      <trkpt lat="47.63447" lon="-2.98867">
        <ele>24.60000038147</ele>
        <time>2021-08-21T11:15:07.197Z</time>
      </trkpt>
      <trkpt lat="47.63414" lon="-2.98879">
        <ele>26.200000762939</ele>
        <time>2021-08-21T11:15:13.160Z</time>
      </trkpt>
      <trkpt lat="47.63397" lon="-2.98882">
        <ele>26.200000762939</ele>
        <time>2021-08-21T11:15:19.128Z</time>
      </trkpt>
      <trkpt lat="47.63382" lon="-2.98883">
        <ele>26.60000038147</ele>
        <time>2021-08-21T11:15:25.100Z</time>
      </trkpt>
      <trkpt lat="47.63372" lon="-2.98882">
        <ele>27</ele>
        <time>2021-08-21T11:15:31.075Z</time>
      </trkpt>
      <trkpt lat="47.63362" lon="-2.9888">
        <ele>27.200000762939</ele>
        <time>2021-08-21T11:15:37.053Z</time>
      </trkpt>
      <trkpt lat="47.6334" lon="-2.98877">
        <ele>26.200000762939</ele>
        <time>2021-08-21T11:15:43.037Z</time>
      </trkpt>
      <trkpt lat="47.63322" lon="-2.98871">
        <ele>26</ele>
        <time>2021-08-21T11:15:49.026Z</time>
      </trkpt>
      <trkpt lat="47.63309" lon="-2.98866">
        <ele>26</ele>
        <time>2021-08-21T11:15:55.019Z</time>
      </trkpt>
      <trkpt lat="47.63292" lon="-2.98859">
        <ele>26</ele>
        <time>2021-08-21T11:16:01.016Z</time>
      </trkpt>
      <trkpt lat="47.63272" lon="-2.98851">
        <ele>26</ele>
        <time>2021-08-21T11:16:07.019Z</time>
      </trkpt>
      <trkpt lat="47.6326" lon="-2.98846">
        <ele>26</ele>
        <time>2021-08-21T11:16:13.026Z</time>
      </trkpt>
      <trkpt lat="47.63258" lon="-2.98845">
        <ele>26</ele>
        <time>2021-08-21T11:16:19.033Z</time>
      </trkpt>
      <trkpt lat="47.63246" lon="-2.98841">
        <ele>26.200000762939</ele>
        <time>2021-08-21T11:16:25.043Z</time>
      </trkpt>
      <trkpt lat="47.63228" lon="-2.98834">
        <ele>26</ele>
        <time>2021-08-21T11:16:31.059Z</time>
      </trkpt>
      <trkpt lat="47.63212" lon="-2.98827">
        <ele>25</ele>
        <time>2021-08-21T11:16:37.079Z</time>
      </trkpt>
      <trkpt lat="47.6319" lon="-2.98818">
        <ele>24.39999961853</ele>
        <time>2021-08-21T11:16:43.105Z</time>
      </trkpt>
      <trkpt lat="47.63181" lon="-2.98815">
        <ele>24.799999237061</ele>
        <time>2021-08-21T11:16:49.134Z</time>
      </trkpt>
      <trkpt lat="47.63158" lon="-2.98806">
        <ele>25.39999961853</ele>
        <time>2021-08-21T11:16:55.169Z</time>
      </trkpt>
      <trkpt lat="47.63142" lon="-2.98799">
        <ele>25.799999237061</ele>
        <time>2021-08-21T11:17:01.209Z</time>
      </trkpt>
      <trkpt lat="47.6312" lon="-2.98791">
        <ele>26</ele>
        <time>2021-08-21T11:17:07.255Z</time>
      </trkpt>
      <trkpt lat="47.63098" lon="-2.98782">
        <ele>26.60000038147</ele>
        <time>2021-08-21T11:17:13.308Z</time>
      </trkpt>
      <trkpt lat="47.63073" lon="-2.98772">
        <ele>26.60000038147</ele>
        <time>2021-08-21T11:17:19.367Z</time>
      </trkpt>
      <trkpt lat="47.63068" lon="-2.9877">
        <ele>26.39999961853</ele>
        <time>2021-08-21T11:17:25.428Z</time>
      </trkpt>
      <trkpt lat="47.63052" lon="-2.98764">
        <ele>25.60000038147</ele>
        <time>2021-08-21T11:17:31.494Z</time>
      </trkpt>
      <trkpt lat="47.63028" lon="-2.98754">
        <ele>24.39999961853</ele>
        <time>2021-08-21T11:17:37.567Z</time>
      </trkpt>
      <trkpt lat="47.63019" lon="-2.98751">
        <ele>24.39999961853</ele>
        <time>2021-08-21T11:17:43.642Z</time>
      </trkpt>
      <trkpt lat="47.6298" lon="-2.98734">
        <ele>24.799999237061</ele>
        <time>2021-08-21T11:17:49.728Z</time>
      </trkpt>
      <trkpt lat="47.62976" lon="-2.98732">
        <ele>25</ele>
        <time>2021-08-21T11:17:55.815Z</time>
      </trkpt>
      <trkpt lat="47.62956" lon="-2.98722">
        <ele>25.200000762939</ele>
        <time>2021-08-21T11:18:01.908Z</time>
      </trkpt>
      <trkpt lat="47.62948" lon="-2.98718">
        <ele>25.60000038147</ele>
        <time>2021-08-21T11:18:08.003Z</time>
      </trkpt>
      <trkpt lat="47.62911" lon="-2.987">
        <ele>25</ele>
        <time>2021-08-21T11:18:14.109Z</time>
      </trkpt>
      <trkpt lat="47.62874" lon="-2.98681">
        <ele>25.799999237061</ele>
        <time>2021-08-21T11:18:20.226Z</time>
      </trkpt>
      <trkpt lat="47.6284" lon="-2.98664">
        <ele>27.799999237061</ele>
        <time>2021-08-21T11:18:26.353Z</time>
      </trkpt>
      <trkpt lat="47.62836" lon="-2.98662">
        <ele>27.60000038147</ele>
        <time>2021-08-21T11:18:32.481Z</time>
      </trkpt>
      <trkpt lat="47.62826" lon="-2.98657">
        <ele>27.60000038147</ele>
        <time>2021-08-21T11:18:38.612Z</time>
      </trkpt>
      <trkpt lat="47.62817" lon="-2.98653">
        <ele>27.799999237061</ele>
        <time>2021-08-21T11:18:44.745Z</time>
      </trkpt>
      <trkpt lat="47.62804" lon="-2.98646">
        <ele>27.200000762939</ele>
        <time>2021-08-21T11:18:50.882Z</time>
      </trkpt>
      <trkpt lat="47.62791" lon="-2.9864">
        <ele>25.799999237061</ele>
        <time>2021-08-21T11:18:57.023Z</time>
      </trkpt>
      <trkpt lat="47.62777" lon="-2.98633">
        <ele>25</ele>
        <time>2021-08-21T11:19:03.168Z</time>
      </trkpt>
      <trkpt lat="47.62768" lon="-2.98628">
        <ele>24.60000038147</ele>
        <time>2021-08-21T11:19:09.316Z</time>
      </trkpt>
      <trkpt lat="47.62732" lon="-2.9861">
        <ele>24</ele>
        <time>2021-08-21T11:19:15.474Z</time>
      </trkpt>
      <trkpt lat="47.62712" lon="-2.986">
        <ele>24.200000762939</ele>
        <time>2021-08-21T11:19:21.638Z</time>
      </trkpt>
      <trkpt lat="47.62702" lon="-2.98595">
        <ele>24</ele>
        <time>2021-08-21T11:19:27.805Z</time>
      </trkpt>
      <trkpt lat="47.6268" lon="-2.98584">
        <ele>24</ele>
        <time>2021-08-21T11:19:33.978Z</time>
      </trkpt>
      <trkpt lat="47.62669" lon="-2.98579">
        <ele>24</ele>
        <time>2021-08-21T11:19:40.154Z</time>
      </trkpt>
      <trkpt lat="47.62658" lon="-2.98573">
        <ele>23.60000038147</ele>
        <time>2021-08-21T11:19:46.333Z</time>
      </trkpt>
      <trkpt lat="47.62653" lon="-2.98571">
        <ele>23.39999961853</ele>
        <time>2021-08-21T11:19:52.514Z</time>
      </trkpt>
      <trkpt lat="47.62642" lon="-2.98568">
        <ele>23</ele>
        <time>2021-08-21T11:19:58.698Z</time>
      </trkpt>
      <trkpt lat="47.62628" lon="-2.98565">
        <ele>23</ele>
        <time>2021-08-21T11:20:04.886Z</time>
      </trkpt>
      <trkpt lat="47.62604" lon="-2.98559">
        <ele>22.200000762939</ele>
        <time>2021-08-21T11:20:11.080Z</time>
      </trkpt>
      <trkpt lat="47.62599" lon="-2.98558">
        <ele>22</ele>
        <time>2021-08-21T11:20:17.276Z</time>
      </trkpt>
      <trkpt lat="47.62583" lon="-2.98554">
        <ele>21.39999961853</ele>
        <time>2021-08-21T11:20:23.476Z</time>
      </trkpt>
      <trkpt lat="47.62572" lon="-2.98549">
        <ele>21</ele>
        <time>2021-08-21T11:20:29.679Z</time>
      </trkpt>
      <trkpt lat="47.62564" lon="-2.98545">
        <ele>21</ele>
        <time>2021-08-21T11:20:35.885Z</time>
      </trkpt>
      <trkpt lat="47.62555" lon="-2.98542">
        <ele>21.200000762939</ele>
        <time>2021-08-21T11:20:42.093Z</time>
      </trkpt>
      <trkpt lat="47.62551" lon="-2.9854">
        <ele>21.39999961853</ele>
        <time>2021-08-21T11:20:48.302Z</time>
      </trkpt>
      <trkpt lat="47.62542" lon="-2.98536">
        <ele>21.799999237061</ele>
        <time>2021-08-21T11:20:54.514Z</time>
      </trkpt>
      <trkpt lat="47.62538" lon="-2.98534">
        <ele>22</ele>
        <time>2021-08-21T11:21:00.727Z</time>
      </trkpt>
      <trkpt lat="47.62535" lon="-2.98533">
        <ele>22.200000762939</ele>
        <time>2021-08-21T11:21:06.941Z</time>
      </trkpt>
      <trkpt lat="47.62522" lon="-2.98527">
        <ele>22.799999237061</ele>
        <time>2021-08-21T11:21:13.159Z</time>
      </trkpt>
      <trkpt lat="47.62518" lon="-2.98525">
        <ele>23</ele>
        <time>2021-08-21T11:21:19.378Z</time>
      </trkpt>
      <trkpt lat="47.62507" lon="-2.98521">
        <ele>23.60000038147</ele>
        <time>2021-08-21T11:21:25.600Z</time>
      </trkpt>
      <trkpt lat="47.62503" lon="-2.98519">
        <ele>23.799999237061</ele>
        <time>2021-08-21T11:21:31.823Z</time>
      </trkpt>
      <trkpt lat="47.62498" lon="-2.98517">
        <ele>23.799999237061</ele>
        <time>2021-08-21T11:21:38.048Z</time>
      </trkpt>
      <trkpt lat="47.6248" lon="-2.98509">
        <ele>24.200000762939</ele>
        <time>2021-08-21T11:21:44.278Z</time>
      </trkpt>
      <trkpt lat="47.62463" lon="-2.98501">
        <ele>24</ele>
        <time>2021-08-21T11:21:50.513Z</time>
      </trkpt>
      <trkpt lat="47.62458" lon="-2.98499">
        <ele>23.799999237061</ele>
        <time>2021-08-21T11:21:56.749Z</time>
      </trkpt>
      <trkpt lat="47.62448" lon="-2.98495">
        <ele>23.60000038147</ele>
        <time>2021-08-21T11:22:02.988Z</time>
      </trkpt>
      <trkpt lat="47.62443" lon="-2.98492">
        <ele>23.799999237061</ele>
        <time>2021-08-21T11:22:09.228Z</time>
      </trkpt>
      <trkpt lat="47.62438" lon="-2.9849">
        <ele>23.799999237061</ele>
        <time>2021-08-21T11:22:15.470Z</time>
      </trkpt>
      <trkpt lat="47.62421" lon="-2.98479">
        <ele>24</ele>
        <time>2021-08-21T11:22:21.717Z</time>
      </trkpt>
      <trkpt lat="47.62405" lon="-2.98469">
        <ele>23.60000038147</ele>
        <time>2021-08-21T11:22:27.969Z</time>
      </trkpt>
      <trkpt lat="47.62389" lon="-2.98458">
        <ele>23.799999237061</ele>
        <time>2021-08-21T11:22:34.225Z</time>
      </trkpt>
      <trkpt lat="47.62374" lon="-2.98454">
        <ele>23.39999961853</ele>
        <time>2021-08-21T11:22:40.486Z</time>
      </trkpt>
      <trkpt lat="47.6236" lon="-2.9845">
        <ele>23.39999961853</ele>
        <time>2021-08-21T11:22:46.751Z</time>
      </trkpt>
      <trkpt lat="47.62353" lon="-2.98448">
        <ele>23.200000762939</ele>
        <time>2021-08-21T11:22:53.017Z</time>
      </trkpt>
      <trkpt lat="47.62313" lon="-2.98438">
        <ele>22</ele>
        <time>2021-08-21T11:22:59.295Z</time>
      </trkpt>
      <trkpt lat="47.62279" lon="-2.98425">
        <ele>20.200000762939</ele>
        <time>2021-08-21T11:23:05.582Z</time>
      </trkpt>
      <trkpt lat="47.62263" lon="-2.98417">
        <ele>20.200000762939</ele>
        <time>2021-08-21T11:23:11.874Z</time>
      </trkpt>
      <trkpt lat="47.62243" lon="-2.98408">
        <ele>20.799999237061</ele>
        <time>2021-08-21T11:23:18.172Z</time>
      </trkpt>
      <trkpt lat="47.62232" lon="-2.98403">
        <ele>21</ele>
        <time>2021-08-21T11:23:24.473Z</time>
      </trkpt>
      <trkpt lat="47.62214" lon="-2.98393">
        <ele>21.60000038147</ele>
        <time>2021-08-21T11:23:30.779Z</time>
      </trkpt>
      <trkpt lat="47.62211" lon="-2.98391">
        <ele>21.799999237061</ele>
        <time>2021-08-21T11:23:37.086Z</time>
      </trkpt>
      <trkpt lat="47.62199" lon="-2.98387">
        <ele>22</ele>
        <time>2021-08-21T11:23:43.396Z</time>
      </trkpt>
      <trkpt lat="47.62184" lon="-2.98382">
        <ele>22.799999237061</ele>
        <time>2021-08-21T11:23:49.711Z</time>
      </trkpt>
      <trkpt lat="47.62168" lon="-2.98376">
        <ele>22.799999237061</ele>
        <time>2021-08-21T11:23:56.030Z</time>
      </trkpt>
      <trkpt lat="47.62147" lon="-2.98369">
        <ele>22.39999961853</ele>
        <time>2021-08-21T11:24:02.355Z</time>
      </trkpt>
      <trkpt lat="47.62144" lon="-2.98368">
        <ele>22.39999961853</ele>
        <time>2021-08-21T11:24:08.681Z</time>
      </trkpt>
      <trkpt lat="47.62136" lon="-2.98365">
        <ele>21.799999237061</ele>
        <time>2021-08-21T11:24:15.009Z</time>
      </trkpt>
      <trkpt lat="47.62121" lon="-2.9836">
        <ele>21</ele>
        <time>2021-08-21T11:24:21.341Z</time>
      </trkpt>
      <trkpt lat="47.62106" lon="-2.98355">
        <ele>20.799999237061</ele>
        <time>2021-08-21T11:24:27.678Z</time>
      </trkpt>
      <trkpt lat="47.62084" lon="-2.98347">
        <ele>21</ele>
        <time>2021-08-21T11:24:34.021Z</time>
      </trkpt>
      <trkpt lat="47.62068" lon="-2.98341">
        <ele>21</ele>
        <time>2021-08-21T11:24:40.368Z</time>
      </trkpt>
      <trkpt lat="47.6206" lon="-2.98338">
        <ele>21</ele>
        <time>2021-08-21T11:24:46.718Z</time>
      </trkpt>
      <trkpt lat="47.62038" lon="-2.98331">
        <ele>19.39999961853</ele>
        <time>2021-08-21T11:24:53.074Z</time>
      </trkpt>
      <trkpt lat="47.62029" lon="-2.98328">
        <ele>19</ele>
        <time>2021-08-21T11:24:59.432Z</time>
      </trkpt>
      <trkpt lat="47.62023" lon="-2.98327">
        <ele>18.799999237061</ele>
        <time>2021-08-21T11:25:05.792Z</time>
      </trkpt>
      <trkpt lat="47.62018" lon="-2.98326">
        <ele>18.39999961853</ele>
        <time>2021-08-21T11:25:12.153Z</time>
      </trkpt>
      <trkpt lat="47.6201" lon="-2.98325">
        <ele>17.60000038147</ele>
        <time>2021-08-21T11:25:18.517Z</time>
      </trkpt>
      <trkpt lat="47.62005" lon="-2.98324">
        <ele>17.39999961853</ele>
        <time>2021-08-21T11:25:24.882Z</time>
      </trkpt>
      <trkpt lat="47.61987" lon="-2.98321">
        <ele>17.60000038147</ele>
        <time>2021-08-21T11:25:31.252Z</time>
      </trkpt>
      <trkpt lat="47.61968" lon="-2.98318">
        <ele>18.200000762939</ele>
        <time>2021-08-21T11:25:37.627Z</time>
      </trkpt>
      <trkpt lat="47.61954" lon="-2.98315">
        <ele>18.799999237061</ele>
        <time>2021-08-21T11:25:44.006Z</time>
      </trkpt>
      <trkpt lat="47.61939" lon="-2.98313">
        <ele>19.39999961853</ele>
        <time>2021-08-21T11:25:50.389Z</time>
      </trkpt>
      <trkpt lat="47.61925" lon="-2.98311">
        <ele>19.60000038147</ele>
        <time>2021-08-21T11:25:56.776Z</time>
      </trkpt>
      <trkpt lat="47.6192" lon="-2.9831">
        <ele>19.60000038147</ele>
        <time>2021-08-21T11:26:03.164Z</time>
      </trkpt>
      <trkpt lat="47.61897" lon="-2.98307">
        <ele>19</ele>
        <time>2021-08-21T11:26:09.559Z</time>
      </trkpt>
      <trkpt lat="47.61894" lon="-2.98307">
        <ele>19</ele>
        <time>2021-08-21T11:26:15.955Z</time>
      </trkpt>
      <trkpt lat="47.61888" lon="-2.98307">
        <ele>19</ele>
        <time>2021-08-21T11:26:22.352Z</time>
      </trkpt>
      <trkpt lat="47.61868" lon="-2.98297">
        <ele>18.39999961853</ele>
        <time>2021-08-21T11:26:28.755Z</time>
      </trkpt>
      <trkpt lat="47.61854" lon="-2.98291">
        <ele>18</ele>
        <time>2021-08-21T11:26:35.162Z</time>
      </trkpt>
      <trkpt lat="47.61842" lon="-2.98285">
        <ele>18</ele>
        <time>2021-08-21T11:26:41.572Z</time>
      </trkpt>
      <trkpt lat="47.61819" lon="-2.98274">
        <ele>18</ele>
        <time>2021-08-21T11:26:47.989Z</time>
      </trkpt>
      <trkpt lat="47.61795" lon="-2.98264">
        <ele>18.39999961853</ele>
        <time>2021-08-21T11:26:54.413Z</time>
      </trkpt>
      <trkpt lat="47.61785" lon="-2.98262">
        <ele>18.799999237061</ele>
        <time>2021-08-21T11:27:00.840Z</time>
      </trkpt>
      <trkpt lat="47.61766" lon="-2.98261">
        <ele>18.39999961853</ele>
        <time>2021-08-21T11:27:07.272Z</time>
      </trkpt>
      <trkpt lat="47.61744" lon="-2.98264">
        <ele>17.60000038147</ele>
        <time>2021-08-21T11:27:13.710Z</time>
      </trkpt>
      <trkpt lat="47.61723" lon="-2.98267">
        <ele>16.799999237061</ele>
        <time>2021-08-21T11:27:20.154Z</time>
      </trkpt>
      <trkpt lat="47.6169" lon="-2.98272">
        <ele>15.800000190735</ele>
        <time>2021-08-21T11:27:26.607Z</time>
      </trkpt>
      <trkpt lat="47.61683" lon="-2.98273">
        <ele>15.39999961853</ele>
        <time>2021-08-21T11:27:33.062Z</time>
      </trkpt>
      <trkpt lat="47.6167" lon="-2.98282">
        <ele>15</ele>
        <time>2021-08-21T11:27:39.521Z</time>
      </trkpt>
      <trkpt lat="47.61672" lon="-2.98304">
        <ele>15</ele>
        <time>2021-08-21T11:27:45.984Z</time>
      </trkpt>
      <trkpt lat="47.61674" lon="-2.9833">
        <ele>15</ele>
        <time>2021-08-21T11:27:52.451Z</time>
      </trkpt>
      <trkpt lat="47.61672" lon="-2.98377">
        <ele>15</ele>
        <time>2021-08-21T11:27:58.927Z</time>
      </trkpt>
      <trkpt lat="47.6167" lon="-2.98433">
        <ele>15</ele>
        <time>2021-08-21T11:28:05.414Z</time>
      </trkpt>
      <trkpt lat="47.61664" lon="-2.98491">
        <ele>14</ele>
        <time>2021-08-21T11:28:11.911Z</time>
      </trkpt>
      <trkpt lat="47.61661" lon="-2.98511">
        <ele>13.39999961853</ele>
        <time>2021-08-21T11:28:18.412Z</time>
      </trkpt>
      <trkpt lat="47.61658" lon="-2.98524">
        <ele>13.39999961853</ele>
        <time>2021-08-21T11:28:24.916Z</time>
      </trkpt>
      <trkpt lat="47.61654" lon="-2.98546">
        <ele>13.39999961853</ele>
        <time>2021-08-21T11:28:31.424Z</time>
      </trkpt>
      <trkpt lat="47.61648" lon="-2.98579">
        <ele>13.199999809265</ele>
        <time>2021-08-21T11:28:37.938Z</time>
      </trkpt>
      <trkpt lat="47.61646" lon="-2.98595">
        <ele>13.199999809265</ele>
        <time>2021-08-21T11:28:44.455Z</time>
      </trkpt>
      <trkpt lat="47.61643" lon="-2.98609">
        <ele>13</ele>
        <time>2021-08-21T11:28:50.975Z</time>
      </trkpt>
      <trkpt lat="47.61641" lon="-2.98622">
        <ele>13</ele>
        <time>2021-08-21T11:28:57.498Z</time>
      </trkpt>
      <trkpt lat="47.61637" lon="-2.98644">
        <ele>13.60000038147</ele>
        <time>2021-08-21T11:29:04.025Z</time>
      </trkpt>
      <trkpt lat="47.61632" lon="-2.98669">
        <ele>14.39999961853</ele>
        <time>2021-08-21T11:29:10.557Z</time>
      </trkpt>
      <trkpt lat="47.61626" lon="-2.98703">
        <ele>15.39999961853</ele>
        <time>2021-08-21T11:29:17.095Z</time>
      </trkpt>
      <trkpt lat="47.61616" lon="-2.98757">
        <ele>17.60000038147</ele>
        <time>2021-08-21T11:29:23.644Z</time>
      </trkpt>
      <trkpt lat="47.61608" lon="-2.98801">
        <ele>18.799999237061</ele>
        <time>2021-08-21T11:29:30.201Z</time>
      </trkpt>
      <trkpt lat="47.61601" lon="-2.9884">
        <ele>20</ele>
        <time>2021-08-21T11:29:36.766Z</time>
      </trkpt>
      <trkpt lat="47.61593" lon="-2.98885">
        <ele>19.39999961853</ele>
        <time>2021-08-21T11:29:43.339Z</time>
      </trkpt>
      <trkpt lat="47.61581" lon="-2.98938">
        <ele>16.799999237061</ele>
        <time>2021-08-21T11:29:49.923Z</time>
      </trkpt>
      <trkpt lat="47.6157" lon="-2.98991">
        <ele>14.60000038147</ele>
        <time>2021-08-21T11:29:56.517Z</time>
      </trkpt>
      <trkpt lat="47.61554" lon="-2.99058">
        <ele>10.60000038147</ele>
        <time>2021-08-21T11:30:03.124Z</time>
      </trkpt>
      <trkpt lat="47.61528" lon="-2.99117">
        <ele>7.1999998092651</ele>
        <time>2021-08-21T11:30:09.744Z</time>
      </trkpt>
      <trkpt lat="47.61507" lon="-2.99181">
        <ele>7.8000001907349</ele>
        <time>2021-08-21T11:30:16.377Z</time>
      </trkpt>
      <trkpt lat="47.61507" lon="-2.99189">
        <ele>8.1999998092651</ele>
        <time>2021-08-21T11:30:23.012Z</time>
      </trkpt>
      <trkpt lat="47.61504" lon="-2.99214">
        <ele>9.1999998092651</ele>
        <time>2021-08-21T11:30:29.651Z</time>
      </trkpt>
      <trkpt lat="47.61504" lon="-2.99222">
        <ele>9.3999996185303</ele>
        <time>2021-08-21T11:30:36.292Z</time>
      </trkpt>
      <trkpt lat="47.61506" lon="-2.99281">
        <ele>10.800000190735</ele>
        <time>2021-08-21T11:30:42.944Z</time>
      </trkpt>
      <trkpt lat="47.61507" lon="-2.99297">
        <ele>10.800000190735</ele>
        <time>2021-08-21T11:30:49.599Z</time>
      </trkpt>
      <trkpt lat="47.61509" lon="-2.99319">
        <ele>10.800000190735</ele>
        <time>2021-08-21T11:30:56.258Z</time>
      </trkpt>
      <trkpt lat="47.61511" lon="-2.99348">
        <ele>11.39999961853</ele>
        <time>2021-08-21T11:31:02.922Z</time>
      </trkpt>
      <trkpt lat="47.61513" lon="-2.99379">
        <ele>11.800000190735</ele>
        <time>2021-08-21T11:31:09.592Z</time>
      </trkpt>
      <trkpt lat="47.61515" lon="-2.99418">
        <ele>12.199999809265</ele>
        <time>2021-08-21T11:31:16.269Z</time>
      </trkpt>
      <trkpt lat="47.61515" lon="-2.99442">
        <ele>12.60000038147</ele>
        <time>2021-08-21T11:31:22.951Z</time>
      </trkpt>
      <trkpt lat="47.61515" lon="-2.99471">
        <ele>12.60000038147</ele>
        <time>2021-08-21T11:31:29.638Z</time>
      </trkpt>
      <trkpt lat="47.61515" lon="-2.99476">
        <ele>12.60000038147</ele>
        <time>2021-08-21T11:31:36.326Z</time>
      </trkpt>
      <trkpt lat="47.61515" lon="-2.99482">
        <ele>12.800000190735</ele>
        <time>2021-08-21T11:31:43.015Z</time>
      </trkpt>
      <trkpt lat="47.61506" lon="-2.99484">
        <ele>13</ele>
        <time>2021-08-21T11:31:49.707Z</time>
      </trkpt>
      <trkpt lat="47.61478" lon="-2.99478">
        <ele>13.199999809265</ele>
        <time>2021-08-21T11:31:56.407Z</time>
      </trkpt>
      <trkpt lat="47.61454" lon="-2.99471">
        <ele>14.199999809265</ele>
        <time>2021-08-21T11:32:03.113Z</time>
      </trkpt>
      <trkpt lat="47.61432" lon="-2.99464">
        <ele>15.39999961853</ele>
        <time>2021-08-21T11:32:09.826Z</time>
      </trkpt>
      <trkpt lat="47.61409" lon="-2.99456">
        <ele>16.60000038147</ele>
        <time>2021-08-21T11:32:16.545Z</time>
      </trkpt>
      <trkpt lat="47.61394" lon="-2.99452">
        <ele>17.60000038147</ele>
        <time>2021-08-21T11:32:23.268Z</time>
      </trkpt>
      <trkpt lat="47.61378" lon="-2.99454">
        <ele>18.60000038147</ele>
        <time>2021-08-21T11:32:29.996Z</time>
      </trkpt>
      <trkpt lat="47.61365" lon="-2.99466">
        <ele>18.39999961853</ele>
        <time>2021-08-21T11:32:36.728Z</time>
      </trkpt>
      <trkpt lat="47.6135" lon="-2.99489">
        <ele>18.39999961853</ele>
        <time>2021-08-21T11:32:43.466Z</time>
      </trkpt>
      <trkpt lat="47.61328" lon="-2.99523">
        <ele>18.200000762939</ele>
        <time>2021-08-21T11:32:50.212Z</time>
      </trkpt>
      <trkpt lat="47.61306" lon="-2.99558">
        <ele>18</ele>
        <time>2021-08-21T11:32:56.967Z</time>
      </trkpt>
      <trkpt lat="47.61293" lon="-2.99581">
        <ele>16.60000038147</ele>
        <time>2021-08-21T11:33:03.728Z</time>
      </trkpt>
      <trkpt lat="47.61283" lon="-2.99601">
        <ele>14.60000038147</ele>
        <time>2021-08-21T11:33:10.494Z</time>
      </trkpt>
      <trkpt lat="47.61267" lon="-2.99642">
        <ele>12.800000190735</ele>
        <time>2021-08-21T11:33:17.268Z</time>
      </trkpt>
      <trkpt lat="47.61256" lon="-2.99662">
        <ele>12.800000190735</ele>
        <time>2021-08-21T11:33:24.047Z</time>
      </trkpt>
      <trkpt lat="47.61251" lon="-2.99676">
        <ele>13</ele>
        <time>2021-08-21T11:33:30.829Z</time>
      </trkpt>
      <trkpt lat="47.61248" lon="-2.99689">
        <ele>12.60000038147</ele>
        <time>2021-08-21T11:33:37.614Z</time>
      </trkpt>
      <trkpt lat="47.61242" lon="-2.99715">
        <ele>12</ele>
        <time>2021-08-21T11:33:44.404Z</time>
      </trkpt>
      <trkpt lat="47.6124" lon="-2.99748">
        <ele>13</ele>
        <time>2021-08-21T11:33:51.200Z</time>
      </trkpt>
      <trkpt lat="47.61244" lon="-2.99773">
        <ele>14</ele>
        <time>2021-08-21T11:33:58.001Z</time>
      </trkpt>
      <trkpt lat="47.61251" lon="-2.99791">
        <ele>15.800000190735</ele>
        <time>2021-08-21T11:34:04.805Z</time>
      </trkpt>
      <trkpt lat="47.61258" lon="-2.99806">
        <ele>16.60000038147</ele>
        <time>2021-08-21T11:34:11.613Z</time>
      </trkpt>
      <trkpt lat="47.61265" lon="-2.99815">
        <ele>17.60000038147</ele>
        <time>2021-08-21T11:34:18.423Z</time>
      </trkpt>
      <trkpt lat="47.61273" lon="-2.99825">
        <ele>18.60000038147</ele>
        <time>2021-08-21T11:34:25.236Z</time>
      </trkpt>
      <trkpt lat="47.61281" lon="-2.99833">
        <ele>19.39999961853</ele>
        <time>2021-08-21T11:34:32.052Z</time>
      </trkpt>
      <trkpt lat="47.61287" lon="-2.99844">
        <ele>20.39999961853</ele>
        <time>2021-08-21T11:34:38.871Z</time>
      </trkpt>
      <trkpt lat="47.61295" lon="-2.99858">
        <ele>21</ele>
        <time>2021-08-21T11:34:45.693Z</time>
      </trkpt>
      <trkpt lat="47.61301" lon="-2.99875">
        <ele>22.200000762939</ele>
        <time>2021-08-21T11:34:52.519Z</time>
      </trkpt>
      <trkpt lat="47.61307" lon="-2.99895">
        <ele>22.200000762939</ele>
        <time>2021-08-21T11:34:59.349Z</time>
      </trkpt>
      <trkpt lat="47.61314" lon="-2.99917">
        <ele>22.200000762939</ele>
        <time>2021-08-21T11:35:06.183Z</time>
      </trkpt>
      <trkpt lat="47.61324" lon="-2.99948">
        <ele>21.60000038147</ele>
        <time>2021-08-21T11:35:13.023Z</time>
      </trkpt>
      <trkpt lat="47.6133" lon="-2.99966">
        <ele>21.799999237061</ele>
        <time>2021-08-21T11:35:19.867Z</time>
      </trkpt>
      <trkpt lat="47.61333" lon="-2.99978">
        <ele>21.200000762939</ele>
        <time>2021-08-21T11:35:26.714Z</time>
      </trkpt>
      <trkpt lat="47.61334" lon="-2.9998">
        <ele>21.200000762939</ele>
        <time>2021-08-21T11:35:33.561Z</time>
      </trkpt>
      <trkpt lat="47.61331" lon="-2.9997">
        <ele>21.60000038147</ele>
        <time>2021-08-21T11:35:40.410Z</time>
      </trkpt>
      <trkpt lat="47.6133" lon="-2.9997">
        <ele>21.60000038147</ele>
        <time>2021-08-21T11:35:47.259Z</time>
      </trkpt>
      <trkpt lat="47.61329" lon="-2.99971">
        <ele>21.60000038147</ele>
        <time>2021-08-21T11:35:54.108Z</time>
      </trkpt>
      <trkpt lat="47.61329" lon="-2.99971">
        <ele>21.60000038147</ele>
        <time>2021-08-21T11:36:00.958Z</time>
      </trkpt>
      <trkpt lat="47.61331" lon="-2.9997">
        <ele>21.60000038147</ele>
        <time>2021-08-21T11:36:07.808Z</time>
      </trkpt>
      <trkpt lat="47.61327" lon="-2.99972">
        <ele>21.60000038147</ele>
        <time>2021-08-21T11:36:14.659Z</time>
      </trkpt>
      <trkpt lat="47.61324" lon="-2.99974">
        <ele>21.39999961853</ele>
        <time>2021-08-21T11:36:21.511Z</time>
      </trkpt>
      <trkpt lat="47.61319" lon="-2.99978">
        <ele>21.39999961853</ele>
        <time>2021-08-21T11:36:28.365Z</time>
      </trkpt>
      <trkpt lat="47.61306" lon="-2.99986">
        <ele>19</ele>
        <time>2021-08-21T11:36:35.223Z</time>
      </trkpt>
      <trkpt lat="47.6129" lon="-2.99996">
        <ele>19</ele>
        <time>2021-08-21T11:36:42.086Z</time>
      </trkpt>
      <trkpt lat="47.61272" lon="-3.00006">
        <ele>18.39999961853</ele>
        <time>2021-08-21T11:36:48.954Z</time>
      </trkpt>
      <trkpt lat="47.61265" lon="-3.0001">
        <ele>18.200000762939</ele>
        <time>2021-08-21T11:36:55.824Z</time>
      </trkpt>
      <trkpt lat="47.61262" lon="-3.00012">
        <ele>18.200000762939</ele>
        <time>2021-08-21T11:37:02.695Z</time>
      </trkpt>
      <trkpt lat="47.61254" lon="-3.00017">
        <ele>18</ele>
        <time>2021-08-21T11:37:09.568Z</time>
      </trkpt>
      <trkpt lat="47.61251" lon="-3.00016">
        <ele>18</ele>
        <time>2021-08-21T11:37:16.442Z</time>
      </trkpt>
      <trkpt lat="47.61234" lon="-3.00008">
        <ele>18</ele>
        <time>2021-08-21T11:37:23.321Z</time>
      </trkpt>
      <trkpt lat="47.61229" lon="-3.00005">
        <ele>18</ele>
        <time>2021-08-21T11:37:30.201Z</time>
      </trkpt>
      <trkpt lat="47.61225" lon="-3.00003">
        <ele>18</ele>
        <time>2021-08-21T11:37:37.083Z</time>
      </trkpt>
      <trkpt lat="47.61216" lon="-2.99999">
        <ele>18</ele>
        <time>2021-08-21T11:37:43.967Z</time>
      </trkpt>
      <trkpt lat="47.61214" lon="-2.99994">
        <ele>18</ele>
        <time>2021-08-21T11:37:50.852Z</time>
      </trkpt>
      <trkpt lat="47.61206" lon="-2.99981">
        <ele>16.200000762939</ele>
        <time>2021-08-21T11:37:57.740Z</time>
      </trkpt>
      <trkpt lat="47.61196" lon="-2.9995">
        <ele>16</ele>
        <time>2021-08-21T11:38:04.635Z</time>
      </trkpt>
      <trkpt lat="47.61186" lon="-2.99919">
        <ele>16.799999237061</ele>
        <time>2021-08-21T11:38:11.536Z</time>
      </trkpt>
      <trkpt lat="47.6118" lon="-2.99902">
        <ele>17.200000762939</ele>
        <time>2021-08-21T11:38:18.441Z</time>
      </trkpt>
      <trkpt lat="47.61179" lon="-2.99896">
        <ele>17.60000038147</ele>
        <time>2021-08-21T11:38:25.347Z</time>
      </trkpt>
      <trkpt lat="47.61177" lon="-2.99892">
        <ele>17.799999237061</ele>
        <time>2021-08-21T11:38:32.254Z</time>
      </trkpt>
      <trkpt lat="47.61174" lon="-2.99881">
        <ele>18.60000038147</ele>
        <time>2021-08-21T11:38:39.163Z</time>
      </trkpt>
      <trkpt lat="47.61157" lon="-2.99868">
        <ele>19.200000762939</ele>
        <time>2021-08-21T11:38:46.077Z</time>
      </trkpt>
      <trkpt lat="47.61146" lon="-2.99862">
        <ele>19.200000762939</ele>
        <time>2021-08-21T11:38:52.994Z</time>
      </trkpt>
      <trkpt lat="47.6114" lon="-2.99862">
        <ele>19</ele>
        <time>2021-08-21T11:38:59.913Z</time>
      </trkpt>
      <trkpt lat="47.61135" lon="-2.99862">
        <ele>18.799999237061</ele>
        <time>2021-08-21T11:39:06.833Z</time>
      </trkpt>
      <trkpt lat="47.61124" lon="-2.99862">
        <ele>18.39999961853</ele>
        <time>2021-08-21T11:39:13.756Z</time>
      </trkpt>
      <trkpt lat="47.61122" lon="-2.99862">
        <ele>18.200000762939</ele>
        <time>2021-08-21T11:39:20.680Z</time>
      </trkpt>
      <trkpt lat="47.61112" lon="-2.99862">
        <ele>18</ele>
        <time>2021-08-21T11:39:27.607Z</time>
      </trkpt>
      <trkpt lat="47.61104" lon="-2.99862">
        <ele>17.60000038147</ele>
        <time>2021-08-21T11:39:34.536Z</time>
      </trkpt>
      <trkpt lat="47.61099" lon="-2.99862">
        <ele>17.39999961853</ele>
        <time>2021-08-21T11:39:41.466Z</time>
      </trkpt>
      <trkpt lat="47.6108" lon="-2.99862">
        <ele>17.799999237061</ele>
        <time>2021-08-21T11:39:48.401Z</time>
      </trkpt>
      <trkpt lat="47.61073" lon="-2.99864">
        <ele>18.39999961853</ele>
        <time>2021-08-21T11:39:55.338Z</time>
      </trkpt>
      <trkpt lat="47.61067" lon="-2.99867">
        <ele>18.799999237061</ele>
        <time>2021-08-21T11:40:02.277Z</time>
      </trkpt>
      <trkpt lat="47.61064" lon="-2.99868">
        <ele>18.799999237061</ele>
        <time>2021-08-21T11:40:09.217Z</time>
      </trkpt>
      <trkpt lat="47.61057" lon="-2.99871">
        <ele>19.39999961853</ele>
        <time>2021-08-21T11:40:16.159Z</time>
      </trkpt>
      <trkpt lat="47.61046" lon="-2.99875">
        <ele>20</ele>
        <time>2021-08-21T11:40:23.104Z</time>
      </trkpt>
      <trkpt lat="47.61042" lon="-2.99876">
        <ele>20.200000762939</ele>
        <time>2021-08-21T11:40:30.050Z</time>
      </trkpt>
      <trkpt lat="47.61027" lon="-2.99881">
        <ele>20.799999237061</ele>
        <time>2021-08-21T11:40:37.000Z</time>
      </trkpt>
      <trkpt lat="47.61013" lon="-2.99875">
        <ele>21.60000038147</ele>
        <time>2021-08-21T11:40:43.954Z</time>
      </trkpt>
      <trkpt lat="47.60999" lon="-2.9987">
        <ele>21.60000038147</ele>
        <time>2021-08-21T11:40:50.912Z</time>
      </trkpt>
      <trkpt lat="47.60979" lon="-2.99872">
        <ele>20.200000762939</ele>
        <time>2021-08-21T11:40:57.876Z</time>
      </trkpt>
      <trkpt lat="47.60968" lon="-2.99874">
        <ele>19.799999237061</ele>
        <time>2021-08-21T11:41:04.843Z</time>
      </trkpt>
      <trkpt lat="47.60958" lon="-2.99876">
        <ele>19.39999961853</ele>
        <time>2021-08-21T11:41:11.813Z</time>
      </trkpt>
      <trkpt lat="47.60952" lon="-2.99877">
        <ele>19.200000762939</ele>
        <time>2021-08-21T11:41:18.784Z</time>
      </trkpt>
      <trkpt lat="47.60945" lon="-2.99874">
        <ele>19</ele>
        <time>2021-08-21T11:41:25.757Z</time>
      </trkpt>
      <trkpt lat="47.60932" lon="-2.9985">
        <ele>18.200000762939</ele>
        <time>2021-08-21T11:41:32.736Z</time>
      </trkpt>
      <trkpt lat="47.60924" lon="-2.99835">
        <ele>17.39999961853</ele>
        <time>2021-08-21T11:41:39.719Z</time>
      </trkpt>
      <trkpt lat="47.60921" lon="-2.9983">
        <ele>17.39999961853</ele>
        <time>2021-08-21T11:41:46.703Z</time>
      </trkpt>
      <trkpt lat="47.60909" lon="-2.99815">
        <ele>16.799999237061</ele>
        <time>2021-08-21T11:41:53.691Z</time>
      </trkpt>
      <trkpt lat="47.60901" lon="-2.99811">
        <ele>16.60000038147</ele>
        <time>2021-08-21T11:42:00.681Z</time>
      </trkpt>
      <trkpt lat="47.60892" lon="-2.99806">
        <ele>17</ele>
        <time>2021-08-21T11:42:07.674Z</time>
      </trkpt>
      <trkpt lat="47.6087" lon="-2.99799">
        <ele>17.200000762939</ele>
        <time>2021-08-21T11:42:14.673Z</time>
      </trkpt>
      <trkpt lat="47.60846" lon="-2.9979">
        <ele>17.60000038147</ele>
        <time>2021-08-21T11:42:21.679Z</time>
      </trkpt>
      <trkpt lat="47.6083" lon="-2.99779">
        <ele>18.200000762939</ele>
        <time>2021-08-21T11:42:28.690Z</time>
      </trkpt>
      <trkpt lat="47.60821" lon="-2.99774">
        <ele>18.39999961853</ele>
        <time>2021-08-21T11:42:35.703Z</time>
      </trkpt>
      <trkpt lat="47.60809" lon="-2.99764">
        <ele>18</ele>
        <time>2021-08-21T11:42:42.720Z</time>
      </trkpt>
      <trkpt lat="47.60802" lon="-2.99756">
        <ele>17.39999961853</ele>
        <time>2021-08-21T11:42:49.740Z</time>
      </trkpt>
      <trkpt lat="47.60798" lon="-2.99752">
        <ele>17.200000762939</ele>
        <time>2021-08-21T11:42:56.761Z</time>
      </trkpt>
      <trkpt lat="47.60797" lon="-2.99751">
        <ele>17</ele>
        <time>2021-08-21T11:43:03.782Z</time>
      </trkpt>
      <trkpt lat="47.60785" lon="-2.99759">
        <ele>17</ele>
        <time>2021-08-21T11:43:10.807Z</time>
      </trkpt>
      <trkpt lat="47.60769" lon="-2.99776">
        <ele>17</ele>
        <time>2021-08-21T11:43:17.837Z</time>
      </trkpt>
      <trkpt lat="47.60751" lon="-2.99809">
        <ele>17</ele>
        <time>2021-08-21T11:43:24.875Z</time>
      </trkpt>
      <trkpt lat="47.60733" lon="-2.99861">
        <ele>15.199999809265</ele>
        <time>2021-08-21T11:43:31.924Z</time>
      </trkpt>
      <trkpt lat="47.60714" lon="-2.9992">
        <ele>15.199999809265</ele>
        <time>2021-08-21T11:43:38.985Z</time>
      </trkpt>
      <trkpt lat="47.607" lon="-2.99961">
        <ele>14.199999809265</ele>
        <time>2021-08-21T11:43:46.055Z</time>
      </trkpt>
      <trkpt lat="47.60698" lon="-2.99968">
        <ele>14.39999961853</ele>
        <time>2021-08-21T11:43:53.126Z</time>
      </trkpt>
      <trkpt lat="47.60684" lon="-3.00011">
        <ele>15.199999809265</ele>
        <time>2021-08-21T11:44:00.206Z</time>
      </trkpt>
      <trkpt lat="47.60669" lon="-3.00056">
        <ele>14.39999961853</ele>
        <time>2021-08-21T11:44:07.295Z</time>
      </trkpt>
      <trkpt lat="47.60661" lon="-3.00081">
        <ele>14.800000190735</ele>
        <time>2021-08-21T11:44:14.390Z</time>
      </trkpt>
      <trkpt lat="47.60658" lon="-3.0009">
        <ele>14.800000190735</ele>
        <time>2021-08-21T11:44:21.486Z</time>
      </trkpt>
      <trkpt lat="47.60651" lon="-3.00097">
        <ele>14.60000038147</ele>
        <time>2021-08-21T11:44:28.585Z</time>
      </trkpt>
      <trkpt lat="47.60637" lon="-3.00109">
        <ele>14.60000038147</ele>
        <time>2021-08-21T11:44:35.688Z</time>
      </trkpt>
      <trkpt lat="47.60594" lon="-3.00115">
        <ele>16.200000762939</ele>
        <time>2021-08-21T11:44:42.803Z</time>
      </trkpt>
      <trkpt lat="47.60569" lon="-3.00119">
        <ele>16</ele>
        <time>2021-08-21T11:44:49.925Z</time>
      </trkpt>
      <trkpt lat="47.60565" lon="-3.00119">
        <ele>15.800000190735</ele>
        <time>2021-08-21T11:44:57.048Z</time>
      </trkpt>
      <trkpt lat="47.60551" lon="-3.00121">
        <ele>15.199999809265</ele>
        <time>2021-08-21T11:45:04.175Z</time>
      </trkpt>
      <trkpt lat="47.6053" lon="-3.00124">
        <ele>14</ele>
        <time>2021-08-21T11:45:11.308Z</time>
      </trkpt>
      <trkpt lat="47.60524" lon="-3.00125">
        <ele>13.800000190735</ele>
        <time>2021-08-21T11:45:18.442Z</time>
      </trkpt>
      <trkpt lat="47.60507" lon="-3.00145">
        <ele>13.800000190735</ele>
        <time>2021-08-21T11:45:25.582Z</time>
      </trkpt>
      <trkpt lat="47.60497" lon="-3.0015">
        <ele>13.60000038147</ele>
        <time>2021-08-21T11:45:32.725Z</time>
      </trkpt>
      <trkpt lat="47.60478" lon="-3.00158">
        <ele>13.39999961853</ele>
        <time>2021-08-21T11:45:39.874Z</time>
      </trkpt>
      <trkpt lat="47.60464" lon="-3.00156">
        <ele>13.199999809265</ele>
        <time>2021-08-21T11:45:47.026Z</time>
      </trkpt>
      <trkpt lat="47.60453" lon="-3.00155">
        <ele>13</ele>
        <time>2021-08-21T11:45:54.182Z</time>
      </trkpt>
      <trkpt lat="47.60434" lon="-3.00152">
        <ele>13</ele>
        <time>2021-08-21T11:46:01.342Z</time>
      </trkpt>
      <trkpt lat="47.60428" lon="-3.00151">
        <ele>13</ele>
        <time>2021-08-21T11:46:08.504Z</time>
      </trkpt>
      <trkpt lat="47.60413" lon="-3.00149">
        <ele>12.60000038147</ele>
        <time>2021-08-21T11:46:15.670Z</time>
      </trkpt>
      <trkpt lat="47.6041" lon="-3.00149">
        <ele>12.199999809265</ele>
        <time>2021-08-21T11:46:22.837Z</time>
      </trkpt>
      <trkpt lat="47.60402" lon="-3.00152">
        <ele>11.800000190735</ele>
        <time>2021-08-21T11:46:30.007Z</time>
      </trkpt>
      <trkpt lat="47.604" lon="-3.00155">
        <ele>11.60000038147</ele>
        <time>2021-08-21T11:46:37.177Z</time>
      </trkpt>
      <trkpt lat="47.60396" lon="-3.00169">
        <ele>11.39999961853</ele>
        <time>2021-08-21T11:46:44.350Z</time>
      </trkpt>
      <trkpt lat="47.60395" lon="-3.00175">
        <ele>11.199999809265</ele>
        <time>2021-08-21T11:46:51.524Z</time>
      </trkpt>
      <trkpt lat="47.60393" lon="-3.00187">
        <ele>10.800000190735</ele>
        <time>2021-08-21T11:46:58.700Z</time>
      </trkpt>
      <trkpt lat="47.60392" lon="-3.00193">
        <ele>10.60000038147</ele>
        <time>2021-08-21T11:47:05.878Z</time>
      </trkpt>
      <trkpt lat="47.60392" lon="-3.00197">
        <ele>10.39999961853</ele>
        <time>2021-08-21T11:47:13.056Z</time>
      </trkpt>
      <trkpt lat="47.60387" lon="-3.00225">
        <ele>10.39999961853</ele>
        <time>2021-08-21T11:47:20.240Z</time>
      </trkpt>
      <trkpt lat="47.60386" lon="-3.00235">
        <ele>10.800000190735</ele>
        <time>2021-08-21T11:47:27.426Z</time>
      </trkpt>
      <trkpt lat="47.60385" lon="-3.0024">
        <ele>10.800000190735</ele>
        <time>2021-08-21T11:47:34.613Z</time>
      </trkpt>
      <trkpt lat="47.60384" lon="-3.0025">
        <ele>11</ele>
        <time>2021-08-21T11:47:41.801Z</time>
      </trkpt>
      <trkpt lat="47.60379" lon="-3.00256">
        <ele>11</ele>
        <time>2021-08-21T11:47:48.991Z</time>
      </trkpt>
      <trkpt lat="47.60368" lon="-3.00253">
        <ele>10.800000190735</ele>
        <time>2021-08-21T11:47:56.184Z</time>
      </trkpt>
      <trkpt lat="47.60355" lon="-3.00249">
        <ele>10.39999961853</ele>
        <time>2021-08-21T11:48:03.381Z</time>
      </trkpt>
      <trkpt lat="47.60329" lon="-3.00241">
        <ele>10</ele>
        <time>2021-08-21T11:48:10.585Z</time>
      </trkpt>
      <trkpt lat="47.60314" lon="-3.00236">
        <ele>10</ele>
        <time>2021-08-21T11:48:17.793Z</time>
      </trkpt>
      <trkpt lat="47.60306" lon="-3.00233">
        <ele>9.8000001907349</ele>
        <time>2021-08-21T11:48:25.004Z</time>
      </trkpt>
      <trkpt lat="47.60301" lon="-3.00232">
        <ele>9.6000003814697</ele>
        <time>2021-08-21T11:48:32.216Z</time>
      </trkpt>
      <trkpt lat="47.60281" lon="-3.00226">
        <ele>9.3999996185303</ele>
        <time>2021-08-21T11:48:39.434Z</time>
      </trkpt>
      <trkpt lat="47.60273" lon="-3.00223">
        <ele>10</ele>
        <time>2021-08-21T11:48:46.654Z</time>
      </trkpt>
      <trkpt lat="47.60264" lon="-3.0022">
        <ele>10.800000190735</ele>
        <time>2021-08-21T11:48:53.876Z</time>
      </trkpt>
      <trkpt lat="47.60242" lon="-3.00214">
        <ele>12.39999961853</ele>
        <time>2021-08-21T11:49:01.104Z</time>
      </trkpt>
      <trkpt lat="47.60228" lon="-3.00209">
        <ele>13.800000190735</ele>
        <time>2021-08-21T11:49:08.337Z</time>
      </trkpt>
      <trkpt lat="47.60218" lon="-3.00206">
        <ele>14</ele>
        <time>2021-08-21T11:49:15.572Z</time>
      </trkpt>
      <trkpt lat="47.60208" lon="-3.00203">
        <ele>13.800000190735</ele>
        <time>2021-08-21T11:49:22.810Z</time>
      </trkpt>
      <trkpt lat="47.60198" lon="-3.002">
        <ele>13.60000038147</ele>
        <time>2021-08-21T11:49:30.051Z</time>
      </trkpt>
      <trkpt lat="47.6019" lon="-3.00197">
        <ele>13.60000038147</ele>
        <time>2021-08-21T11:49:37.294Z</time>
      </trkpt>
      <trkpt lat="47.60176" lon="-3.00193">
        <ele>13</ele>
        <time>2021-08-21T11:49:44.541Z</time>
      </trkpt>
      <trkpt lat="47.6015" lon="-3.00183">
        <ele>13</ele>
        <time>2021-08-21T11:49:51.795Z</time>
      </trkpt>
      <trkpt lat="47.60134" lon="-3.00172">
        <ele>13.60000038147</ele>
        <time>2021-08-21T11:49:59.054Z</time>
      </trkpt>
      <trkpt lat="47.60123" lon="-3.00164">
        <ele>14.199999809265</ele>
        <time>2021-08-21T11:50:06.317Z</time>
      </trkpt>
      <trkpt lat="47.60117" lon="-3.0016">
        <ele>14.60000038147</ele>
        <time>2021-08-21T11:50:13.581Z</time>
      </trkpt>
      <trkpt lat="47.60113" lon="-3.00157">
        <ele>14.800000190735</ele>
        <time>2021-08-21T11:50:20.847Z</time>
      </trkpt>
      <trkpt lat="47.6009" lon="-3.00141">
        <ele>16.200000762939</ele>
        <time>2021-08-21T11:50:28.120Z</time>
      </trkpt>
      <trkpt lat="47.60073" lon="-3.00129">
        <ele>17.39999961853</ele>
        <time>2021-08-21T11:50:35.398Z</time>
      </trkpt>
      <trkpt lat="47.60064" lon="-3.00123">
        <ele>17.799999237061</ele>
        <time>2021-08-21T11:50:42.679Z</time>
      </trkpt>
      <trkpt lat="47.60051" lon="-3.00114">
        <ele>18.60000038147</ele>
        <time>2021-08-21T11:50:49.964Z</time>
      </trkpt>
      <trkpt lat="47.60047" lon="-3.00111">
        <ele>18.60000038147</ele>
        <time>2021-08-21T11:50:57.250Z</time>
      </trkpt>
      <trkpt lat="47.6004" lon="-3.0011">
        <ele>18.39999961853</ele>
        <time>2021-08-21T11:51:04.538Z</time>
      </trkpt>
      <trkpt lat="47.60018" lon="-3.00115">
        <ele>17.200000762939</ele>
        <time>2021-08-21T11:51:11.832Z</time>
      </trkpt>
      <trkpt lat="47.60013" lon="-3.00116">
        <ele>17</ele>
        <time>2021-08-21T11:51:19.127Z</time>
      </trkpt>
      <trkpt lat="47.60005" lon="-3.00119">
        <ele>16.39999961853</ele>
        <time>2021-08-21T11:51:26.424Z</time>
      </trkpt>
      <trkpt lat="47.59977" lon="-3.00127">
        <ele>16</ele>
        <time>2021-08-21T11:51:33.729Z</time>
      </trkpt>
      <trkpt lat="47.59968" lon="-3.00127">
        <ele>16</ele>
        <time>2021-08-21T11:51:41.037Z</time>
      </trkpt>
      <trkpt lat="47.59951" lon="-3.00125">
        <ele>16</ele>
        <time>2021-08-21T11:51:48.349Z</time>
      </trkpt>
      <trkpt lat="47.59948" lon="-3.00122">
        <ele>16</ele>
        <time>2021-08-21T11:51:55.662Z</time>
      </trkpt>
      <trkpt lat="47.59932" lon="-3.00117">
        <ele>16.200000762939</ele>
        <time>2021-08-21T11:52:02.980Z</time>
      </trkpt>
      <trkpt lat="47.59904" lon="-3.00111">
        <ele>16.60000038147</ele>
        <time>2021-08-21T11:52:10.305Z</time>
      </trkpt>
      <trkpt lat="47.59877" lon="-3.00105">
        <ele>17.200000762939</ele>
        <time>2021-08-21T11:52:17.638Z</time>
      </trkpt>
      <trkpt lat="47.59854" lon="-3.00099">
        <ele>17.39999961853</ele>
        <time>2021-08-21T11:52:24.977Z</time>
      </trkpt>
      <trkpt lat="47.59831" lon="-3.00109">
        <ele>18</ele>
        <time>2021-08-21T11:52:32.323Z</time>
      </trkpt>
      <trkpt lat="47.59809" lon="-3.00121">
        <ele>18</ele>
        <time>2021-08-21T11:52:39.675Z</time>
      </trkpt>
      <trkpt lat="47.59789" lon="-3.0013">
        <ele>18</ele>
        <time>2021-08-21T11:52:47.033Z</time>
      </trkpt>
      <trkpt lat="47.59771" lon="-3.00128">
        <ele>18</ele>
        <time>2021-08-21T11:52:54.396Z</time>
      </trkpt>
      <trkpt lat="47.59758" lon="-3.00126">
        <ele>18</ele>
        <time>2021-08-21T11:53:01.763Z</time>
      </trkpt>
      <trkpt lat="47.59749" lon="-3.00124">
        <ele>17.799999237061</ele>
        <time>2021-08-21T11:53:09.132Z</time>
      </trkpt>
      <trkpt lat="47.59736" lon="-3.00122">
        <ele>17.39999961853</ele>
        <time>2021-08-21T11:53:16.505Z</time>
      </trkpt>
      <trkpt lat="47.59724" lon="-3.00127">
        <ele>17</ele>
        <time>2021-08-21T11:53:23.881Z</time>
      </trkpt>
      <trkpt lat="47.5971" lon="-3.00133">
        <ele>16.799999237061</ele>
        <time>2021-08-21T11:53:31.261Z</time>
      </trkpt>
      <trkpt lat="47.59696" lon="-3.00139">
        <ele>16.39999961853</ele>
        <time>2021-08-21T11:53:38.645Z</time>
      </trkpt>
      <trkpt lat="47.59676" lon="-3.00147">
        <ele>15.199999809265</ele>
        <time>2021-08-21T11:53:46.035Z</time>
      </trkpt>
      <trkpt lat="47.59657" lon="-3.00155">
        <ele>14.60000038147</ele>
        <time>2021-08-21T11:53:53.430Z</time>
      </trkpt>
      <trkpt lat="47.59642" lon="-3.00161">
        <ele>14.39999961853</ele>
        <time>2021-08-21T11:54:00.829Z</time>
      </trkpt>
      <trkpt lat="47.59623" lon="-3.00169">
        <ele>14</ele>
        <time>2021-08-21T11:54:08.234Z</time>
      </trkpt>
      <trkpt lat="47.59612" lon="-3.00173">
        <ele>13.60000038147</ele>
        <time>2021-08-21T11:54:15.642Z</time>
      </trkpt>
      <trkpt lat="47.59587" lon="-3.00186">
        <ele>11.199999809265</ele>
        <time>2021-08-21T11:54:23.057Z</time>
      </trkpt>
      <trkpt lat="47.59573" lon="-3.00193">
        <ele>10.60000038147</ele>
        <time>2021-08-21T11:54:30.476Z</time>
      </trkpt>
      <trkpt lat="47.59567" lon="-3.00197">
        <ele>10.39999961853</ele>
        <time>2021-08-21T11:54:37.897Z</time>
      </trkpt>
      <trkpt lat="47.59562" lon="-3.00199">
        <ele>10.199999809265</ele>
        <time>2021-08-21T11:54:45.320Z</time>
      </trkpt>
      <trkpt lat="47.59547" lon="-3.00207">
        <ele>10</ele>
        <time>2021-08-21T11:54:52.747Z</time>
      </trkpt>
      <trkpt lat="47.59538" lon="-3.00212">
        <ele>10</ele>
        <time>2021-08-21T11:55:00.177Z</time>
      </trkpt>
      <trkpt lat="47.59529" lon="-3.00217">
        <ele>10</ele>
        <time>2021-08-21T11:55:07.609Z</time>
      </trkpt>
      <trkpt lat="47.59515" lon="-3.00225">
        <ele>10</ele>
        <time>2021-08-21T11:55:15.045Z</time>
      </trkpt>
      <trkpt lat="47.59511" lon="-3.00227">
        <ele>10</ele>
        <time>2021-08-21T11:55:22.483Z</time>
      </trkpt>
      <trkpt lat="47.59488" lon="-3.00265">
        <ele>9.3999996185303</ele>
        <time>2021-08-21T11:55:29.930Z</time>
      </trkpt>
      <trkpt lat="47.59477" lon="-3.00302">
        <ele>9</ele>
        <time>2021-08-21T11:55:37.385Z</time>
      </trkpt>
      <trkpt lat="47.59475" lon="-3.00308">
        <ele>9</ele>
        <time>2021-08-21T11:55:44.841Z</time>
      </trkpt>
      <trkpt lat="47.59473" lon="-3.00314">
        <ele>9</ele>
        <time>2021-08-21T11:55:52.298Z</time>
      </trkpt>
      <trkpt lat="47.59469" lon="-3.00326">
        <ele>9</ele>
        <time>2021-08-21T11:55:59.758Z</time>
      </trkpt>
      <trkpt lat="47.59467" lon="-3.00333">
        <ele>9</ele>
        <time>2021-08-21T11:56:07.219Z</time>
      </trkpt>
      <trkpt lat="47.59464" lon="-3.00342">
        <ele>9</ele>
        <time>2021-08-21T11:56:14.682Z</time>
      </trkpt>
      <trkpt lat="47.59463" lon="-3.00346">
        <ele>9</ele>
        <time>2021-08-21T11:56:22.146Z</time>
      </trkpt>
      <trkpt lat="47.59451" lon="-3.00354">
        <ele>9</ele>
        <time>2021-08-21T11:56:29.613Z</time>
      </trkpt>
      <trkpt lat="47.59436" lon="-3.00362">
        <ele>9.3999996185303</ele>
        <time>2021-08-21T11:56:37.085Z</time>
      </trkpt>
      <trkpt lat="47.59432" lon="-3.00363">
        <ele>9.6000003814697</ele>
        <time>2021-08-21T11:56:44.558Z</time>
      </trkpt>
      <trkpt lat="47.59419" lon="-3.00369">
        <ele>10</ele>
        <time>2021-08-21T11:56:52.034Z</time>
      </trkpt>
      <trkpt lat="47.59408" lon="-3.00374">
        <ele>10.39999961853</ele>
        <time>2021-08-21T11:56:59.514Z</time>
      </trkpt>
      <trkpt lat="47.5939" lon="-3.00383">
        <ele>11</ele>
        <time>2021-08-21T11:57:06.999Z</time>
      </trkpt>
      <trkpt lat="47.59386" lon="-3.00385">
        <ele>11.199999809265</ele>
        <time>2021-08-21T11:57:14.485Z</time>
      </trkpt>
      <trkpt lat="47.59371" lon="-3.00402">
        <ele>11.800000190735</ele>
        <time>2021-08-21T11:57:21.976Z</time>
      </trkpt>
      <trkpt lat="47.59355" lon="-3.00411">
        <ele>12</ele>
        <time>2021-08-21T11:57:29.472Z</time>
      </trkpt>
      <trkpt lat="47.59344" lon="-3.0041">
        <ele>12</ele>
        <time>2021-08-21T11:57:36.971Z</time>
      </trkpt>
      <trkpt lat="47.59327" lon="-3.00406">
        <ele>12.199999809265</ele>
        <time>2021-08-21T11:57:44.475Z</time>
      </trkpt>
      <trkpt lat="47.59319" lon="-3.00405">
        <ele>12.60000038147</ele>
        <time>2021-08-21T11:57:51.981Z</time>
      </trkpt>
      <trkpt lat="47.59313" lon="-3.00403">
        <ele>12.800000190735</ele>
        <time>2021-08-21T11:57:59.488Z</time>
      </trkpt>
      <trkpt lat="47.59306" lon="-3.00401">
        <ele>13</ele>
        <time>2021-08-21T11:58:06.997Z</time>
      </trkpt>
      <trkpt lat="47.59304" lon="-3.00399">
        <ele>13.199999809265</ele>
        <time>2021-08-21T11:58:14.507Z</time>
      </trkpt>
      <trkpt lat="47.59287" lon="-3.00391">
        <ele>13.800000190735</ele>
        <time>2021-08-21T11:58:22.022Z</time>
      </trkpt>
      <trkpt lat="47.59276" lon="-3.00386">
        <ele>14.199999809265</ele>
        <time>2021-08-21T11:58:29.540Z</time>
      </trkpt>
      <trkpt lat="47.59264" lon="-3.0038">
        <ele>14.199999809265</ele>
        <time>2021-08-21T11:58:37.062Z</time>
      </trkpt>
      <trkpt lat="47.59237" lon="-3.00377">
        <ele>14.60000038147</ele>
        <time>2021-08-21T11:58:44.591Z</time>
      </trkpt>
      <trkpt lat="47.59222" lon="-3.00376">
        <ele>15</ele>
        <time>2021-08-21T11:58:52.124Z</time>
      </trkpt>
      <trkpt lat="47.59204" lon="-3.00366">
        <ele>15.800000190735</ele>
        <time>2021-08-21T11:58:59.662Z</time>
      </trkpt>
      <trkpt lat="47.59197" lon="-3.00363">
        <ele>16</ele>
        <time>2021-08-21T11:59:07.203Z</time>
      </trkpt>
      <trkpt lat="47.59182" lon="-3.00355">
        <ele>16.200000762939</ele>
        <time>2021-08-21T11:59:14.748Z</time>
      </trkpt>
      <trkpt lat="47.59174" lon="-3.00351">
        <ele>16.200000762939</ele>
        <time>2021-08-21T11:59:22.295Z</time>
      </trkpt>
      <trkpt lat="47.59161" lon="-3.00347">
        <ele>16</ele>
        <time>2021-08-21T11:59:29.846Z</time>
      </trkpt>
      <trkpt lat="47.59141" lon="-3.00347">
        <ele>16</ele>
        <time>2021-08-21T11:59:37.402Z</time>
      </trkpt>
      <trkpt lat="47.59133" lon="-3.00357">
        <ele>16</ele>
        <time>2021-08-21T11:59:44.961Z</time>
      </trkpt>
      <trkpt lat="47.5913" lon="-3.00377">
        <ele>16.60000038147</ele>
        <time>2021-08-21T11:59:52.524Z</time>
      </trkpt>
      <trkpt lat="47.59125" lon="-3.00405">
        <ele>16.39999961853</ele>
        <time>2021-08-21T12:00:00.092Z</time>
      </trkpt>
      <trkpt lat="47.59121" lon="-3.00428">
        <ele>15.199999809265</ele>
        <time>2021-08-21T12:00:07.665Z</time>
      </trkpt>
      <trkpt lat="47.59118" lon="-3.00444">
        <ele>15</ele>
        <time>2021-08-21T12:00:15.241Z</time>
      </trkpt>
      <trkpt lat="47.59117" lon="-3.00449">
        <ele>15</ele>
        <time>2021-08-21T12:00:22.818Z</time>
      </trkpt>
      <trkpt lat="47.59114" lon="-3.00453">
        <ele>15</ele>
        <time>2021-08-21T12:00:30.396Z</time>
      </trkpt>
      <trkpt lat="47.59096" lon="-3.00453">
        <ele>15.60000038147</ele>
        <time>2021-08-21T12:00:37.979Z</time>
      </trkpt>
      <trkpt lat="47.59059" lon="-3.00455">
        <ele>17.799999237061</ele>
        <time>2021-08-21T12:00:45.572Z</time>
      </trkpt>
      <trkpt lat="47.59031" lon="-3.00456">
        <ele>18.799999237061</ele>
        <time>2021-08-21T12:00:53.172Z</time>
      </trkpt>
      <trkpt lat="47.59024" lon="-3.00456">
        <ele>18.799999237061</ele>
        <time>2021-08-21T12:01:00.774Z</time>
      </trkpt>
      <trkpt lat="47.59016" lon="-3.00456">
        <ele>18.799999237061</ele>
        <time>2021-08-21T12:01:08.379Z</time>
      </trkpt>
      <trkpt lat="47.58996" lon="-3.00465">
        <ele>19.39999961853</ele>
        <time>2021-08-21T12:01:15.989Z</time>
      </trkpt>
      <trkpt lat="47.58982" lon="-3.00481">
        <ele>20.60000038147</ele>
        <time>2021-08-21T12:01:23.604Z</time>
      </trkpt>
      <trkpt lat="47.58976" lon="-3.00486">
        <ele>21</ele>
        <time>2021-08-21T12:01:31.221Z</time>
      </trkpt>
      <trkpt lat="47.58969" lon="-3.00489">
        <ele>20.799999237061</ele>
        <time>2021-08-21T12:01:38.840Z</time>
      </trkpt>
      <trkpt lat="47.58945" lon="-3.00499">
        <ele>20.200000762939</ele>
        <time>2021-08-21T12:01:46.466Z</time>
      </trkpt>
      <trkpt lat="47.58917" lon="-3.0052">
        <ele>19.200000762939</ele>
        <time>2021-08-21T12:01:54.101Z</time>
      </trkpt>
      <trkpt lat="47.58898" lon="-3.00544">
        <ele>19.60000038147</ele>
        <time>2021-08-21T12:02:01.742Z</time>
      </trkpt>
      <trkpt lat="47.58874" lon="-3.00571">
        <ele>20.39999961853</ele>
        <time>2021-08-21T12:02:09.392Z</time>
      </trkpt>
      <trkpt lat="47.58861" lon="-3.00578">
        <ele>20.200000762939</ele>
        <time>2021-08-21T12:02:17.046Z</time>
      </trkpt>
      <trkpt lat="47.58844" lon="-3.00587">
        <ele>19.799999237061</ele>
        <time>2021-08-21T12:02:24.704Z</time>
      </trkpt>
      <trkpt lat="47.58839" lon="-3.00589">
        <ele>19.60000038147</ele>
        <time>2021-08-21T12:02:32.364Z</time>
      </trkpt>
      <trkpt lat="47.58823" lon="-3.00593">
        <ele>18.39999961853</ele>
        <time>2021-08-21T12:02:40.028Z</time>
      </trkpt>
      <trkpt lat="47.58818" lon="-3.00594">
        <ele>17.799999237061</ele>
        <time>2021-08-21T12:02:47.694Z</time>
      </trkpt>
      <trkpt lat="47.58812" lon="-3.00595">
        <ele>17.200000762939</ele>
        <time>2021-08-21T12:02:55.362Z</time>
      </trkpt>
      <trkpt lat="47.58795" lon="-3.00592">
        <ele>16</ele>
        <time>2021-08-21T12:03:03.034Z</time>
      </trkpt>
      <trkpt lat="47.58771" lon="-3.00582">
        <ele>14.60000038147</ele>
        <time>2021-08-21T12:03:10.713Z</time>
      </trkpt>
      <trkpt lat="47.58756" lon="-3.00577">
        <ele>14.199999809265</ele>
        <time>2021-08-21T12:03:18.396Z</time>
      </trkpt>
      <trkpt lat="47.58747" lon="-3.0058">
        <ele>14.199999809265</ele>
        <time>2021-08-21T12:03:26.082Z</time>
      </trkpt>
      <trkpt lat="47.58738" lon="-3.00582">
        <ele>14.60000038147</ele>
        <time>2021-08-21T12:03:33.770Z</time>
      </trkpt>
      <trkpt lat="47.58716" lon="-3.00577">
        <ele>15</ele>
        <time>2021-08-21T12:03:41.464Z</time>
      </trkpt>
      <trkpt lat="47.58712" lon="-3.00575">
        <ele>15</ele>
        <time>2021-08-21T12:03:49.159Z</time>
      </trkpt>
      <trkpt lat="47.58705" lon="-3.00571">
        <ele>15</ele>
        <time>2021-08-21T12:03:56.857Z</time>
      </trkpt>
      <trkpt lat="47.58696" lon="-3.00567">
        <ele>15</ele>
        <time>2021-08-21T12:04:04.557Z</time>
      </trkpt>
      <trkpt lat="47.58684" lon="-3.00561">
        <ele>15</ele>
        <time>2021-08-21T12:04:12.261Z</time>
      </trkpt>
      <trkpt lat="47.58676" lon="-3.00557">
        <ele>15</ele>
        <time>2021-08-21T12:04:19.967Z</time>
      </trkpt>
      <trkpt lat="47.58673" lon="-3.00556">
        <ele>15</ele>
        <time>2021-08-21T12:04:27.674Z</time>
      </trkpt>
      <trkpt lat="47.58664" lon="-3.00552">
        <ele>15</ele>
        <time>2021-08-21T12:04:35.383Z</time>
      </trkpt>
      <trkpt lat="47.58642" lon="-3.00546">
        <ele>15</ele>
        <time>2021-08-21T12:04:43.098Z</time>
      </trkpt>
      <trkpt lat="47.58634" lon="-3.00543">
        <ele>15</ele>
        <time>2021-08-21T12:04:50.816Z</time>
      </trkpt>
      <trkpt lat="47.5863" lon="-3.00542">
        <ele>15</ele>
        <time>2021-08-21T12:04:58.535Z</time>
      </trkpt>
      <trkpt lat="47.58625" lon="-3.00541">
        <ele>15</ele>
        <time>2021-08-21T12:05:06.255Z</time>
      </trkpt>
      <trkpt lat="47.58612" lon="-3.00537">
        <ele>15</ele>
        <time>2021-08-21T12:05:13.979Z</time>
      </trkpt>
      <trkpt lat="47.58609" lon="-3.00533">
        <ele>15</ele>
        <time>2021-08-21T12:05:21.704Z</time>
      </trkpt>
      <trkpt lat="47.586" lon="-3.00517">
        <ele>15</ele>
        <time>2021-08-21T12:05:29.433Z</time>
      </trkpt>
      <trkpt lat="47.58582" lon="-3.00503">
        <ele>15.60000038147</ele>
        <time>2021-08-21T12:05:37.167Z</time>
      </trkpt>
      <trkpt lat="47.5858" lon="-3.00502">
        <ele>15.60000038147</ele>
        <time>2021-08-21T12:05:44.902Z</time>
      </trkpt>
      <trkpt lat="47.58541" lon="-3.00463">
        <ele>16</ele>
        <time>2021-08-21T12:05:52.650Z</time>
      </trkpt>
      <trkpt lat="47.58531" lon="-3.00463">
        <ele>16</ele>
        <time>2021-08-21T12:06:00.401Z</time>
      </trkpt>
      <trkpt lat="47.58528" lon="-3.00462">
        <ele>16</ele>
        <time>2021-08-21T12:06:08.152Z</time>
      </trkpt>
      <trkpt lat="47.58528" lon="-3.00463">
        <ele>16</ele>
        <time>2021-08-21T12:06:15.903Z</time>
      </trkpt>
      <trkpt lat="47.58528" lon="-3.00444">
        <ele>15.39999961853</ele>
        <time>2021-08-21T12:06:23.658Z</time>
      </trkpt>
      <trkpt lat="47.58528" lon="-3.00414">
        <ele>15</ele>
        <time>2021-08-21T12:06:31.418Z</time>
      </trkpt>
      <trkpt lat="47.58525" lon="-3.00409">
        <ele>14.800000190735</ele>
        <time>2021-08-21T12:06:39.180Z</time>
      </trkpt>
      <trkpt lat="47.58522" lon="-3.00405">
        <ele>14.800000190735</ele>
        <time>2021-08-21T12:06:46.943Z</time>
      </trkpt>
      <trkpt lat="47.58515" lon="-3.00402">
        <ele>14.39999961853</ele>
        <time>2021-08-21T12:06:54.708Z</time>
      </trkpt>
      <trkpt lat="47.58508" lon="-3.00399">
        <ele>14</ele>
        <time>2021-08-21T12:07:02.475Z</time>
      </trkpt>
      <trkpt lat="47.58504" lon="-3.00398">
        <ele>13.800000190735</ele>
        <time>2021-08-21T12:07:10.243Z</time>
      </trkpt>
      <trkpt lat="47.585" lon="-3.00399">
        <ele>13.60000038147</ele>
        <time>2021-08-21T12:07:18.012Z</time>
      </trkpt>
      <trkpt lat="47.58493" lon="-3.00402">
        <ele>13.199999809265</ele>
        <time>2021-08-21T12:07:25.783Z</time>
      </trkpt>
      <trkpt lat="47.58489" lon="-3.00405">
        <ele>13</ele>
        <time>2021-08-21T12:07:33.555Z</time>
      </trkpt>
      <trkpt lat="47.58473" lon="-3.00417">
        <ele>12</ele>
        <time>2021-08-21T12:07:41.332Z</time>
      </trkpt>
      <trkpt lat="47.58465" lon="-3.00416">
        <ele>11.60000038147</ele>
        <time>2021-08-21T12:07:49.111Z</time>
      </trkpt>
      <trkpt lat="47.58456" lon="-3.00411">
        <ele>11</ele>
        <time>2021-08-21T12:07:56.893Z</time>
      </trkpt>
      <trkpt lat="47.58457" lon="-3.00408">
        <ele>10.800000190735</ele>
        <time>2021-08-21T12:08:04.675Z</time>
      </trkpt>
      <trkpt lat="47.58461" lon="-3.00391">
        <ele>11</ele>
        <time>2021-08-21T12:08:12.461Z</time>
      </trkpt>
      <trkpt lat="47.58462" lon="-3.00386">
        <ele>11</ele>
        <time>2021-08-21T12:08:20.248Z</time>
      </trkpt>
      <trkpt lat="47.58448" lon="-3.00372">
        <ele>10</ele>
        <time>2021-08-21T12:08:28.039Z</time>
      </trkpt>
      <trkpt lat="47.58437" lon="-3.00361">
        <ele>10</ele>
        <time>2021-08-21T12:08:35.834Z</time>
      </trkpt>
      <trkpt lat="47.58428" lon="-3.0035">
        <ele>10</ele>
        <time>2021-08-21T12:08:43.632Z</time>
      </trkpt>
      <trkpt lat="47.5842" lon="-3.00333">
        <ele>10</ele>
        <time>2021-08-21T12:08:51.434Z</time>
      </trkpt>
      <trkpt lat="47.58424" lon="-3.00306">
        <ele>10.39999961853</ele>
        <time>2021-08-21T12:08:59.241Z</time>
      </trkpt>
      <trkpt lat="47.58426" lon="-3.00281">
        <ele>11.199999809265</ele>
        <time>2021-08-21T12:09:07.053Z</time>
      </trkpt>
      <trkpt lat="47.58424" lon="-3.00278">
        <ele>11.39999961853</ele>
        <time>2021-08-21T12:09:14.866Z</time>
      </trkpt>
      <trkpt lat="47.58405" lon="-3.00257">
        <ele>11.800000190735</ele>
        <time>2021-08-21T12:09:22.685Z</time>
      </trkpt>
      <trkpt lat="47.58402" lon="-3.00254">
        <ele>11.800000190735</ele>
        <time>2021-08-21T12:09:30.505Z</time>
      </trkpt>
      <trkpt lat="47.5839" lon="-3.00244">
        <ele>11.800000190735</ele>
        <time>2021-08-21T12:09:38.329Z</time>
      </trkpt>
      <trkpt lat="47.58382" lon="-3.00238">
        <ele>11.60000038147</ele>
        <time>2021-08-21T12:09:46.155Z</time>
      </trkpt>
      <trkpt lat="47.58378" lon="-3.00236">
        <ele>11.60000038147</ele>
        <time>2021-08-21T12:09:53.982Z</time>
      </trkpt>
      <trkpt lat="47.58373" lon="-3.00231">
        <ele>11.39999961853</ele>
        <time>2021-08-21T12:10:01.811Z</time>
      </trkpt>
      <trkpt lat="47.58369" lon="-3.00224">
        <ele>11.199999809265</ele>
        <time>2021-08-21T12:10:09.642Z</time>
      </trkpt>
      <trkpt lat="47.58356" lon="-3.00218">
        <ele>11</ele>
        <time>2021-08-21T12:10:17.476Z</time>
      </trkpt>
      <trkpt lat="47.58348" lon="-3.00214">
        <ele>11</ele>
        <time>2021-08-21T12:10:25.313Z</time>
      </trkpt>
      <trkpt lat="47.5834" lon="-3.00208">
        <ele>11</ele>
        <time>2021-08-21T12:10:33.152Z</time>
      </trkpt>
      <trkpt lat="47.58333" lon="-3.00207">
        <ele>10.800000190735</ele>
        <time>2021-08-21T12:10:40.993Z</time>
      </trkpt>
      <trkpt lat="47.58313" lon="-3.002">
        <ele>9.1999998092651</ele>
        <time>2021-08-21T12:10:48.840Z</time>
      </trkpt>
      <trkpt lat="47.58308" lon="-3.00199">
        <ele>9</ele>
        <time>2021-08-21T12:10:56.688Z</time>
      </trkpt>
      <trkpt lat="47.58298" lon="-3.00196">
        <ele>8.6000003814697</ele>
        <time>2021-08-21T12:11:04.539Z</time>
      </trkpt>
      <trkpt lat="47.58287" lon="-3.00193">
        <ele>8.1999998092651</ele>
        <time>2021-08-21T12:11:12.393Z</time>
      </trkpt>
      <trkpt lat="47.58272" lon="-3.00186">
        <ele>8.1999998092651</ele>
        <time>2021-08-21T12:11:20.251Z</time>
      </trkpt>
      <trkpt lat="47.58258" lon="-3.00184">
        <ele>8.8000001907349</ele>
        <time>2021-08-21T12:11:28.113Z</time>
      </trkpt>
      <trkpt lat="47.58238" lon="-3.00186">
        <ele>9.8000001907349</ele>
        <time>2021-08-21T12:11:35.981Z</time>
      </trkpt>
      <trkpt lat="47.58215" lon="-3.00187">
        <ele>9.8000001907349</ele>
        <time>2021-08-21T12:11:43.855Z</time>
      </trkpt>
      <trkpt lat="47.58193" lon="-3.00182">
        <ele>8.8000001907349</ele>
        <time>2021-08-21T12:11:51.735Z</time>
      </trkpt>
      <trkpt lat="47.58167" lon="-3.00166">
        <ele>8</ele>
        <time>2021-08-21T12:11:59.623Z</time>
      </trkpt>
      <trkpt lat="47.58136" lon="-3.00146">
        <ele>7.5999999046326</ele>
        <time>2021-08-21T12:12:07.520Z</time>
      </trkpt>
      <trkpt lat="47.58127" lon="-3.00141">
        <ele>7</ele>
        <time>2021-08-21T12:12:15.420Z</time>
      </trkpt>
      <trkpt lat="47.58112" lon="-3.00136">
        <ele>7</ele>
        <time>2021-08-21T12:12:23.324Z</time>
      </trkpt>
      <trkpt lat="47.58104" lon="-3.00133">
        <ele>6.5999999046326</ele>
        <time>2021-08-21T12:12:31.230Z</time>
      </trkpt>
      <trkpt lat="47.58101" lon="-3.00133">
        <ele>6.5999999046326</ele>
        <time>2021-08-21T12:12:39.137Z</time>
      </trkpt>
      <trkpt lat="47.58099" lon="-3.00147">
        <ele>6.4000000953674</ele>
        <time>2021-08-21T12:12:47.047Z</time>
      </trkpt>
      <trkpt lat="47.58096" lon="-3.00165">
        <ele>6.4000000953674</ele>
        <time>2021-08-21T12:12:54.960Z</time>
      </trkpt>
      <trkpt lat="47.58094" lon="-3.00178">
        <ele>6.4000000953674</ele>
        <time>2021-08-21T12:13:02.876Z</time>
      </trkpt>
      <trkpt lat="47.58091" lon="-3.00201">
        <ele>7</ele>
        <time>2021-08-21T12:13:10.796Z</time>
      </trkpt>
      <trkpt lat="47.58089" lon="-3.00211">
        <ele>7.1999998092651</ele>
        <time>2021-08-21T12:13:18.718Z</time>
      </trkpt>
      <trkpt lat="47.58089" lon="-3.00215">
        <ele>7.4000000953674</ele>
        <time>2021-08-21T12:13:26.641Z</time>
      </trkpt>
      <trkpt lat="47.5807" lon="-3.00208">
        <ele>6.4000000953674</ele>
        <time>2021-08-21T12:13:34.569Z</time>
      </trkpt>
      <trkpt lat="47.58067" lon="-3.00206">
        <ele>6.1999998092651</ele>
        <time>2021-08-21T12:13:42.498Z</time>
      </trkpt>
      <trkpt lat="47.5806" lon="-3.00199">
        <ele>5.8000001907349</ele>
        <time>2021-08-21T12:13:50.429Z</time>
      </trkpt>
      <trkpt lat="47.58054" lon="-3.00172">
        <ele>5</ele>
        <time>2021-08-21T12:13:58.365Z</time>
      </trkpt>
      <trkpt lat="47.58052" lon="-3.0016">
        <ele>5</ele>
        <time>2021-08-21T12:14:06.304Z</time>
      </trkpt>
      <trkpt lat="47.58036" lon="-3.0017">
        <ele>5</ele>
        <time>2021-08-21T12:14:14.247Z</time>
      </trkpt>
      <trkpt lat="47.58031" lon="-3.00184">
        <ele>5.1999998092651</ele>
        <time>2021-08-21T12:14:22.193Z</time>
      </trkpt>
      <trkpt lat="47.58028" lon="-3.00191">
        <ele>5.4000000953674</ele>
        <time>2021-08-21T12:14:30.141Z</time>
      </trkpt>
      <trkpt lat="47.58025" lon="-3.00192">
        <ele>5.4000000953674</ele>
        <time>2021-08-21T12:14:38.089Z</time>
      </trkpt>
      <trkpt lat="47.58018" lon="-3.00193">
        <ele>5.4000000953674</ele>
        <time>2021-08-21T12:14:46.039Z</time>
      </trkpt>
      <trkpt lat="47.58" lon="-3.00196">
        <ele>5.5999999046326</ele>
        <time>2021-08-21T12:14:53.995Z</time>
      </trkpt>
      <trkpt lat="47.57995" lon="-3.00196">
        <ele>5.5999999046326</ele>
        <time>2021-08-21T12:15:01.952Z</time>
      </trkpt>
      <trkpt lat="47.5799" lon="-3.00191">
        <ele>5.4000000953674</ele>
        <time>2021-08-21T12:15:09.910Z</time>
      </trkpt>
      <trkpt lat="47.57985" lon="-3.00188">
        <ele>5.1999998092651</ele>
        <time>2021-08-21T12:15:17.870Z</time>
      </trkpt>
      <trkpt lat="47.57978" lon="-3.00187">
        <ele>5.1999998092651</ele>
        <time>2021-08-21T12:15:25.832Z</time>
      </trkpt>
      <trkpt lat="47.57962" lon="-3.00182">
        <ele>5.4000000953674</ele>
        <time>2021-08-21T12:15:33.798Z</time>
      </trkpt>
      <trkpt lat="47.57948" lon="-3.0018">
        <ele>6</ele>
        <time>2021-08-21T12:15:41.768Z</time>
      </trkpt>
      <trkpt lat="47.57946" lon="-3.00176">
        <ele>6</ele>
        <time>2021-08-21T12:15:49.739Z</time>
      </trkpt>
      <trkpt lat="47.57945" lon="-3.0017">
        <ele>6</ele>
        <time>2021-08-21T12:15:57.711Z</time>
      </trkpt>
      <trkpt lat="47.57942" lon="-3.0014">
        <ele>6.1999998092651</ele>
        <time>2021-08-21T12:16:05.689Z</time>
      </trkpt>
      <trkpt lat="47.57934" lon="-3.00099">
        <ele>6.8000001907349</ele>
        <time>2021-08-21T12:16:13.675Z</time>
      </trkpt>
      <trkpt lat="47.57932" lon="-3.00092">
        <ele>7.1999998092651</ele>
        <time>2021-08-21T12:16:21.662Z</time>
      </trkpt>
      <trkpt lat="47.57929" lon="-3.00091">
        <ele>7.4000000953674</ele>
        <time>2021-08-21T12:16:29.650Z</time>
      </trkpt>
      <trkpt lat="47.57921" lon="-3.0009">
        <ele>8</ele>
        <time>2021-08-21T12:16:37.640Z</time>
      </trkpt>
      <trkpt lat="47.57907" lon="-3.00093">
        <ele>8</ele>
        <time>2021-08-21T12:16:45.634Z</time>
      </trkpt>
      <trkpt lat="47.57892" lon="-3.0009">
        <ele>7.8000001907349</ele>
        <time>2021-08-21T12:16:53.632Z</time>
      </trkpt>
      <trkpt lat="47.57874" lon="-3.00085">
        <ele>7.5999999046326</ele>
        <time>2021-08-21T12:17:01.635Z</time>
      </trkpt>
      <trkpt lat="47.57866" lon="-3.0009">
        <ele>7.8000001907349</ele>
        <time>2021-08-21T12:17:09.641Z</time>
      </trkpt>
      <trkpt lat="47.57865" lon="-3.00093">
        <ele>7.8000001907349</ele>
        <time>2021-08-21T12:17:17.647Z</time>
      </trkpt>
      <trkpt lat="47.57861" lon="-3.00104">
        <ele>8</ele>
        <time>2021-08-21T12:17:25.656Z</time>
      </trkpt>
      <trkpt lat="47.57859" lon="-3.00139">
        <ele>8.1999998092651</ele>
        <time>2021-08-21T12:17:33.671Z</time>
      </trkpt>
      <trkpt lat="47.57858" lon="-3.00145">
        <ele>8.1999998092651</ele>
        <time>2021-08-21T12:17:41.687Z</time>
      </trkpt>
      <trkpt lat="47.57853" lon="-3.00175">
        <ele>8.3999996185303</ele>
        <time>2021-08-21T12:17:49.709Z</time>
      </trkpt>
      <trkpt lat="47.57846" lon="-3.00189">
        <ele>9</ele>
        <time>2021-08-21T12:17:57.734Z</time>
      </trkpt>
      <trkpt lat="47.57838" lon="-3.00193">
        <ele>9.3999996185303</ele>
        <time>2021-08-21T12:18:05.761Z</time>
      </trkpt>
      <trkpt lat="47.57834" lon="-3.00195">
        <ele>9.6000003814697</ele>
        <time>2021-08-21T12:18:13.790Z</time>
      </trkpt>
      <trkpt lat="47.57831" lon="-3.00197">
        <ele>9.8000001907349</ele>
        <time>2021-08-21T12:18:21.819Z</time>
      </trkpt>
      <trkpt lat="47.57831" lon="-3.00206">
        <ele>10</ele>
        <time>2021-08-21T12:18:29.850Z</time>
      </trkpt>
      <trkpt lat="47.57833" lon="-3.00239">
        <ele>10.199999809265</ele>
        <time>2021-08-21T12:18:37.887Z</time>
      </trkpt>
      <trkpt lat="47.57833" lon="-3.00244">
        <ele>10.60000038147</ele>
        <time>2021-08-21T12:18:45.925Z</time>
      </trkpt>
      <trkpt lat="47.57837" lon="-3.00292">
        <ele>13</ele>
        <time>2021-08-21T12:18:53.972Z</time>
      </trkpt>
      <trkpt lat="47.57837" lon="-3.00299">
        <ele>13.199999809265</ele>
        <time>2021-08-21T12:19:02.020Z</time>
      </trkpt>
      <trkpt lat="47.57837" lon="-3.00307">
        <ele>13.39999961853</ele>
        <time>2021-08-21T12:19:10.070Z</time>
      </trkpt>
      <trkpt lat="47.57836" lon="-3.0031">
        <ele>13.60000038147</ele>
        <time>2021-08-21T12:19:18.121Z</time>
      </trkpt>
      <trkpt lat="47.57834" lon="-3.00317">
        <ele>14</ele>
        <time>2021-08-21T12:19:26.173Z</time>
      </trkpt>
      <trkpt lat="47.57834" lon="-3.00321">
        <ele>14</ele>
        <time>2021-08-21T12:19:34.226Z</time>
      </trkpt>
      <trkpt lat="47.57834" lon="-3.00324">
        <ele>14.199999809265</ele>
        <time>2021-08-21T12:19:42.279Z</time>
      </trkpt>
      <trkpt lat="47.57834" lon="-3.00335">
        <ele>14.60000038147</ele>
        <time>2021-08-21T12:19:50.334Z</time>
      </trkpt>
      <trkpt lat="47.57835" lon="-3.00343">
        <ele>14.800000190735</ele>
        <time>2021-08-21T12:19:58.391Z</time>
      </trkpt>
      <trkpt lat="47.57836" lon="-3.00352">
        <ele>15</ele>
        <time>2021-08-21T12:20:06.449Z</time>
      </trkpt>
      <trkpt lat="47.57843" lon="-3.00378">
        <ele>14.199999809265</ele>
        <time>2021-08-21T12:20:14.513Z</time>
      </trkpt>
      <trkpt lat="47.57852" lon="-3.00384">
        <ele>13.199999809265</ele>
        <time>2021-08-21T12:20:22.580Z</time>
      </trkpt>
      <trkpt lat="47.5787" lon="-3.00381">
        <ele>12.800000190735</ele>
        <time>2021-08-21T12:20:30.651Z</time>
      </trkpt>
      <trkpt lat="47.57879" lon="-3.00399">
        <ele>12.39999961853</ele>
        <time>2021-08-21T12:20:38.726Z</time>
      </trkpt>
      <trkpt lat="47.5788" lon="-3.0041">
        <ele>12.39999961853</ele>
        <time>2021-08-21T12:20:46.804Z</time>
      </trkpt>
      <trkpt lat="47.5788" lon="-3.00428">
        <ele>12.39999961853</ele>
        <time>2021-08-21T12:20:54.885Z</time>
      </trkpt>
      <trkpt lat="47.5788" lon="-3.00441">
        <ele>12.39999961853</ele>
        <time>2021-08-21T12:21:02.968Z</time>
      </trkpt>
      <trkpt lat="47.57881" lon="-3.00457">
        <ele>11.800000190735</ele>
        <time>2021-08-21T12:21:11.054Z</time>
      </trkpt>
      <trkpt lat="47.57881" lon="-3.00485">
        <ele>11.39999961853</ele>
        <time>2021-08-21T12:21:19.146Z</time>
      </trkpt>
      <trkpt lat="47.57882" lon="-3.00514">
        <ele>10.39999961853</ele>
        <time>2021-08-21T12:21:27.243Z</time>
      </trkpt>
      <trkpt lat="47.57883" lon="-3.00522">
        <ele>9.8000001907349</ele>
        <time>2021-08-21T12:21:35.341Z</time>
      </trkpt>
      <trkpt lat="47.57883" lon="-3.00529">
        <ele>9.1999998092651</ele>
        <time>2021-08-21T12:21:43.441Z</time>
      </trkpt>
      <trkpt lat="47.57885" lon="-3.00543">
        <ele>8.1999998092651</ele>
        <time>2021-08-21T12:21:51.543Z</time>
      </trkpt>
      <trkpt lat="47.57885" lon="-3.0055">
        <ele>8.1999998092651</ele>
        <time>2021-08-21T12:21:59.647Z</time>
      </trkpt>
      <trkpt lat="47.57883" lon="-3.00564">
        <ele>8.1999998092651</ele>
        <time>2021-08-21T12:22:07.753Z</time>
      </trkpt>
      <trkpt lat="47.57881" lon="-3.00576">
        <ele>8.3999996185303</ele>
        <time>2021-08-21T12:22:15.862Z</time>
      </trkpt>
      <trkpt lat="47.57886" lon="-3.00584">
        <ele>8.1999998092651</ele>
        <time>2021-08-21T12:22:23.973Z</time>
      </trkpt>
      <trkpt lat="47.57895" lon="-3.00589">
        <ele>8</ele>
        <time>2021-08-21T12:22:32.086Z</time>
      </trkpt>
      <trkpt lat="47.57901" lon="-3.00592">
        <ele>8.1999998092651</ele>
        <time>2021-08-21T12:22:40.201Z</time>
      </trkpt>
      <trkpt lat="47.57903" lon="-3.00592">
        <ele>8.1999998092651</ele>
        <time>2021-08-21T12:22:48.316Z</time>
      </trkpt>
      <trkpt lat="47.57915" lon="-3.00601">
        <ele>9</ele>
        <time>2021-08-21T12:22:56.435Z</time>
      </trkpt>
      <trkpt lat="47.57932" lon="-3.00614">
        <ele>9</ele>
        <time>2021-08-21T12:23:04.559Z</time>
      </trkpt>
      <trkpt lat="47.57948" lon="-3.0063">
        <ele>9</ele>
        <time>2021-08-21T12:23:12.689Z</time>
      </trkpt>
      <trkpt lat="47.57959" lon="-3.00637">
        <ele>9</ele>
        <time>2021-08-21T12:23:20.822Z</time>
      </trkpt>
      <trkpt lat="47.57967" lon="-3.00643">
        <ele>8.6000003814697</ele>
        <time>2021-08-21T12:23:28.957Z</time>
      </trkpt>
      <trkpt lat="47.57983" lon="-3.00651">
        <ele>8</ele>
        <time>2021-08-21T12:23:37.097Z</time>
      </trkpt>
      <trkpt lat="47.57988" lon="-3.00654">
        <ele>8</ele>
        <time>2021-08-21T12:23:45.239Z</time>
      </trkpt>
      <trkpt lat="47.58012" lon="-3.00665">
        <ele>8</ele>
        <time>2021-08-21T12:23:53.387Z</time>
      </trkpt>
      <trkpt lat="47.58031" lon="-3.00678">
        <ele>7</ele>
        <time>2021-08-21T12:24:01.541Z</time>
      </trkpt>
      <trkpt lat="47.58036" lon="-3.00682">
        <ele>7</ele>
        <time>2021-08-21T12:24:09.697Z</time>
      </trkpt>
      <trkpt lat="47.58053" lon="-3.00696">
        <ele>6.5999999046326</ele>
        <time>2021-08-21T12:24:17.858Z</time>
      </trkpt>
      <trkpt lat="47.58077" lon="-3.00711">
        <ele>6</ele>
        <time>2021-08-21T12:24:26.026Z</time>
      </trkpt>
      <trkpt lat="47.58094" lon="-3.00717">
        <ele>6.1999998092651</ele>
        <time>2021-08-21T12:24:34.199Z</time>
      </trkpt>
      <trkpt lat="47.58106" lon="-3.0072">
        <ele>6.8000001907349</ele>
        <time>2021-08-21T12:24:42.375Z</time>
      </trkpt>
      <trkpt lat="47.5812" lon="-3.00719">
        <ele>7.4000000953674</ele>
        <time>2021-08-21T12:24:50.555Z</time>
      </trkpt>
      <trkpt lat="47.5814" lon="-3.00721">
        <ele>9</ele>
        <time>2021-08-21T12:24:58.741Z</time>
      </trkpt>
      <trkpt lat="47.58146" lon="-3.00724">
        <ele>9</ele>
        <time>2021-08-21T12:25:06.928Z</time>
      </trkpt>
      <trkpt lat="47.58151" lon="-3.00728">
        <ele>9</ele>
        <time>2021-08-21T12:25:15.117Z</time>
      </trkpt>
      <trkpt lat="47.58167" lon="-3.00741">
        <ele>8.8000001907349</ele>
        <time>2021-08-21T12:25:23.311Z</time>
      </trkpt>
      <trkpt lat="47.58176" lon="-3.00749">
        <ele>8.1999998092651</ele>
        <time>2021-08-21T12:25:31.508Z</time>
      </trkpt>
      <trkpt lat="47.58186" lon="-3.00761">
        <ele>7.4000000953674</ele>
        <time>2021-08-21T12:25:39.708Z</time>
      </trkpt>
      <trkpt lat="47.58194" lon="-3.0077">
        <ele>7</ele>
        <time>2021-08-21T12:25:47.911Z</time>
      </trkpt>
      <trkpt lat="47.58194" lon="-3.00771">
        <ele>7</ele>
        <time>2021-08-21T12:25:56.114Z</time>
      </trkpt>
      <trkpt lat="47.58192" lon="-3.00787">
        <ele>6.5999999046326</ele>
        <time>2021-08-21T12:26:04.320Z</time>
      </trkpt>
      <trkpt lat="47.58189" lon="-3.00814">
        <ele>6.1999998092651</ele>
        <time>2021-08-21T12:26:12.531Z</time>
      </trkpt>
      <trkpt lat="47.58187" lon="-3.00834">
        <ele>6.1999998092651</ele>
        <time>2021-08-21T12:26:20.746Z</time>
      </trkpt>
      <trkpt lat="47.58185" lon="-3.00873">
        <ele>6.5999999046326</ele>
        <time>2021-08-21T12:26:28.968Z</time>
      </trkpt>
      <trkpt lat="47.58185" lon="-3.0088">
        <ele>6.4000000953674</ele>
        <time>2021-08-21T12:26:37.192Z</time>
      </trkpt>
      <trkpt lat="47.58184" lon="-3.00892">
        <ele>5.8000001907349</ele>
        <time>2021-08-21T12:26:45.418Z</time>
      </trkpt>
      <trkpt lat="47.58182" lon="-3.00898">
        <ele>5.4000000953674</ele>
        <time>2021-08-21T12:26:53.645Z</time>
      </trkpt>
      <trkpt lat="47.58181" lon="-3.00905">
        <ele>5</ele>
        <time>2021-08-21T12:27:01.873Z</time>
      </trkpt>
      <trkpt lat="47.58177" lon="-3.00917">
        <ele>5</ele>
        <time>2021-08-21T12:27:10.104Z</time>
      </trkpt>
      <trkpt lat="47.58174" lon="-3.00929">
        <ele>5</ele>
        <time>2021-08-21T12:27:18.337Z</time>
      </trkpt>
      <trkpt lat="47.58162" lon="-3.00974">
        <ele>5.1999998092651</ele>
        <time>2021-08-21T12:27:26.579Z</time>
      </trkpt>
      <trkpt lat="47.58157" lon="-3.00992">
        <ele>5.5999999046326</ele>
        <time>2021-08-21T12:27:34.825Z</time>
      </trkpt>
      <trkpt lat="47.58156" lon="-3.00996">
        <ele>5.8000001907349</ele>
        <time>2021-08-21T12:27:43.072Z</time>
      </trkpt>
      <trkpt lat="47.58164" lon="-3.01004">
        <ele>6.4000000953674</ele>
        <time>2021-08-21T12:27:51.321Z</time>
      </trkpt>
      <trkpt lat="47.58167" lon="-3.01006">
        <ele>6.4000000953674</ele>
        <time>2021-08-21T12:27:59.571Z</time>
      </trkpt>
      <trkpt lat="47.58178" lon="-3.01012">
        <ele>7</ele>
        <time>2021-08-21T12:28:07.824Z</time>
      </trkpt>
      <trkpt lat="47.5819" lon="-3.01019">
        <ele>7.1999998092651</ele>
        <time>2021-08-21T12:28:16.081Z</time>
      </trkpt>
      <trkpt lat="47.58205" lon="-3.01027">
        <ele>8.1999998092651</ele>
        <time>2021-08-21T12:28:24.342Z</time>
      </trkpt>
      <trkpt lat="47.58227" lon="-3.01038">
        <ele>8.8000001907349</ele>
        <time>2021-08-21T12:28:32.610Z</time>
      </trkpt>
      <trkpt lat="47.58241" lon="-3.01049">
        <ele>9</ele>
        <time>2021-08-21T12:28:40.882Z</time>
      </trkpt>
      <trkpt lat="47.58244" lon="-3.01055">
        <ele>9</ele>
        <time>2021-08-21T12:28:49.155Z</time>
      </trkpt>
      <trkpt lat="47.5825" lon="-3.01068">
        <ele>9</ele>
        <time>2021-08-21T12:28:57.431Z</time>
      </trkpt>
      <trkpt lat="47.58262" lon="-3.01092">
        <ele>9.6000003814697</ele>
        <time>2021-08-21T12:29:05.713Z</time>
      </trkpt>
      <trkpt lat="47.58267" lon="-3.01104">
        <ele>9.3999996185303</ele>
        <time>2021-08-21T12:29:13.998Z</time>
      </trkpt>
      <trkpt lat="47.58277" lon="-3.01117">
        <ele>9.8000001907349</ele>
        <time>2021-08-21T12:29:22.286Z</time>
      </trkpt>
      <trkpt lat="47.58288" lon="-3.01123">
        <ele>9.8000001907349</ele>
        <time>2021-08-21T12:29:30.577Z</time>
      </trkpt>
      <trkpt lat="47.58307" lon="-3.01132">
        <ele>9.1999998092651</ele>
        <time>2021-08-21T12:29:38.874Z</time>
      </trkpt>
      <trkpt lat="47.58318" lon="-3.01144">
        <ele>10.39999961853</ele>
        <time>2021-08-21T12:29:47.175Z</time>
      </trkpt>
      <trkpt lat="47.58321" lon="-3.01147">
        <ele>10.39999961853</ele>
        <time>2021-08-21T12:29:55.477Z</time>
      </trkpt>
      <trkpt lat="47.58333" lon="-3.01163">
        <ele>10.800000190735</ele>
        <time>2021-08-21T12:30:03.783Z</time>
      </trkpt>
      <trkpt lat="47.58343" lon="-3.01176">
        <ele>11.39999961853</ele>
        <time>2021-08-21T12:30:12.093Z</time>
      </trkpt>
      <trkpt lat="47.58352" lon="-3.01188">
        <ele>11.60000038147</ele>
        <time>2021-08-21T12:30:20.406Z</time>
      </trkpt>
      <trkpt lat="47.58362" lon="-3.01213">
        <ele>10.60000038147</ele>
        <time>2021-08-21T12:30:28.725Z</time>
      </trkpt>
      <trkpt lat="47.58376" lon="-3.01225">
        <ele>9.8000001907349</ele>
        <time>2021-08-21T12:30:37.048Z</time>
      </trkpt>
      <trkpt lat="47.58377" lon="-3.01227">
        <ele>9.8000001907349</ele>
        <time>2021-08-21T12:30:45.371Z</time>
      </trkpt>
      <trkpt lat="47.58378" lon="-3.01228">
        <ele>9.6000003814697</ele>
        <time>2021-08-21T12:30:53.695Z</time>
      </trkpt>
      <trkpt lat="47.58383" lon="-3.01233">
        <ele>9.1999998092651</ele>
        <time>2021-08-21T12:31:02.020Z</time>
      </trkpt>
      <trkpt lat="47.58393" lon="-3.01242">
        <ele>8.8000001907349</ele>
        <time>2021-08-21T12:31:10.349Z</time>
      </trkpt>
      <trkpt lat="47.58402" lon="-3.0125">
        <ele>8.6000003814697</ele>
        <time>2021-08-21T12:31:18.680Z</time>
      </trkpt>
      <trkpt lat="47.58413" lon="-3.0126">
        <ele>8.1999998092651</ele>
        <time>2021-08-21T12:31:27.015Z</time>
      </trkpt>
      <trkpt lat="47.58414" lon="-3.01277">
        <ele>8</ele>
        <time>2021-08-21T12:31:35.353Z</time>
      </trkpt>
      <trkpt lat="47.58407" lon="-3.01303">
        <ele>8</ele>
        <time>2021-08-21T12:31:43.696Z</time>
      </trkpt>
      <trkpt lat="47.58399" lon="-3.01333">
        <ele>7.8000001907349</ele>
        <time>2021-08-21T12:31:52.045Z</time>
      </trkpt>
      <trkpt lat="47.58397" lon="-3.0134">
        <ele>7.5999999046326</ele>
        <time>2021-08-21T12:32:00.395Z</time>
      </trkpt>
      <trkpt lat="47.58388" lon="-3.01377">
        <ele>4.8000001907349</ele>
        <time>2021-08-21T12:32:08.753Z</time>
      </trkpt>
      <trkpt lat="47.5838" lon="-3.01409">
        <ele>3.4000000953674</ele>
        <time>2021-08-21T12:32:17.117Z</time>
      </trkpt>
      <trkpt lat="47.58373" lon="-3.01433">
        <ele>2.4000000953674</ele>
        <time>2021-08-21T12:32:25.486Z</time>
      </trkpt>
      <trkpt lat="47.58377" lon="-3.01451">
        <ele>3.4000000953674</ele>
        <time>2021-08-21T12:32:33.859Z</time>
      </trkpt>
      <trkpt lat="47.58385" lon="-3.01471">
        <ele>5</ele>
        <time>2021-08-21T12:32:42.236Z</time>
      </trkpt>
      <trkpt lat="47.58395" lon="-3.01493">
        <ele>6.5999999046326</ele>
        <time>2021-08-21T12:32:50.618Z</time>
      </trkpt>
      <trkpt lat="47.58413" lon="-3.01521">
        <ele>9.3999996185303</ele>
        <time>2021-08-21T12:32:59.007Z</time>
      </trkpt>
      <trkpt lat="47.58432" lon="-3.01537">
        <ele>11.800000190735</ele>
        <time>2021-08-21T12:33:07.402Z</time>
      </trkpt>
      <trkpt lat="47.58449" lon="-3.0155">
        <ele>13</ele>
        <time>2021-08-21T12:33:15.802Z</time>
      </trkpt>
      <trkpt lat="47.58466" lon="-3.01561">
        <ele>12.60000038147</ele>
        <time>2021-08-21T12:33:24.207Z</time>
      </trkpt>
      <trkpt lat="47.58493" lon="-3.01567">
        <ele>13</ele>
        <time>2021-08-21T12:33:32.620Z</time>
      </trkpt>
      <trkpt lat="47.58507" lon="-3.01571">
        <ele>13</ele>
        <time>2021-08-21T12:33:41.037Z</time>
      </trkpt>
      <trkpt lat="47.58524" lon="-3.01575">
        <ele>13</ele>
        <time>2021-08-21T12:33:49.458Z</time>
      </trkpt>
      <trkpt lat="47.5855" lon="-3.01582">
        <ele>12.39999961853</ele>
        <time>2021-08-21T12:33:57.887Z</time>
      </trkpt>
      <trkpt lat="47.58577" lon="-3.01589">
        <ele>12.60000038147</ele>
        <time>2021-08-21T12:34:06.323Z</time>
      </trkpt>
      <trkpt lat="47.58605" lon="-3.01596">
        <ele>11.60000038147</ele>
        <time>2021-08-21T12:34:14.767Z</time>
      </trkpt>
      <trkpt lat="47.58614" lon="-3.01598">
        <ele>11</ele>
        <time>2021-08-21T12:34:23.213Z</time>
      </trkpt>
      <trkpt lat="47.58636" lon="-3.01604">
        <ele>10.199999809265</ele>
        <time>2021-08-21T12:34:31.666Z</time>
      </trkpt>
      <trkpt lat="47.58676" lon="-3.01614">
        <ele>9.8000001907349</ele>
        <time>2021-08-21T12:34:40.130Z</time>
      </trkpt>
      <trkpt lat="47.58706" lon="-3.01621">
        <ele>8.6000003814697</ele>
        <time>2021-08-21T12:34:48.602Z</time>
      </trkpt>
      <trkpt lat="47.58742" lon="-3.0163">
        <ele>7.4000000953674</ele>
        <time>2021-08-21T12:34:57.084Z</time>
      </trkpt>
      <trkpt lat="47.58779" lon="-3.01639">
        <ele>8</ele>
        <time>2021-08-21T12:35:05.576Z</time>
      </trkpt>
      <trkpt lat="47.5879" lon="-3.01641">
        <ele>8.3999996185303</ele>
        <time>2021-08-21T12:35:14.071Z</time>
      </trkpt>
      <trkpt lat="47.58794" lon="-3.01642">
        <ele>8.6000003814697</ele>
        <time>2021-08-21T12:35:22.568Z</time>
      </trkpt>
      <trkpt lat="47.58805" lon="-3.01645">
        <ele>8.8000001907349</ele>
        <time>2021-08-21T12:35:31.068Z</time>
      </trkpt>
      <trkpt lat="47.58815" lon="-3.01647">
        <ele>8.6000003814697</ele>
        <time>2021-08-21T12:35:39.570Z</time>
      </trkpt>
      <trkpt lat="47.58833" lon="-3.01628">
        <ele>7.1999998092651</ele>
        <time>2021-08-21T12:35:48.078Z</time>
      </trkpt>
      <trkpt lat="47.58834" lon="-3.01628">
        <ele>7.1999998092651</ele>
        <time>2021-08-21T12:35:56.587Z</time>
      </trkpt>
      <trkpt lat="47.58838" lon="-3.01625">
        <ele>7</ele>
        <time>2021-08-21T12:36:05.097Z</time>
      </trkpt>
      <trkpt lat="47.5885" lon="-3.01627">
        <ele>7</ele>
        <time>2021-08-21T12:36:13.610Z</time>
      </trkpt>
      <trkpt lat="47.58856" lon="-3.01642">
        <ele>7</ele>
        <time>2021-08-21T12:36:22.127Z</time>
      </trkpt>
      <trkpt lat="47.58857" lon="-3.01646">
        <ele>6.8000001907349</ele>
        <time>2021-08-21T12:36:30.644Z</time>
      </trkpt>
      <trkpt lat="47.58853" lon="-3.01656">
        <ele>6.8000001907349</ele>
        <time>2021-08-21T12:36:39.163Z</time>
      </trkpt>
      <trkpt lat="47.5885" lon="-3.01673">
        <ele>7.4000000953674</ele>
        <time>2021-08-21T12:36:47.686Z</time>
      </trkpt>
      <trkpt lat="47.5885" lon="-3.0168">
        <ele>7.4000000953674</ele>
        <time>2021-08-21T12:36:56.210Z</time>
      </trkpt>
      <trkpt lat="47.5885" lon="-3.01695">
        <ele>8.3999996185303</ele>
        <time>2021-08-21T12:37:04.737Z</time>
      </trkpt>
      <trkpt lat="47.58856" lon="-3.01724">
        <ele>8.6000003814697</ele>
        <time>2021-08-21T12:37:13.269Z</time>
      </trkpt>
      <trkpt lat="47.58873" lon="-3.01787">
        <ele>7.4000000953674</ele>
        <time>2021-08-21T12:37:21.814Z</time>
      </trkpt>
      <trkpt lat="47.58875" lon="-3.01794">
        <ele>7.1999998092651</ele>
        <time>2021-08-21T12:37:30.360Z</time>
      </trkpt>
      <trkpt lat="47.58884" lon="-3.01821">
        <ele>6.4000000953674</ele>
        <time>2021-08-21T12:37:38.912Z</time>
      </trkpt>
      <trkpt lat="47.58886" lon="-3.01828">
        <ele>6.1999998092651</ele>
        <time>2021-08-21T12:37:47.465Z</time>
      </trkpt>
      <trkpt lat="47.58903" lon="-3.01873">
        <ele>5.5999999046326</ele>
        <time>2021-08-21T12:37:56.028Z</time>
      </trkpt>
      <trkpt lat="47.58924" lon="-3.01913">
        <ele>6</ele>
        <time>2021-08-21T12:38:04.600Z</time>
      </trkpt>
      <trkpt lat="47.58943" lon="-3.01944">
        <ele>7.8000001907349</ele>
        <time>2021-08-21T12:38:13.180Z</time>
      </trkpt>
      <trkpt lat="47.58956" lon="-3.01962">
        <ele>9.1999998092651</ele>
        <time>2021-08-21T12:38:21.765Z</time>
      </trkpt>
      <trkpt lat="47.58969" lon="-3.01982">
        <ele>11</ele>
        <time>2021-08-21T12:38:30.355Z</time>
      </trkpt>
      <trkpt lat="47.58972" lon="-3.01986">
        <ele>11.800000190735</ele>
        <time>2021-08-21T12:38:38.946Z</time>
      </trkpt>
      <trkpt lat="47.58992" lon="-3.02015">
        <ele>15.800000190735</ele>
        <time>2021-08-21T12:38:47.545Z</time>
      </trkpt>
      <trkpt lat="47.59013" lon="-3.02045">
        <ele>18.39999961853</ele>
        <time>2021-08-21T12:38:56.152Z</time>
      </trkpt>
      <trkpt lat="47.59019" lon="-3.02054">
        <ele>19</ele>
        <time>2021-08-21T12:39:04.761Z</time>
      </trkpt>
      <trkpt lat="47.59025" lon="-3.02063">
        <ele>19.60000038147</ele>
        <time>2021-08-21T12:39:13.372Z</time>
      </trkpt>
      <trkpt lat="47.59046" lon="-3.02094">
        <ele>20</ele>
        <time>2021-08-21T12:39:21.992Z</time>
      </trkpt>
      <trkpt lat="47.59067" lon="-3.02126">
        <ele>18</ele>
        <time>2021-08-21T12:39:30.620Z</time>
      </trkpt>
      <trkpt lat="47.5907" lon="-3.02131">
        <ele>17.200000762939</ele>
        <time>2021-08-21T12:39:39.249Z</time>
      </trkpt>
      <trkpt lat="47.59075" lon="-3.02137">
        <ele>16.39999961853</ele>
        <time>2021-08-21T12:39:47.880Z</time>
      </trkpt>
      <trkpt lat="47.59094" lon="-3.02166">
        <ele>14.199999809265</ele>
        <time>2021-08-21T12:39:56.518Z</time>
      </trkpt>
      <trkpt lat="47.59121" lon="-3.02206">
        <ele>10.199999809265</ele>
        <time>2021-08-21T12:40:05.167Z</time>
      </trkpt>
      <trkpt lat="47.59149" lon="-3.02248">
        <ele>2</ele>
        <time>2021-08-21T12:40:13.827Z</time>
      </trkpt>
      <trkpt lat="47.5918" lon="-3.02294">
        <time>2021-08-21T12:40:22.499Z</time>
      </trkpt>
      <trkpt lat="47.59211" lon="-3.02339">
        <ele>1</ele>
        <time>2021-08-21T12:40:31.183Z</time>
      </trkpt>
      <trkpt lat="47.59232" lon="-3.02371">
        <ele>2.7</ele>
        <time>2021-08-21T12:40:39.875Z</time>
      </trkpt>
      <trkpt lat="47.59247" lon="-3.02393">
        <ele>4.9</ele>
        <time>2021-08-21T12:40:48.573Z</time>
      </trkpt>
      <trkpt lat="47.59253" lon="-3.02401">
        <ele>5.5</ele>
        <time>2021-08-21T12:40:57.273Z</time>
      </trkpt>
      <trkpt lat="47.59272" lon="-3.02432">
        <ele>6.4000000953674</ele>
        <time>2021-08-21T12:41:05.981Z</time>
      </trkpt>
      <trkpt lat="47.59286" lon="-3.02458">
        <ele>10</ele>
        <time>2021-08-21T12:41:14.695Z</time>
      </trkpt>
      <trkpt lat="47.59302" lon="-3.02473">
        <ele>10</ele>
        <time>2021-08-21T12:41:23.414Z</time>
      </trkpt>
      <trkpt lat="47.59312" lon="-3.02493">
        <ele>9.8000001907349</ele>
        <time>2021-08-21T12:41:32.138Z</time>
      </trkpt>
      <trkpt lat="47.59315" lon="-3.02499">
        <ele>9.8000001907349</ele>
        <time>2021-08-21T12:41:40.863Z</time>
      </trkpt>
      <trkpt lat="47.59318" lon="-3.02506">
        <ele>9.6000003814697</ele>
        <time>2021-08-21T12:41:49.590Z</time>
      </trkpt>
      <trkpt lat="47.59326" lon="-3.02536">
        <ele>10.39999961853</ele>
        <time>2021-08-21T12:41:58.323Z</time>
      </trkpt>
      <trkpt lat="47.59338" lon="-3.02588">
        <ele>13.39999961853</ele>
        <time>2021-08-21T12:42:07.066Z</time>
      </trkpt>
      <trkpt lat="47.5935" lon="-3.02633">
        <ele>15.60000038147</ele>
        <time>2021-08-21T12:42:15.818Z</time>
      </trkpt>
      <trkpt lat="47.59352" lon="-3.02639">
        <ele>15.60000038147</ele>
        <time>2021-08-21T12:42:24.571Z</time>
      </trkpt>
      <trkpt lat="47.59356" lon="-3.02653">
        <ele>15.800000190735</ele>
        <time>2021-08-21T12:42:33.327Z</time>
      </trkpt>
      <trkpt lat="47.59361" lon="-3.02664">
        <ele>15.60000038147</ele>
        <time>2021-08-21T12:42:42.085Z</time>
      </trkpt>
      <trkpt lat="47.59373" lon="-3.02683">
        <ele>14.60000038147</ele>
        <time>2021-08-21T12:42:50.848Z</time>
      </trkpt>
      <trkpt lat="47.5939" lon="-3.02709">
        <ele>13</ele>
        <time>2021-08-21T12:42:59.618Z</time>
      </trkpt>
      <trkpt lat="47.59397" lon="-3.0272">
        <ele>13.199999809265</ele>
        <time>2021-08-21T12:43:08.391Z</time>
      </trkpt>
      <trkpt lat="47.59401" lon="-3.02735">
        <ele>13.60000038147</ele>
        <time>2021-08-21T12:43:17.167Z</time>
      </trkpt>
      <trkpt lat="47.59403" lon="-3.02742">
        <ele>13.800000190735</ele>
        <time>2021-08-21T12:43:25.944Z</time>
      </trkpt>
      <trkpt lat="47.59404" lon="-3.02758">
        <ele>14.199999809265</ele>
        <time>2021-08-21T12:43:34.724Z</time>
      </trkpt>
      <trkpt lat="47.59406" lon="-3.02788">
        <ele>14.800000190735</ele>
        <time>2021-08-21T12:43:43.510Z</time>
      </trkpt>
      <trkpt lat="47.59407" lon="-3.02804">
        <ele>15</ele>
        <time>2021-08-21T12:43:52.299Z</time>
      </trkpt>
      <trkpt lat="47.59408" lon="-3.02833">
        <ele>14.60000038147</ele>
        <time>2021-08-21T12:44:01.093Z</time>
      </trkpt>
      <trkpt lat="47.59421" lon="-3.0288">
        <ele>16.39999961853</ele>
        <time>2021-08-21T12:44:09.897Z</time>
      </trkpt>
      <trkpt lat="47.59423" lon="-3.02907">
        <ele>17.60000038147</ele>
        <time>2021-08-21T12:44:18.706Z</time>
      </trkpt>
      <trkpt lat="47.59423" lon="-3.02914">
        <ele>17.799999237061</ele>
        <time>2021-08-21T12:44:27.516Z</time>
      </trkpt>
      <trkpt lat="47.59421" lon="-3.02928">
        <ele>18</ele>
        <time>2021-08-21T12:44:36.329Z</time>
      </trkpt>
      <trkpt lat="47.59414" lon="-3.02963">
        <ele>18.799999237061</ele>
        <time>2021-08-21T12:44:45.148Z</time>
      </trkpt>
      <trkpt lat="47.59405" lon="-3.02988">
        <ele>19</ele>
        <time>2021-08-21T12:44:53.973Z</time>
      </trkpt>
      <trkpt lat="47.59396" lon="-3.03011">
        <ele>19.200000762939</ele>
        <time>2021-08-21T12:45:02.803Z</time>
      </trkpt>
      <trkpt lat="47.59388" lon="-3.03037">
        <ele>19.60000038147</ele>
        <time>2021-08-21T12:45:11.638Z</time>
      </trkpt>
      <trkpt lat="47.59387" lon="-3.03041">
        <ele>19.799999237061</ele>
        <time>2021-08-21T12:45:20.474Z</time>
      </trkpt>
      <trkpt lat="47.59385" lon="-3.03049">
        <ele>20</ele>
        <time>2021-08-21T12:45:29.311Z</time>
      </trkpt>
      <trkpt lat="47.59381" lon="-3.03067">
        <ele>20</ele>
        <time>2021-08-21T12:45:38.152Z</time>
      </trkpt>
      <trkpt lat="47.59376" lon="-3.03093">
        <ele>20</ele>
        <time>2021-08-21T12:45:46.998Z</time>
      </trkpt>
      <trkpt lat="47.59382" lon="-3.03113">
        <ele>20</ele>
        <time>2021-08-21T12:45:55.848Z</time>
      </trkpt>
      <trkpt lat="47.5939" lon="-3.03151">
        <ele>20</ele>
        <time>2021-08-21T12:46:04.705Z</time>
      </trkpt>
      <trkpt lat="47.59395" lon="-3.03198">
        <ele>20.799999237061</ele>
        <time>2021-08-21T12:46:13.571Z</time>
      </trkpt>
      <trkpt lat="47.59399" lon="-3.03241">
        <ele>19.799999237061</ele>
        <time>2021-08-21T12:46:22.445Z</time>
      </trkpt>
      <trkpt lat="47.59395" lon="-3.03252">
        <ele>19.799999237061</ele>
        <time>2021-08-21T12:46:31.321Z</time>
      </trkpt>
      <trkpt lat="47.59393" lon="-3.03251">
        <ele>20</ele>
        <time>2021-08-21T12:46:40.198Z</time>
      </trkpt>
      <trkpt lat="47.5938" lon="-3.03248">
        <ele>20.39999961853</ele>
        <time>2021-08-21T12:46:49.079Z</time>
      </trkpt>
      <trkpt lat="47.59364" lon="-3.03245">
        <ele>21.60000038147</ele>
        <time>2021-08-21T12:46:57.964Z</time>
      </trkpt>
      <trkpt lat="47.59361" lon="-3.03244">
        <ele>21.799999237061</ele>
        <time>2021-08-21T12:47:06.850Z</time>
      </trkpt>
      <trkpt lat="47.59338" lon="-3.03289">
        <ele>22</ele>
        <time>2021-08-21T12:47:15.746Z</time>
      </trkpt>
      <trkpt lat="47.59313" lon="-3.03322">
        <ele>22.799999237061</ele>
        <time>2021-08-21T12:47:24.651Z</time>
      </trkpt>
      <trkpt lat="47.59297" lon="-3.03339">
        <ele>24.200000762939</ele>
        <time>2021-08-21T12:47:33.562Z</time>
      </trkpt>
      <trkpt lat="47.59296" lon="-3.03343">
        <ele>24.200000762939</ele>
        <time>2021-08-21T12:47:42.474Z</time>
      </trkpt>
      <trkpt lat="47.59296" lon="-3.03348">
        <ele>24.200000762939</ele>
        <time>2021-08-21T12:47:51.386Z</time>
      </trkpt>
      <trkpt lat="47.59309" lon="-3.03372">
        <ele>23.799999237061</ele>
        <time>2021-08-21T12:48:00.304Z</time>
      </trkpt>
      <trkpt lat="47.59326" lon="-3.03404">
        <ele>21.39999961853</ele>
        <time>2021-08-21T12:48:09.230Z</time>
      </trkpt>
      <trkpt lat="47.5933" lon="-3.03411">
        <ele>20.39999961853</ele>
        <time>2021-08-21T12:48:18.157Z</time>
      </trkpt>
      <trkpt lat="47.59333" lon="-3.03418">
        <ele>20.200000762939</ele>
        <time>2021-08-21T12:48:27.086Z</time>
      </trkpt>
      <trkpt lat="47.59333" lon="-3.03432">
        <ele>20.200000762939</ele>
        <time>2021-08-21T12:48:36.017Z</time>
      </trkpt>
      <trkpt lat="47.59318" lon="-3.03449">
        <ele>20</ele>
        <time>2021-08-21T12:48:44.954Z</time>
      </trkpt>
      <trkpt lat="47.59314" lon="-3.03454">
        <ele>20</ele>
        <time>2021-08-21T12:48:53.892Z</time>
      </trkpt>
      <trkpt lat="47.59313" lon="-3.0346">
        <ele>19.60000038147</ele>
        <time>2021-08-21T12:49:02.831Z</time>
      </trkpt>
      <trkpt lat="47.59306" lon="-3.0349">
        <ele>18</ele>
        <time>2021-08-21T12:49:11.776Z</time>
      </trkpt>
      <trkpt lat="47.59298" lon="-3.03529">
        <ele>17.39999961853</ele>
        <time>2021-08-21T12:49:20.729Z</time>
      </trkpt>
      <trkpt lat="47.59296" lon="-3.03535">
        <ele>17.200000762939</ele>
        <time>2021-08-21T12:49:29.683Z</time>
      </trkpt>
      <trkpt lat="47.59293" lon="-3.03552">
        <ele>17</ele>
        <time>2021-08-21T12:49:38.640Z</time>
      </trkpt>
      <trkpt lat="47.5929" lon="-3.03562">
        <ele>17</ele>
        <time>2021-08-21T12:49:47.599Z</time>
      </trkpt>
      <trkpt lat="47.5929" lon="-3.03563">
        <ele>17</ele>
        <time>2021-08-21T12:49:56.558Z</time>
      </trkpt>
      <trkpt lat="47.5929" lon="-3.03573">
        <ele>17</ele>
        <time>2021-08-21T12:50:05.519Z</time>
      </trkpt>
      <trkpt lat="47.5929" lon="-3.03573">
        <ele>17</ele>
        <time>2021-08-21T12:50:14.480Z</time>
      </trkpt>
      <trkpt lat="47.59288" lon="-3.03572">
        <ele>17</ele>
        <time>2021-08-21T12:50:23.442Z</time>
      </trkpt>
      <trkpt lat="47.59278" lon="-3.0357">
        <ele>17</ele>
        <time>2021-08-21T12:50:32.407Z</time>
      </trkpt>
      <trkpt lat="47.5925" lon="-3.03562">
        <ele>16.39999961853</ele>
        <time>2021-08-21T12:50:41.379Z</time>
      </trkpt>
      <trkpt lat="47.59224" lon="-3.03555">
        <ele>18.200000762939</ele>
        <time>2021-08-21T12:50:50.359Z</time>
      </trkpt>
      <trkpt lat="47.59201" lon="-3.03549">
        <ele>18.799999237061</ele>
        <time>2021-08-21T12:50:59.345Z</time>
      </trkpt>
      <trkpt lat="47.59195" lon="-3.03547">
        <ele>19</ele>
        <time>2021-08-21T12:51:08.333Z</time>
      </trkpt>
      <trkpt lat="47.59192" lon="-3.03546">
        <ele>19</ele>
        <time>2021-08-21T12:51:17.322Z</time>
      </trkpt>
      <trkpt lat="47.59183" lon="-3.03552">
        <ele>19</ele>
        <time>2021-08-21T12:51:26.313Z</time>
      </trkpt>
      <trkpt lat="47.59181" lon="-3.03564">
        <ele>18.799999237061</ele>
        <time>2021-08-21T12:51:35.307Z</time>
      </trkpt>
      <trkpt lat="47.59176" lon="-3.03584">
        <ele>18.799999237061</ele>
        <time>2021-08-21T12:51:44.305Z</time>
      </trkpt>
      <trkpt lat="47.59171" lon="-3.036">
        <ele>19</ele>
        <time>2021-08-21T12:51:53.306Z</time>
      </trkpt>
      <trkpt lat="47.59163" lon="-3.0361">
        <ele>19.39999961853</ele>
        <time>2021-08-21T12:52:02.310Z</time>
      </trkpt>
      <trkpt lat="47.59151" lon="-3.03623">
        <ele>20.200000762939</ele>
        <time>2021-08-21T12:52:11.318Z</time>
      </trkpt>
      <trkpt lat="47.59138" lon="-3.03632">
        <ele>21.200000762939</ele>
        <time>2021-08-21T12:52:20.330Z</time>
      </trkpt>
      <trkpt lat="47.5913" lon="-3.03628">
        <ele>22.200000762939</ele>
        <time>2021-08-21T12:52:29.344Z</time>
      </trkpt>
      <trkpt lat="47.59124" lon="-3.03625">
        <ele>23</ele>
        <time>2021-08-21T12:52:38.360Z</time>
      </trkpt>
      <trkpt lat="47.59119" lon="-3.03635">
        <ele>23</ele>
        <time>2021-08-21T12:52:47.378Z</time>
      </trkpt>
      <trkpt lat="47.59122" lon="-3.03625">
        <ele>23</ele>
        <time>2021-08-21T12:52:56.398Z</time>
      </trkpt>
      <trkpt lat="47.59114" lon="-3.03644">
        <ele>23.39999961853</ele>
        <time>2021-08-21T12:53:05.422Z</time>
      </trkpt>
      <trkpt lat="47.59112" lon="-3.03653">
        <ele>23.200000762939</ele>
        <time>2021-08-21T12:53:14.448Z</time>
      </trkpt>
      <trkpt lat="47.59112" lon="-3.03655">
        <ele>23</ele>
        <time>2021-08-21T12:53:23.475Z</time>
      </trkpt>
      <trkpt lat="47.5911" lon="-3.03665">
        <ele>22.39999961853</ele>
        <time>2021-08-21T12:53:32.504Z</time>
      </trkpt>
      <trkpt lat="47.59105" lon="-3.03683">
        <ele>21.60000038147</ele>
        <time>2021-08-21T12:53:41.536Z</time>
      </trkpt>
      <trkpt lat="47.59102" lon="-3.03694">
        <ele>21.799999237061</ele>
        <time>2021-08-21T12:53:50.570Z</time>
      </trkpt>
      <trkpt lat="47.59101" lon="-3.03697">
        <ele>21.799999237061</ele>
        <time>2021-08-21T12:53:59.605Z</time>
      </trkpt>
      <trkpt lat="47.59101" lon="-3.037">
        <ele>21.799999237061</ele>
        <time>2021-08-21T12:54:08.641Z</time>
      </trkpt>
      <trkpt lat="47.591" lon="-3.03715">
        <ele>21.39999961853</ele>
        <time>2021-08-21T12:54:17.679Z</time>
      </trkpt>
      <trkpt lat="47.59103" lon="-3.03736">
        <ele>21.799999237061</ele>
        <time>2021-08-21T12:54:26.721Z</time>
      </trkpt>
      <trkpt lat="47.59104" lon="-3.03767">
        <ele>22.60000038147</ele>
        <time>2021-08-21T12:54:35.769Z</time>
      </trkpt>
      <trkpt lat="47.59102" lon="-3.0379">
        <ele>23.39999961853</ele>
        <time>2021-08-21T12:54:44.821Z</time>
      </trkpt>
      <trkpt lat="47.59102" lon="-3.03803">
        <ele>23.39999961853</ele>
        <time>2021-08-21T12:54:53.876Z</time>
      </trkpt>
      <trkpt lat="47.59099" lon="-3.03812">
        <ele>23.60000038147</ele>
        <time>2021-08-21T12:55:02.933Z</time>
      </trkpt>
      <trkpt lat="47.59089" lon="-3.03835">
        <ele>23.39999961853</ele>
        <time>2021-08-21T12:55:11.995Z</time>
      </trkpt>
      <trkpt lat="47.59082" lon="-3.03856">
        <ele>22.799999237061</ele>
        <time>2021-08-21T12:55:21.061Z</time>
      </trkpt>
      <trkpt lat="47.59078" lon="-3.03881">
        <ele>22.799999237061</ele>
        <time>2021-08-21T12:55:30.132Z</time>
      </trkpt>
      <trkpt lat="47.59077" lon="-3.0389">
        <ele>22.39999961853</ele>
        <time>2021-08-21T12:55:39.205Z</time>
      </trkpt>
      <trkpt lat="47.59076" lon="-3.03925">
        <ele>21.200000762939</ele>
        <time>2021-08-21T12:55:48.284Z</time>
      </trkpt>
      <trkpt lat="47.59074" lon="-3.03958">
        <ele>20</ele>
        <time>2021-08-21T12:55:57.369Z</time>
      </trkpt>
      <trkpt lat="47.59072" lon="-3.03988">
        <ele>19.39999961853</ele>
        <time>2021-08-21T12:56:06.460Z</time>
      </trkpt>
      <trkpt lat="47.59069" lon="-3.04016">
        <ele>18.39999961853</ele>
        <time>2021-08-21T12:56:15.556Z</time>
      </trkpt>
      <trkpt lat="47.59064" lon="-3.04052">
        <ele>17.60000038147</ele>
        <time>2021-08-21T12:56:24.659Z</time>
      </trkpt>
      <trkpt lat="47.59063" lon="-3.04065">
        <ele>17.200000762939</ele>
        <time>2021-08-21T12:56:33.764Z</time>
      </trkpt>
      <trkpt lat="47.59061" lon="-3.04074">
        <ele>16.799999237061</ele>
        <time>2021-08-21T12:56:42.871Z</time>
      </trkpt>
      <trkpt lat="47.59058" lon="-3.04103">
        <ele>15.800000190735</ele>
        <time>2021-08-21T12:56:51.984Z</time>
      </trkpt>
      <trkpt lat="47.59057" lon="-3.04123">
        <ele>15</ele>
        <time>2021-08-21T12:57:01.100Z</time>
      </trkpt>
      <trkpt lat="47.59058" lon="-3.04161">
        <ele>12.800000190735</ele>
        <time>2021-08-21T12:57:10.223Z</time>
      </trkpt>
      <trkpt lat="47.59063" lon="-3.04187">
        <ele>11.800000190735</ele>
        <time>2021-08-21T12:57:19.351Z</time>
      </trkpt>
      <trkpt lat="47.59071" lon="-3.042">
        <ele>11</ele>
        <time>2021-08-21T12:57:28.483Z</time>
      </trkpt>
      <trkpt lat="47.59079" lon="-3.04206">
        <ele>10.39999961853</ele>
        <time>2021-08-21T12:57:37.617Z</time>
      </trkpt>
      <trkpt lat="47.5909" lon="-3.04221">
        <ele>9.3999996185303</ele>
        <time>2021-08-21T12:57:46.755Z</time>
      </trkpt>
      <trkpt lat="47.59092" lon="-3.0423">
        <ele>8.8000001907349</ele>
        <time>2021-08-21T12:57:55.895Z</time>
      </trkpt>
      <trkpt lat="47.59093" lon="-3.04235">
        <ele>8.1999998092651</ele>
        <time>2021-08-21T12:58:05.036Z</time>
      </trkpt>
      <trkpt lat="47.59096" lon="-3.04269">
        <ele>6.8000001907349</ele>
        <time>2021-08-21T12:58:14.183Z</time>
      </trkpt>
      <trkpt lat="47.59097" lon="-3.04288">
        <ele>6.1999998092651</ele>
        <time>2021-08-21T12:58:23.334Z</time>
      </trkpt>
      <trkpt lat="47.59099" lon="-3.04318">
        <ele>5.4000000953674</ele>
        <time>2021-08-21T12:58:32.491Z</time>
      </trkpt>
      <trkpt lat="47.59099" lon="-3.04339">
        <ele>5.4000000953674</ele>
        <time>2021-08-21T12:58:41.651Z</time>
      </trkpt>
      <trkpt lat="47.59101" lon="-3.04371">
        <ele>5</ele>
        <time>2021-08-21T12:58:50.817Z</time>
      </trkpt>
      <trkpt lat="47.59101" lon="-3.0438">
        <ele>4.8000001907349</ele>
        <time>2021-08-21T12:58:59.985Z</time>
      </trkpt>
      <trkpt lat="47.59103" lon="-3.04415">
        <ele>3.5999999046326</ele>
        <time>2021-08-21T12:59:09.160Z</time>
      </trkpt>
      <trkpt lat="47.59104" lon="-3.04432">
        <ele>3</ele>
        <time>2021-08-21T12:59:18.338Z</time>
      </trkpt>
      <trkpt lat="47.59104" lon="-3.04446">
        <ele>2.4000000953674</ele>
        <time>2021-08-21T12:59:27.518Z</time>
      </trkpt>
      <trkpt lat="47.59106" lon="-3.04469">
        <ele>1.7999999523163</ele>
        <time>2021-08-21T12:59:36.703Z</time>
      </trkpt>
      <trkpt lat="47.59106" lon="-3.04485">
        <ele>1.7999999523163</ele>
        <time>2021-08-21T12:59:45.891Z</time>
      </trkpt>
      <trkpt lat="47.59107" lon="-3.04507">
        <ele>2.4000000953674</ele>
        <time>2021-08-21T12:59:55.083Z</time>
      </trkpt>
      <trkpt lat="47.59108" lon="-3.04521">
        <ele>3</ele>
        <time>2021-08-21T13:00:04.277Z</time>
      </trkpt>
      <trkpt lat="47.5911" lon="-3.04558">
        <ele>5.1999998092651</ele>
        <time>2021-08-21T13:00:13.478Z</time>
      </trkpt>
      <trkpt lat="47.5911" lon="-3.04564">
        <ele>5.5999999046326</ele>
        <time>2021-08-21T13:00:22.680Z</time>
      </trkpt>
      <trkpt lat="47.5911" lon="-3.04571">
        <ele>5.8000001907349</ele>
        <time>2021-08-21T13:00:31.884Z</time>
      </trkpt>
      <trkpt lat="47.59111" lon="-3.04584">
        <ele>5.8000001907349</ele>
        <time>2021-08-21T13:00:41.090Z</time>
      </trkpt>
      <trkpt lat="47.59111" lon="-3.04597">
        <ele>6</ele>
        <time>2021-08-21T13:00:50.298Z</time>
      </trkpt>
      <trkpt lat="47.59112" lon="-3.04603">
        <ele>6</ele>
        <time>2021-08-21T13:00:59.508Z</time>
      </trkpt>
      <trkpt lat="47.59113" lon="-3.04634">
        <ele>7.1999998092651</ele>
        <time>2021-08-21T13:01:08.723Z</time>
      </trkpt>
      <trkpt lat="47.59113" lon="-3.0464">
        <ele>7.4000000953674</ele>
        <time>2021-08-21T13:01:17.939Z</time>
      </trkpt>
      <trkpt lat="47.59114" lon="-3.04654">
        <ele>8</ele>
        <time>2021-08-21T13:01:27.158Z</time>
      </trkpt>
      <trkpt lat="47.59115" lon="-3.04669">
        <ele>8.6000003814697</ele>
        <time>2021-08-21T13:01:36.380Z</time>
      </trkpt>
      <trkpt lat="47.59115" lon="-3.04682">
        <ele>9.1999998092651</ele>
        <time>2021-08-21T13:01:45.604Z</time>
      </trkpt>
      <trkpt lat="47.59116" lon="-3.04688">
        <ele>9.1999998092651</ele>
        <time>2021-08-21T13:01:54.829Z</time>
      </trkpt>
      <trkpt lat="47.59116" lon="-3.04702">
        <ele>9.1999998092651</ele>
        <time>2021-08-21T13:02:04.057Z</time>
      </trkpt>
      <trkpt lat="47.59115" lon="-3.04715">
        <ele>9.1999998092651</ele>
        <time>2021-08-21T13:02:13.287Z</time>
      </trkpt>
      <trkpt lat="47.59114" lon="-3.04722">
        <ele>9</ele>
        <time>2021-08-21T13:02:22.519Z</time>
      </trkpt>
      <trkpt lat="47.59113" lon="-3.04735">
        <ele>9</ele>
        <time>2021-08-21T13:02:31.753Z</time>
      </trkpt>
      <trkpt lat="47.59112" lon="-3.04742">
        <ele>9</ele>
        <time>2021-08-21T13:02:40.988Z</time>
      </trkpt>
      <trkpt lat="47.59111" lon="-3.04753">
        <ele>8.8000001907349</ele>
        <time>2021-08-21T13:02:50.226Z</time>
      </trkpt>
      <trkpt lat="47.5911" lon="-3.04759">
        <ele>8.8000001907349</ele>
        <time>2021-08-21T13:02:59.465Z</time>
      </trkpt>
      <trkpt lat="47.59108" lon="-3.0478">
        <ele>9</ele>
        <time>2021-08-21T13:03:08.708Z</time>
      </trkpt>
      <trkpt lat="47.59107" lon="-3.04786">
        <ele>9</ele>
        <time>2021-08-21T13:03:17.952Z</time>
      </trkpt>
      <trkpt lat="47.59106" lon="-3.04793">
        <ele>9</ele>
        <time>2021-08-21T13:03:27.197Z</time>
      </trkpt>
      <trkpt lat="47.59105" lon="-3.04804">
        <ele>9.3999996185303</ele>
        <time>2021-08-21T13:03:36.444Z</time>
      </trkpt>
      <trkpt lat="47.59102" lon="-3.04825">
        <ele>10</ele>
        <time>2021-08-21T13:03:45.695Z</time>
      </trkpt>
      <trkpt lat="47.59104" lon="-3.04859">
        <ele>10.800000190735</ele>
        <time>2021-08-21T13:03:54.952Z</time>
      </trkpt>
      <trkpt lat="47.59105" lon="-3.04875">
        <ele>12</ele>
        <time>2021-08-21T13:04:04.212Z</time>
      </trkpt>
      <trkpt lat="47.59103" lon="-3.04894">
        <ele>12.800000190735</ele>
        <time>2021-08-21T13:04:13.476Z</time>
      </trkpt>
      <trkpt lat="47.59102" lon="-3.04902">
        <ele>13.39999961853</ele>
        <time>2021-08-21T13:04:22.742Z</time>
      </trkpt>
      <trkpt lat="47.59099" lon="-3.04925">
        <ele>14.39999961853</ele>
        <time>2021-08-21T13:04:32.012Z</time>
      </trkpt>
      <trkpt lat="47.59098" lon="-3.04938">
        <ele>15</ele>
        <time>2021-08-21T13:04:41.284Z</time>
      </trkpt>
      <trkpt lat="47.59094" lon="-3.04967">
        <ele>15.39999961853</ele>
        <time>2021-08-21T13:04:50.562Z</time>
      </trkpt>
      <trkpt lat="47.59092" lon="-3.04988">
        <ele>14.60000038147</ele>
        <time>2021-08-21T13:04:59.844Z</time>
      </trkpt>
      <trkpt lat="47.5909" lon="-3.05019">
        <ele>13.60000038147</ele>
        <time>2021-08-21T13:05:09.131Z</time>
      </trkpt>
      <trkpt lat="47.5909" lon="-3.05036">
        <ele>13.60000038147</ele>
        <time>2021-08-21T13:05:18.422Z</time>
      </trkpt>
      <trkpt lat="47.59089" lon="-3.05049">
        <ele>13.39999961853</ele>
        <time>2021-08-21T13:05:27.715Z</time>
      </trkpt>
      <trkpt lat="47.59089" lon="-3.05055">
        <ele>13.39999961853</ele>
        <time>2021-08-21T13:05:37.009Z</time>
      </trkpt>
      <trkpt lat="47.59089" lon="-3.05062">
        <ele>13.39999961853</ele>
        <time>2021-08-21T13:05:46.304Z</time>
      </trkpt>
      <trkpt lat="47.59085" lon="-3.05083">
        <ele>13</ele>
        <time>2021-08-21T13:05:55.603Z</time>
      </trkpt>
      <trkpt lat="47.5908" lon="-3.05095">
        <ele>12.60000038147</ele>
        <time>2021-08-21T13:06:04.905Z</time>
      </trkpt>
      <trkpt lat="47.59075" lon="-3.05108">
        <ele>11.800000190735</ele>
        <time>2021-08-21T13:06:14.210Z</time>
      </trkpt>
      <trkpt lat="47.59069" lon="-3.05123">
        <ele>11.199999809265</ele>
        <time>2021-08-21T13:06:23.518Z</time>
      </trkpt>
      <trkpt lat="47.59065" lon="-3.05132">
        <ele>10.60000038147</ele>
        <time>2021-08-21T13:06:32.828Z</time>
      </trkpt>
      <trkpt lat="47.59062" lon="-3.05196">
        <ele>8.6000003814697</ele>
        <time>2021-08-21T13:06:42.150Z</time>
      </trkpt>
      <trkpt lat="47.59062" lon="-3.0521">
        <ele>8.1999998092651</ele>
        <time>2021-08-21T13:06:51.475Z</time>
      </trkpt>
      <trkpt lat="47.59064" lon="-3.05235">
        <ele>6.1999998092651</ele>
        <time>2021-08-21T13:07:00.804Z</time>
      </trkpt>
      <trkpt lat="47.59066" lon="-3.05241">
        <ele>5.8000001907349</ele>
        <time>2021-08-21T13:07:10.134Z</time>
      </trkpt>
      <trkpt lat="47.59066" lon="-3.05247">
        <ele>5.4000000953674</ele>
        <time>2021-08-21T13:07:19.466Z</time>
      </trkpt>
      <trkpt lat="47.59065" lon="-3.05264">
        <ele>4</ele>
        <time>2021-08-21T13:07:28.801Z</time>
      </trkpt>
      <trkpt lat="47.5906" lon="-3.05271">
        <ele>4</ele>
        <time>2021-08-21T13:07:38.138Z</time>
      </trkpt>
      <trkpt lat="47.59059" lon="-3.05289">
        <ele>4</ele>
        <time>2021-08-21T13:07:47.478Z</time>
      </trkpt>
      <trkpt lat="47.59051" lon="-3.05307">
        <ele>4</ele>
        <time>2021-08-21T13:07:56.822Z</time>
      </trkpt>
      <trkpt lat="47.59034" lon="-3.05348">
        <ele>4</ele>
        <time>2021-08-21T13:08:06.175Z</time>
      </trkpt>
      <trkpt lat="47.59015" lon="-3.05388">
        <ele>2.4000000953674</ele>
        <time>2021-08-21T13:08:15.537Z</time>
      </trkpt>
      <trkpt lat="47.59012" lon="-3.05394">
        <ele>2.4000000953674</ele>
        <time>2021-08-21T13:08:24.900Z</time>
      </trkpt>
      <trkpt lat="47.59007" lon="-3.05405">
        <ele>2.2000000476837</ele>
        <time>2021-08-21T13:08:34.266Z</time>
      </trkpt>
      <trkpt lat="47.59002" lon="-3.05425">
        <ele>2.7999999523163</ele>
        <time>2021-08-21T13:08:43.636Z</time>
      </trkpt>
      <trkpt lat="47.58998" lon="-3.05446">
        <ele>2.7999999523163</ele>
        <time>2021-08-21T13:08:53.010Z</time>
      </trkpt>
      <trkpt lat="47.58996" lon="-3.05452">
        <ele>2.7999999523163</ele>
        <time>2021-08-21T13:09:02.385Z</time>
      </trkpt>
      <trkpt lat="47.58994" lon="-3.05464">
        <ele>2.7999999523163</ele>
        <time>2021-08-21T13:09:11.762Z</time>
      </trkpt>
      <trkpt lat="47.58992" lon="-3.05477">
        <ele>3.2000000476837</ele>
        <time>2021-08-21T13:09:21.142Z</time>
      </trkpt>
      <trkpt lat="47.58991" lon="-3.05484">
        <ele>3.4000000953674</ele>
        <time>2021-08-21T13:09:30.523Z</time>
      </trkpt>
      <trkpt lat="47.5899" lon="-3.05496">
        <ele>3.7999999523163</ele>
        <time>2021-08-21T13:09:39.906Z</time>
      </trkpt>
      <trkpt lat="47.58989" lon="-3.05502">
        <ele>4</ele>
        <time>2021-08-21T13:09:49.290Z</time>
      </trkpt>
      <trkpt lat="47.58981" lon="-3.05528">
        <ele>4.1999998092651</ele>
        <time>2021-08-21T13:09:58.680Z</time>
      </trkpt>
      <trkpt lat="47.58979" lon="-3.05533">
        <ele>4.1999998092651</ele>
        <time>2021-08-21T13:10:08.071Z</time>
      </trkpt>
      <trkpt lat="47.58968" lon="-3.05561">
        <ele>4.1999998092651</ele>
        <time>2021-08-21T13:10:17.468Z</time>
      </trkpt>
      <trkpt lat="47.58946" lon="-3.05617">
        <ele>6</ele>
        <time>2021-08-21T13:10:26.877Z</time>
      </trkpt>
      <trkpt lat="47.5893" lon="-3.05657">
        <ele>6.5999999046326</ele>
        <time>2021-08-21T13:10:36.295Z</time>
      </trkpt>
      <trkpt lat="47.58917" lon="-3.05691">
        <ele>7</ele>
        <time>2021-08-21T13:10:45.720Z</time>
      </trkpt>
      <trkpt lat="47.58905" lon="-3.0572">
        <ele>7</ele>
        <time>2021-08-21T13:10:55.151Z</time>
      </trkpt>
      <trkpt lat="47.5889" lon="-3.05758">
        <ele>7</ele>
        <time>2021-08-21T13:11:04.590Z</time>
      </trkpt>
      <trkpt lat="47.58876" lon="-3.05793">
        <ele>6</ele>
        <time>2021-08-21T13:11:14.037Z</time>
      </trkpt>
      <trkpt lat="47.58861" lon="-3.0583">
        <ele>6</ele>
        <time>2021-08-21T13:11:23.492Z</time>
      </trkpt>
      <trkpt lat="47.58859" lon="-3.05836">
        <ele>6</ele>
        <time>2021-08-21T13:11:32.948Z</time>
      </trkpt>
      <trkpt lat="47.58857" lon="-3.05842">
        <ele>6</ele>
        <time>2021-08-21T13:11:42.405Z</time>
      </trkpt>
      <trkpt lat="47.58847" lon="-3.05854">
        <ele>6</ele>
        <time>2021-08-21T13:11:51.866Z</time>
      </trkpt>
      <trkpt lat="47.58825" lon="-3.05872">
        <ele>6.4000000953674</ele>
        <time>2021-08-21T13:12:01.334Z</time>
      </trkpt>
      <trkpt lat="47.58819" lon="-3.0588">
        <ele>6.5999999046326</ele>
        <time>2021-08-21T13:12:10.804Z</time>
      </trkpt>
      <trkpt lat="47.58809" lon="-3.05892">
        <ele>7</ele>
        <time>2021-08-21T13:12:20.277Z</time>
      </trkpt>
      <trkpt lat="47.58806" lon="-3.05896">
        <ele>7.1999998092651</ele>
        <time>2021-08-21T13:12:29.751Z</time>
      </trkpt>
      <trkpt lat="47.58795" lon="-3.0591">
        <ele>8.1999998092651</ele>
        <time>2021-08-21T13:12:39.230Z</time>
      </trkpt>
      <trkpt lat="47.58793" lon="-3.05913">
        <ele>8.3999996185303</ele>
        <time>2021-08-21T13:12:48.709Z</time>
      </trkpt>
      <trkpt lat="47.58784" lon="-3.05924">
        <ele>9.3999996185303</ele>
        <time>2021-08-21T13:12:58.192Z</time>
      </trkpt>
      <trkpt lat="47.58777" lon="-3.05933">
        <ele>10</ele>
        <time>2021-08-21T13:13:07.677Z</time>
      </trkpt>
      <trkpt lat="47.5875" lon="-3.05938">
        <ele>10.800000190735</ele>
        <time>2021-08-21T13:13:17.169Z</time>
      </trkpt>
      <trkpt lat="47.58735" lon="-3.05937">
        <ele>10.39999961853</ele>
        <time>2021-08-21T13:13:26.666Z</time>
      </trkpt>
      <trkpt lat="47.58718" lon="-3.0595">
        <ele>10</ele>
        <time>2021-08-21T13:13:36.168Z</time>
      </trkpt>
      <trkpt lat="47.58698" lon="-3.05931">
        <ele>11</ele>
        <time>2021-08-21T13:13:45.676Z</time>
      </trkpt>
      <trkpt lat="47.58689" lon="-3.05931">
        <ele>11</ele>
        <time>2021-08-21T13:13:55.187Z</time>
      </trkpt>
      <trkpt lat="47.58654" lon="-3.05927">
        <ele>11</ele>
        <time>2021-08-21T13:14:04.707Z</time>
      </trkpt>
      <trkpt lat="47.58635" lon="-3.0593">
        <ele>11</ele>
        <time>2021-08-21T13:14:14.232Z</time>
      </trkpt>
      <trkpt lat="47.58621" lon="-3.05943">
        <ele>11</ele>
        <time>2021-08-21T13:14:23.762Z</time>
      </trkpt>
      <trkpt lat="47.58607" lon="-3.0594">
        <ele>11.39999961853</ele>
        <time>2021-08-21T13:14:33.296Z</time>
      </trkpt>
      <trkpt lat="47.58583" lon="-3.0594">
        <ele>12.39999961853</ele>
        <time>2021-08-21T13:14:42.837Z</time>
      </trkpt>
      <trkpt lat="47.58568" lon="-3.05942">
        <ele>13</ele>
        <time>2021-08-21T13:14:52.382Z</time>
      </trkpt>
      <trkpt lat="47.5856" lon="-3.05942">
        <ele>13.39999961853</ele>
        <time>2021-08-21T13:15:01.929Z</time>
      </trkpt>
      <trkpt lat="47.58557" lon="-3.05943">
        <ele>13.39999961853</ele>
        <time>2021-08-21T13:15:11.477Z</time>
      </trkpt>
      <trkpt lat="47.58549" lon="-3.05928">
        <ele>13.60000038147</ele>
        <time>2021-08-21T13:15:21.028Z</time>
      </trkpt>
      <trkpt lat="47.58551" lon="-3.05905">
        <ele>12.60000038147</ele>
        <time>2021-08-21T13:15:30.584Z</time>
      </trkpt>
      <trkpt lat="47.58553" lon="-3.0587">
        <ele>10.199999809265</ele>
        <time>2021-08-21T13:15:40.146Z</time>
      </trkpt>
      <trkpt lat="47.58555" lon="-3.05821">
        <ele>8.1999998092651</ele>
        <time>2021-08-21T13:15:49.717Z</time>
      </trkpt>
      <trkpt lat="47.58549" lon="-3.05775">
        <ele>8.3999996185303</ele>
        <time>2021-08-21T13:15:59.297Z</time>
      </trkpt>
      <trkpt lat="47.5855" lon="-3.05759">
        <ele>7.8000001907349</ele>
        <time>2021-08-21T13:16:08.880Z</time>
      </trkpt>
      <trkpt lat="47.58552" lon="-3.05753">
        <ele>7.5999999046326</ele>
        <time>2021-08-21T13:16:18.464Z</time>
      </trkpt>
      <trkpt lat="47.58561" lon="-3.05724">
        <ele>6.5999999046326</ele>
        <time>2021-08-21T13:16:28.054Z</time>
      </trkpt>
      <trkpt lat="47.58563" lon="-3.05716">
        <ele>6.4000000953674</ele>
        <time>2021-08-21T13:16:37.646Z</time>
      </trkpt>
      <trkpt lat="47.58563" lon="-3.05708">
        <ele>6.1999998092651</ele>
        <time>2021-08-21T13:16:47.239Z</time>
      </trkpt>
      <trkpt lat="47.58559" lon="-3.05674">
        <ele>5.4000000953674</ele>
        <time>2021-08-21T13:16:56.839Z</time>
      </trkpt>
      <trkpt lat="47.58557" lon="-3.05658">
        <ele>4.1999998092651</ele>
        <time>2021-08-21T13:17:06.442Z</time>
      </trkpt>
      <trkpt lat="47.58554" lon="-3.05642">
        <ele>4.1999998092651</ele>
        <time>2021-08-21T13:17:16.048Z</time>
      </trkpt>
      <trkpt lat="47.58553" lon="-3.05634">
        <ele>4.4000000953674</ele>
        <time>2021-08-21T13:17:25.655Z</time>
      </trkpt>
      <trkpt lat="47.58551" lon="-3.05619">
        <ele>4.1999998092651</ele>
        <time>2021-08-21T13:17:35.265Z</time>
      </trkpt>
      <trkpt lat="47.58548" lon="-3.05604">
        <ele>4.4000000953674</ele>
        <time>2021-08-21T13:17:44.878Z</time>
      </trkpt>
      <trkpt lat="47.58548" lon="-3.056">
        <ele>4.4000000953674</ele>
        <time>2021-08-21T13:17:54.492Z</time>
      </trkpt>
      <trkpt lat="47.58543" lon="-3.05589">
        <ele>4.5999999046326</ele>
        <time>2021-08-21T13:18:04.108Z</time>
      </trkpt>
      <trkpt lat="47.58534" lon="-3.05585">
        <ele>4.5999999046326</ele>
        <time>2021-08-21T13:18:13.727Z</time>
      </trkpt>
      <trkpt lat="47.58529" lon="-3.05583">
        <ele>4.4000000953674</ele>
        <time>2021-08-21T13:18:23.347Z</time>
      </trkpt>
      <trkpt lat="47.58524" lon="-3.05581">
        <ele>4.4000000953674</ele>
        <time>2021-08-21T13:18:32.968Z</time>
      </trkpt>
      <trkpt lat="47.58504" lon="-3.0558">
        <ele>4.4000000953674</ele>
        <time>2021-08-21T13:18:42.595Z</time>
      </trkpt>
      <trkpt lat="47.585" lon="-3.05579">
        <ele>4.1999998092651</ele>
        <time>2021-08-21T13:18:52.223Z</time>
      </trkpt>
      <trkpt lat="47.58494" lon="-3.05579">
        <ele>4</ele>
        <time>2021-08-21T13:19:01.853Z</time>
      </trkpt>
      <trkpt lat="47.58474" lon="-3.05587">
        <ele>4</ele>
        <time>2021-08-21T13:19:11.488Z</time>
      </trkpt>
      <trkpt lat="47.58464" lon="-3.05592">
        <ele>3.5999999046326</ele>
        <time>2021-08-21T13:19:21.126Z</time>
      </trkpt>
      <trkpt lat="47.58452" lon="-3.05604">
        <ele>3.4000000953674</ele>
        <time>2021-08-21T13:19:30.768Z</time>
      </trkpt>
      <trkpt lat="47.58427" lon="-3.05637">
        <ele>4</ele>
        <time>2021-08-21T13:19:40.420Z</time>
      </trkpt>
      <trkpt lat="47.58418" lon="-3.05648">
        <ele>4</ele>
        <time>2021-08-21T13:19:50.075Z</time>
      </trkpt>
      <trkpt lat="47.58411" lon="-3.05654">
        <ele>4</ele>
        <time>2021-08-21T13:19:59.732Z</time>
      </trkpt>
      <trkpt lat="47.58399" lon="-3.05664">
        <ele>4.4000000953674</ele>
        <time>2021-08-21T13:20:09.393Z</time>
      </trkpt>
      <trkpt lat="47.58383" lon="-3.05668">
        <ele>4.4000000953674</ele>
        <time>2021-08-21T13:20:19.058Z</time>
      </trkpt>
      <trkpt lat="47.58353" lon="-3.05676">
        <ele>5.4000000953674</ele>
        <time>2021-08-21T13:20:28.731Z</time>
      </trkpt>
      <trkpt lat="47.58332" lon="-3.0568">
        <ele>6.1999998092651</ele>
        <time>2021-08-21T13:20:38.410Z</time>
      </trkpt>
      <trkpt lat="47.58314" lon="-3.05681">
        <ele>7.5999999046326</ele>
        <time>2021-08-21T13:20:48.094Z</time>
      </trkpt>
      <trkpt lat="47.58306" lon="-3.05681">
        <ele>8</ele>
        <time>2021-08-21T13:20:57.780Z</time>
      </trkpt>
      <trkpt lat="47.58287" lon="-3.05686">
        <ele>8.1999998092651</ele>
        <time>2021-08-21T13:21:07.472Z</time>
      </trkpt>
      <trkpt lat="47.58261" lon="-3.05694">
        <ele>7.8000001907349</ele>
        <time>2021-08-21T13:21:17.171Z</time>
      </trkpt>
      <trkpt lat="47.58243" lon="-3.05705">
        <ele>8.1999998092651</ele>
        <time>2021-08-21T13:21:26.875Z</time>
      </trkpt>
      <trkpt lat="47.58235" lon="-3.05716">
        <ele>8.8000001907349</ele>
        <time>2021-08-21T13:21:36.583Z</time>
      </trkpt>
      <trkpt lat="47.58222" lon="-3.05733">
        <ele>10</ele>
        <time>2021-08-21T13:21:46.295Z</time>
      </trkpt>
      <trkpt lat="47.58214" lon="-3.05745">
        <ele>10.60000038147</ele>
        <time>2021-08-21T13:21:56.010Z</time>
      </trkpt>
      <trkpt lat="47.58212" lon="-3.05748">
        <ele>10.800000190735</ele>
        <time>2021-08-21T13:22:05.726Z</time>
      </trkpt>
      <trkpt lat="47.58197" lon="-3.05757">
        <ele>11.60000038147</ele>
        <time>2021-08-21T13:22:15.446Z</time>
      </trkpt>
      <trkpt lat="47.58183" lon="-3.05758">
        <ele>12.800000190735</ele>
        <time>2021-08-21T13:22:25.170Z</time>
      </trkpt>
      <trkpt lat="47.58167" lon="-3.05755">
        <ele>13.60000038147</ele>
        <time>2021-08-21T13:22:34.899Z</time>
      </trkpt>
      <trkpt lat="47.5815" lon="-3.05752">
        <ele>14.39999961853</ele>
        <time>2021-08-21T13:22:44.632Z</time>
      </trkpt>
      <trkpt lat="47.58134" lon="-3.0575">
        <ele>15</ele>
        <time>2021-08-21T13:22:54.370Z</time>
      </trkpt>
      <trkpt lat="47.58119" lon="-3.0575">
        <ele>15</ele>
        <time>2021-08-21T13:23:04.112Z</time>
      </trkpt>
      <trkpt lat="47.58117" lon="-3.0575">
        <ele>15</ele>
        <time>2021-08-21T13:23:13.854Z</time>
      </trkpt>
      <trkpt lat="47.58117" lon="-3.05743">
        <ele>15</ele>
        <time>2021-08-21T13:23:23.598Z</time>
      </trkpt>
      <trkpt lat="47.58119" lon="-3.05737">
        <ele>15</ele>
        <time>2021-08-21T13:23:33.343Z</time>
      </trkpt>
      <trkpt lat="47.5812" lon="-3.05737">
        <ele>15</ele>
        <time>2021-08-21T13:23:43.088Z</time>
      </trkpt>
      <trkpt lat="47.5812" lon="-3.05737">
        <ele>15</ele>
        <time>2021-08-21T13:23:52.834Z</time>
      </trkpt>
      <trkpt lat="47.5812" lon="-3.05733">
        <ele>15</ele>
        <time>2021-08-21T13:24:02.580Z</time>
      </trkpt>
      <trkpt lat="47.5812" lon="-3.05729">
        <ele>15</ele>
        <time>2021-08-21T13:24:12.327Z</time>
      </trkpt>
      <trkpt lat="47.58122" lon="-3.05737">
        <ele>15</ele>
        <time>2021-08-21T13:24:22.076Z</time>
      </trkpt>
      <trkpt lat="47.58124" lon="-3.05701">
        <ele>14.60000038147</ele>
        <time>2021-08-21T13:24:31.832Z</time>
      </trkpt>
      <trkpt lat="47.58125" lon="-3.05697">
        <ele>14.60000038147</ele>
        <time>2021-08-21T13:24:41.588Z</time>
      </trkpt>
      <trkpt lat="47.58127" lon="-3.05686">
        <ele>14.60000038147</ele>
        <time>2021-08-21T13:24:51.346Z</time>
      </trkpt>
      <trkpt lat="47.58131" lon="-3.05668">
        <ele>13.39999961853</ele>
        <time>2021-08-21T13:25:01.108Z</time>
      </trkpt>
      <trkpt lat="47.58134" lon="-3.05653">
        <ele>12.199999809265</ele>
        <time>2021-08-21T13:25:10.873Z</time>
      </trkpt>
      <trkpt lat="47.58136" lon="-3.05648">
        <ele>11.60000038147</ele>
        <time>2021-08-21T13:25:20.639Z</time>
      </trkpt>
      <trkpt lat="47.58137" lon="-3.05647">
        <ele>11.60000038147</ele>
        <time>2021-08-21T13:25:30.405Z</time>
      </trkpt>
      <trkpt lat="47.58137" lon="-3.05644">
        <ele>11.39999961853</ele>
        <time>2021-08-21T13:25:40.172Z</time>
      </trkpt>
      <trkpt lat="47.58137" lon="-3.05643">
        <ele>11.39999961853</ele>
        <time>2021-08-21T13:25:49.939Z</time>
      </trkpt>
    </trkseg>
  </trk>
</gpx>